Wetterdaten: Mittwoch, 22.11.2017
Datum Zeit Temp. A. Pool Temp. Feuchte A. Luftdruck Regen Wind Richtung Richtung Sonnenschein ET UV Solar Taupunkt Windchill Windben Empfang
22.11.2017 00:00 4,3 C 5,0 C 97 % 1014,8 hPa 0,0 l/m 2,2 km/h (1 Bft) SW 230 0 min 0,000 mm 0,0 UV-I 0 W/m 3,9 C 4,3 C 3,2 km/h (1 Bft) 98,18 %
22.11.2017 00:02 4,3 C 5,0 C 97 % 1014,8 hPa 0,0 l/m 3,0 km/h (1 Bft) SW 230 0 min 0,000 mm 0,0 UV-I 0 W/m 3,9 C 4,3 C 4,8 km/h (1 Bft) 10,00 %
22.11.2017 00:04 4,3 C 5,0 C 98 % 1014,7 hPa 0,0 l/m 1,2 km/h (1 Bft) SW 230 0 min 0,000 mm 0,0 UV-I 0 W/m 4,0 C 4,3 C 3,2 km/h (1 Bft) 91,67 %
22.11.2017 00:06 4,2 C 5,0 C 97 % 1014,7 hPa 0,0 l/m 2,5 km/h (1 Bft) SW 217 0 min 0,000 mm 0,0 UV-I 0 W/m 3,8 C 4,2 C 6,4 km/h (2 Bft) 96,55 %
22.11.2017 00:08 4,3 C 5,0 C 97 % 1014,6 hPa 0,0 l/m 1,5 km/h (1 Bft) SW 217 0 min 0,000 mm 0,0 UV-I 0 W/m 3,9 C 4,3 C 3,2 km/h (1 Bft) 96,92 %
22.11.2017 00:10 4,4 C 5,0 C 98 % 1014,6 hPa 0,0 l/m 2,6 km/h (1 Bft) SW 217 0 min 0,000 mm 0,0 UV-I 0 W/m 4,1 C 4,4 C 4,8 km/h (1 Bft) 97,14 %
22.11.2017 00:12 4,3 C 5,0 C 98 % 1014,7 hPa 0,0 l/m 3,0 km/h (1 Bft) SW 218 0 min 0,000 mm 0,0 UV-I 0 W/m 4,0 C 4,3 C 4,8 km/h (1 Bft) 96,43 %
22.11.2017 00:14 4,2 C 5,0 C 98 % 1014,6 hPa 0,0 l/m 3,5 km/h (1 Bft) SW 218 0 min 0,000 mm 0,0 UV-I 0 W/m 3,9 C 4,2 C 6,4 km/h (2 Bft) 97,56 %
22.11.2017 00:16 4,4 C 5,0 C 98 % 1014,6 hPa 0,0 l/m 2,1 km/h (1 Bft) SW 218 0 min 0,000 mm 0,0 UV-I 0 W/m 4,1 C 4,4 C 3,2 km/h (1 Bft) 98,00 %
22.11.2017 00:18 4,7 C 5,0 C 98 % 1014,6 hPa 0,0 l/m 4,4 km/h (1 Bft) W-SW 242 0 min 0,000 mm 0,0 UV-I 0 W/m 4,4 C 4,7 C 11,3 km/h (2 Bft) 97,87 %
22.11.2017 00:20 4,8 C 5,0 C 98 % 1014,6 hPa 0,0 l/m 4,2 km/h (1 Bft) W 278 0 min 0,000 mm 0,0 UV-I 0 W/m 4,5 C 4,8 C 6,4 km/h (2 Bft) 98,00 %
22.11.2017 00:22 4,9 C 5,0 C 98 % 1014,5 hPa 0,0 l/m 1,8 km/h (1 Bft) W 278 0 min 0,000 mm 0,0 UV-I 0 W/m 4,6 C 4,9 C 3,2 km/h (1 Bft) 97,87 %
22.11.2017 00:24 4,9 C 5,0 C 98 % 1014,5 hPa 0,0 l/m 0,6 km/h (0 Bft) W 278 0 min 0,000 mm 0,0 UV-I 0 W/m 4,6 C 4,9 C 1,6 km/h (1 Bft) 98,00 %
22.11.2017 00:26 4,9 C 5,0 C 98 % 1014,5 hPa 0,0 l/m 1,2 km/h (1 Bft) W 277 0 min 0,000 mm 0,0 UV-I 0 W/m 4,6 C 4,9 C 3,2 km/h (1 Bft) 97,56 %
22.11.2017 00:28 4,8 C 5,0 C 98 % 1014,4 hPa 0,0 l/m 0,5 km/h (0 Bft) W 278 0 min 0,000 mm 0,0 UV-I 0 W/m 4,5 C 4,8 C 1,6 km/h (1 Bft) 98,00 %
22.11.2017 00:30 4,8 C 5,0 C 98 % 1014,4 hPa 0,0 l/m 0,0 km/h (0 Bft) W 278 0 min 0,000 mm 0,0 UV-I 0 W/m 4,5 C 4,8 C 1,6 km/h (1 Bft) 93,62 %
22.11.2017 00:32 4,8 C 5,0 C 98 % 1014,4 hPa 0,0 l/m 0,3 km/h (0 Bft) W 278 0 min 0,000 mm 0,0 UV-I 0 W/m 4,5 C 4,8 C 3,2 km/h (1 Bft) 98,00 %
22.11.2017 00:34 4,7 C 5,0 C 98 % 1014,4 hPa 0,0 l/m 1,9 km/h (1 Bft) W 278 0 min 0,000 mm 0,0 UV-I 0 W/m 4,4 C 4,7 C 3,2 km/h (1 Bft) 97,22 %
22.11.2017 00:36 4,4 C 5,0 C 98 % 1014,4 hPa 0,0 l/m 1,6 km/h (1 Bft) W 277 0 min 0,000 mm 0,0 UV-I 0 W/m 4,1 C 4,4 C 3,2 km/h (1 Bft) 96,00 %
22.11.2017 00:38 4,4 C 5,0 C 98 % 1014,4 hPa 0,0 l/m 2,2 km/h (1 Bft) W 276 0 min 0,000 mm 0,0 UV-I 0 W/m 4,1 C 4,4 C 4,8 km/h (1 Bft) 98,15 %
22.11.2017 00:40 4,3 C 5,0 C 98 % 1014,4 hPa 0,0 l/m 2,2 km/h (1 Bft) SW 232 0 min 0,000 mm 0,0 UV-I 0 W/m 4,0 C 4,3 C 6,4 km/h (2 Bft) 97,56 %
22.11.2017 00:42 4,5 C 5,0 C 98 % 1014,4 hPa 0,0 l/m 2,0 km/h (1 Bft) SW 232 0 min 0,000 mm 0,0 UV-I 0 W/m 4,2 C 4,5 C 6,4 km/h (2 Bft) 98,00 %
22.11.2017 00:44 4,5 C 5,0 C 98 % 1014,4 hPa 0,0 l/m 1,9 km/h (1 Bft) SW 235 0 min 0,000 mm 0,0 UV-I 0 W/m 4,2 C 4,5 C 3,2 km/h (1 Bft) 100,00 %
22.11.2017 00:46 5,0 C 5,0 C 98 % 1014,5 hPa 0,0 l/m 2,0 km/h (1 Bft) SW 235 0 min 0,000 mm 0,0 UV-I 0 W/m 4,7 C 5,0 C 4,8 km/h (1 Bft) 100,00 %
22.11.2017 00:48 5,1 C 5,0 C 98 % 1014,5 hPa 0,0 l/m 3,4 km/h (1 Bft) W-SW 248 0 min 0,000 mm 0,0 UV-I 0 W/m 4,8 C 5,1 C 4,8 km/h (1 Bft) 100,00 %
22.11.2017 00:50 4,8 C 5,0 C 98 % 1014,5 hPa 0,0 l/m 1,6 km/h (1 Bft) W-SW 248 0 min 0,000 mm 0,0 UV-I 0 W/m 4,5 C 4,8 C 3,2 km/h (1 Bft) 97,87 %
22.11.2017 00:52 4,8 C 5,0 C 98 % 1014,5 hPa 0,0 l/m 0,1 km/h (0 Bft) W-SW 248 0 min 0,000 mm 0,0 UV-I 0 W/m 4,5 C 4,8 C 1,6 km/h (1 Bft) 100,00 %
22.11.2017 00:54 4,8 C 5,0 C 98 % 1014,5 hPa 0,0 l/m 0,4 km/h (0 Bft) W-SW 248 0 min 0,000 mm 0,0 UV-I 0 W/m 4,5 C 4,8 C 1,6 km/h (1 Bft) 100,00 %
22.11.2017 00:56 4,9 C 5,0 C 98 % 1014,5 hPa 0,0 l/m 1,6 km/h (1 Bft) W-SW 248 0 min 0,000 mm 0,0 UV-I 0 W/m 4,6 C 4,9 C 3,2 km/h (1 Bft) 97,56 %
22.11.2017 00:58 4,8 C 5,0 C 98 % 1014,5 hPa 0,0 l/m 2,4 km/h (1 Bft) W 259 0 min 0,000 mm 0,0 UV-I 0 W/m 4,5 C 4,8 C 4,8 km/h (1 Bft) 97,92 %
22.11.2017 01:00 4,8 C 5,0 C 98 % 1014,6 hPa 0,0 l/m 3,3 km/h (1 Bft) W 271 0 min 0,000 mm 0,0 UV-I 0 W/m 4,5 C 4,8 C 4,8 km/h (1 Bft) 98,00 %
22.11.2017 01:02 5,1 C 5,0 C 98 % 1014,5 hPa 0,0 l/m 3,8 km/h (1 Bft) W-NW 286 0 min 0,000 mm 0,0 UV-I 0 W/m 4,8 C 5,1 C 6,4 km/h (2 Bft) 93,62 %
22.11.2017 01:04 5,1 C 5,0 C 98 % 1014,5 hPa 0,0 l/m 4,9 km/h (1 Bft) W 266 0 min 0,000 mm 0,0 UV-I 0 W/m 4,8 C 5,1 C 9,7 km/h (2 Bft) 98,00 %
22.11.2017 01:06 5,2 C 5,0 C 98 % 1014,5 hPa 0,0 l/m 2,3 km/h (1 Bft) W 266 0 min 0,000 mm 0,0 UV-I 0 W/m 4,9 C 5,2 C 6,4 km/h (2 Bft) 97,87 %
22.11.2017 01:08 5,2 C 5,0 C 98 % 1014,5 hPa 0,0 l/m 2,7 km/h (1 Bft) W 266 0 min 0,000 mm 0,0 UV-I 0 W/m 4,9 C 5,2 C 4,8 km/h (1 Bft) 97,62 %
22.11.2017 01:10 5,1 C 5,0 C 98 % 1014,5 hPa 0,0 l/m 2,0 km/h (1 Bft) W 266 0 min 0,000 mm 0,0 UV-I 0 W/m 4,8 C 5,1 C 4,8 km/h (1 Bft) 93,62 %
22.11.2017 01:12 5,2 C 5,0 C 98 % 1014,5 hPa 0,0 l/m 3,8 km/h (1 Bft) W 265 0 min 0,000 mm 0,0 UV-I 0 W/m 4,9 C 5,2 C 4,8 km/h (1 Bft) 97,96 %
22.11.2017 01:14 5,2 C 5,0 C 97 % 1014,5 hPa 0,0 l/m 2,1 km/h (1 Bft) W 266 0 min 0,000 mm 0,0 UV-I 0 W/m 4,8 C 5,2 C 4,8 km/h (1 Bft) 97,44 %
22.11.2017 01:16 5,1 C 5,0 C 97 % 1014,5 hPa 0,0 l/m 1,4 km/h (1 Bft) W 266 0 min 0,000 mm 0,0 UV-I 0 W/m 4,7 C 5,1 C 3,2 km/h (1 Bft) 98,00 %
22.11.2017 01:18 4,9 C 5,0 C 97 % 1014,5 hPa 0,0 l/m 1,3 km/h (1 Bft) W-SW 258 0 min 0,000 mm 0,0 UV-I 0 W/m 4,5 C 4,9 C 4,8 km/h (1 Bft) 94,74 %
22.11.2017 01:20 4,9 C 5,0 C 97 % 1014,4 hPa 0,0 l/m 1,6 km/h (1 Bft) W-SW 258 0 min 0,000 mm 0,0 UV-I 0 W/m 4,5 C 4,9 C 3,2 km/h (1 Bft) 98,39 %
22.11.2017 01:22 5,2 C 5,0 C 97 % 1014,4 hPa 0,0 l/m 2,3 km/h (1 Bft) W-SW 258 0 min 0,000 mm 0,0 UV-I 0 W/m 4,8 C 5,2 C 3,2 km/h (1 Bft) 95,74 %
22.11.2017 01:24 5,2 C 5,0 C 97 % 1014,4 hPa 0,0 l/m 2,3 km/h (1 Bft) W-SW 258 0 min 0,000 mm 0,0 UV-I 0 W/m 4,8 C 5,2 C 4,8 km/h (1 Bft) 97,56 %
22.11.2017 01:26 5,2 C 5,0 C 97 % 1014,4 hPa 0,0 l/m 2,5 km/h (1 Bft) W-SW 258 0 min 0,000 mm 0,0 UV-I 0 W/m 4,8 C 5,2 C 4,8 km/h (1 Bft) 96,00 %
22.11.2017 01:28 5,1 C 5,0 C 97 % 1014,4 hPa 0,0 l/m 2,8 km/h (1 Bft) W-SW 258 0 min 0,000 mm 0,0 UV-I 0 W/m 4,7 C 5,1 C 3,2 km/h (1 Bft) 97,56 %
22.11.2017 01:30 5,2 C 5,0 C 97 % 1014,4 hPa 0,0 l/m 2,6 km/h (1 Bft) W-SW 257 0 min 0,000 mm 0,0 UV-I 0 W/m 4,8 C 5,2 C 4,8 km/h (1 Bft) 98,11 %
22.11.2017 01:32 5,0 C 5,0 C 97 % 1014,4 hPa 0,0 l/m 3,5 km/h (1 Bft) W-SW 257 0 min 0,000 mm 0,0 UV-I 0 W/m 4,6 C 5,0 C 4,8 km/h (1 Bft) 98,11 %
22.11.2017 01:34 4,8 C 5,0 C 96 % 1014,3 hPa 0,0 l/m 3,5 km/h (1 Bft) W-SW 252 0 min 0,000 mm 0,0 UV-I 0 W/m 4,2 C 4,8 C 4,8 km/h (1 Bft) 97,87 %
22.11.2017 01:36 4,8 C 5,0 C 96 % 1014,3 hPa 0,0 l/m 3,8 km/h (1 Bft) W-SW 242 0 min 0,000 mm 0,0 UV-I 0 W/m 4,2 C 4,8 C 6,4 km/h (2 Bft) 97,37 %
22.11.2017 01:38 4,8 C 5,0 C 96 % 1014,3 hPa 0,0 l/m 4,3 km/h (1 Bft) W-SW 239 0 min 0,000 mm 0,0 UV-I 0 W/m 4,2 C 4,8 C 6,4 km/h (2 Bft) 98,21 %
22.11.2017 01:40 4,8 C 5,0 C 96 % 1014,4 hPa 0,0 l/m 4,1 km/h (1 Bft) W-SW 239 0 min 0,000 mm 0,0 UV-I 0 W/m 4,2 C 4,8 C 6,4 km/h (2 Bft) 97,56 %
22.11.2017 01:42 4,8 C 5,0 C 96 % 1014,4 hPa 0,0 l/m 4,6 km/h (1 Bft) W-SW 238 0 min 0,000 mm 0,0 UV-I 0 W/m 4,2 C 4,8 C 6,4 km/h (2 Bft) 100,00 %
22.11.2017 01:44 4,8 C 5,0 C 96 % 1014,3 hPa 0,0 l/m 4,5 km/h (1 Bft) W-SW 238 0 min 0,000 mm 0,0 UV-I 0 W/m 4,2 C 4,8 C 6,4 km/h (2 Bft) 97,56 %
22.11.2017 01:46 4,6 C 5,0 C 96 % 1014,3 hPa 0,0 l/m 4,9 km/h (1 Bft) W-SW 238 0 min 0,000 mm 0,0 UV-I 0 W/m 4,0 C 4,6 C 6,4 km/h (2 Bft) 100,00 %
22.11.2017 01:48 4,6 C 5,0 C 96 % 1014,3 hPa 0,0 l/m 5,3 km/h (1 Bft) SW 232 0 min 0,000 mm 0,0 UV-I 0 W/m 4,0 C 4,6 C 6,4 km/h (2 Bft) 100,00 %
22.11.2017 01:50 4,6 C 5,0 C 96 % 1014,4 hPa 0,0 l/m 5,4 km/h (1 Bft) SW 232 0 min 0,000 mm 0,0 UV-I 0 W/m 4,0 C 4,6 C 8,0 km/h (2 Bft) 100,00 %
22.11.2017 01:52 4,7 C 5,0 C 97 % 1014,4 hPa 0,0 l/m 5,2 km/h (1 Bft) SW 230 0 min 0,000 mm 0,0 UV-I 0 W/m 4,3 C 4,7 C 6,4 km/h (2 Bft) 100,00 %
22.11.2017 01:54 4,6 C 5,0 C 96 % 1014,4 hPa 0,0 l/m 5,6 km/h (1 Bft) SW 229 0 min 0,000 mm 0,0 UV-I 0 W/m 4,0 C 4,6 C 6,4 km/h (2 Bft) 100,00 %
22.11.2017 01:56 4,4 C 5,0 C 96 % 1014,4 hPa 0,0 l/m 4,9 km/h (1 Bft) SW 229 0 min 0,000 mm 0,0 UV-I 0 W/m 3,8 C 4,4 C 6,4 km/h (2 Bft) 98,00 %
22.11.2017 01:58 4,3 C 5,0 C 96 % 1014,4 hPa 0,0 l/m 4,3 km/h (1 Bft) SW 230 0 min 0,000 mm 0,0 UV-I 0 W/m 3,7 C 4,3 C 6,4 km/h (2 Bft) 100,00 %
22.11.2017 02:00 4,2 C 5,0 C 96 % 1014,5 hPa 0,0 l/m 4,0 km/h (1 Bft) SW 229 0 min 0,000 mm 0,0 UV-I 0 W/m 3,6 C 4,2 C 6,4 km/h (2 Bft) 97,87 %
22.11.2017 02:02 4,0 C 5,0 C 96 % 1014,5 hPa 0,0 l/m 4,5 km/h (1 Bft) SW 230 0 min 0,000 mm 0,0 UV-I 0 W/m 3,4 C 4,0 C 6,4 km/h (2 Bft) 100,00 %
22.11.2017 02:04 3,9 C 5,0 C 96 % 1014,5 hPa 0,0 l/m 4,8 km/h (1 Bft) SW 229 0 min 0,000 mm 0,0 UV-I 0 W/m 3,3 C 3,9 C 6,4 km/h (2 Bft) 100,00 %
22.11.2017 02:06 4,0 C 5,0 C 96 % 1014,5 hPa 0,0 l/m 5,2 km/h (1 Bft) SW 229 0 min 0,000 mm 0,0 UV-I 0 W/m 3,4 C 4,0 C 6,4 km/h (2 Bft) 100,00 %
22.11.2017 02:08 4,1 C 5,0 C 97 % 1014,5 hPa 0,0 l/m 5,2 km/h (1 Bft) SW 229 0 min 0,000 mm 0,0 UV-I 0 W/m 3,7 C 4,1 C 6,4 km/h (2 Bft) 100,00 %
22.11.2017 02:10 3,9 C 5,0 C 96 % 1014,5 hPa 0,0 l/m 6,0 km/h (2 Bft) SW 223 0 min 0,000 mm 0,0 UV-I 0 W/m 3,3 C 3,9 C 8,0 km/h (2 Bft) 98,21 %
22.11.2017 02:12 3,9 C 5,0 C 96 % 1014,4 hPa 0,0 l/m 6,3 km/h (2 Bft) SW 220 0 min 0,000 mm 0,0 UV-I 0 W/m 3,3 C 3,9 C 8,0 km/h (2 Bft) 100,00 %
22.11.2017 02:14 3,9 C 5,0 C 96 % 1014,4 hPa 0,0 l/m 5,8 km/h (2 Bft) SW 221 0 min 0,000 mm 0,0 UV-I 0 W/m 3,3 C 3,9 C 8,0 km/h (2 Bft) 100,00 %
22.11.2017 02:16 3,9 C 5,0 C 96 % 1014,4 hPa 0,0 l/m 5,8 km/h (2 Bft) S-SW 213 0 min 0,000 mm 0,0 UV-I 0 W/m 3,3 C 3,9 C 9,7 km/h (2 Bft) 100,00 %
22.11.2017 02:18 4,1 C 5,0 C 97 % 1014,4 hPa 0,0 l/m 6,6 km/h (2 Bft) SW 217 0 min 0,000 mm 0,0 UV-I 0 W/m 3,7 C 3,9 C 9,7 km/h (2 Bft) 100,00 %
22.11.2017 02:20 4,3 C 5,0 C 97 % 1014,5 hPa 0,0 l/m 7,8 km/h (2 Bft) S-SW 213 0 min 0,000 mm 0,0 UV-I 0 W/m 3,9 C 3,0 C 9,7 km/h (2 Bft) 100,00 %
22.11.2017 02:22 4,6 C 5,0 C 97 % 1014,5 hPa 0,0 l/m 8,2 km/h (2 Bft) SW 229 0 min 0,000 mm 0,0 UV-I 0 W/m 4,2 C 3,0 C 9,7 km/h (2 Bft) 100,00 %
22.11.2017 02:24 4,9 C 5,0 C 96 % 1014,5 hPa 0,0 l/m 7,8 km/h (2 Bft) S-SW 208 0 min 0,000 mm 0,0 UV-I 0 W/m 4,3 C 3,7 C 9,7 km/h (2 Bft) 100,00 %
22.11.2017 02:26 5,0 C 5,0 C 94 % 1014,5 hPa 0,0 l/m 7,3 km/h (2 Bft) S-SW 209 0 min 0,000 mm 0,0 UV-I 0 W/m 4,1 C 4,2 C 9,7 km/h (2 Bft) 97,56 %
22.11.2017 02:28 5,0 C 5,0 C 94 % 1014,5 hPa 0,0 l/m 7,7 km/h (2 Bft) SW 218 0 min 0,000 mm 0,0 UV-I 0 W/m 4,1 C 3,9 C 9,7 km/h (2 Bft) 100,00 %
22.11.2017 02:30 5,0 C 5,0 C 94 % 1014,5 hPa 0,0 l/m 6,2 km/h (2 Bft) SW 220 0 min 0,000 mm 0,0 UV-I 0 W/m 4,1 C 5,0 C 9,7 km/h (2 Bft) 100,00 %
22.11.2017 02:32 5,0 C 5,0 C 93 % 1014,5 hPa 0,0 l/m 5,8 km/h (2 Bft) S-SW 200 0 min 0,000 mm 0,0 UV-I 0 W/m 4,0 C 5,0 C 8,0 km/h (2 Bft) 100,00 %
22.11.2017 02:34 4,8 C 5,0 C 93 % 1014,5 hPa 0,0 l/m 3,9 km/h (1 Bft) SW 221 0 min 0,000 mm 0,0 UV-I 0 W/m 3,8 C 4,8 C 6,4 km/h (2 Bft) 100,00 %
22.11.2017 02:36 4,8 C 5,0 C 93 % 1014,5 hPa 0,0 l/m 3,5 km/h (1 Bft) SW 221 0 min 0,000 mm 0,0 UV-I 0 W/m 3,8 C 4,8 C 4,8 km/h (1 Bft) 100,00 %
22.11.2017 02:38 4,9 C 5,0 C 94 % 1014,5 hPa 0,0 l/m 5,0 km/h (1 Bft) SW 220 0 min 0,000 mm 0,0 UV-I 0 W/m 4,0 C 4,9 C 6,4 km/h (2 Bft) 97,56 %
22.11.2017 02:40 5,2 C 5,0 C 93 % 1014,5 hPa 0,0 l/m 6,0 km/h (2 Bft) SW 219 0 min 0,000 mm 0,0 UV-I 0 W/m 4,2 C 5,2 C 8,0 km/h (2 Bft) 100,00 %
22.11.2017 02:42 5,2 C 5,0 C 92 % 1014,5 hPa 0,0 l/m 5,4 km/h (1 Bft) SW 219 0 min 0,000 mm 0,0 UV-I 0 W/m 4,0 C 5,2 C 6,4 km/h (2 Bft) 100,00 %
22.11.2017 02:44 5,2 C 5,0 C 92 % 1014,4 hPa 0,0 l/m 4,1 km/h (1 Bft) SW 219 0 min 0,000 mm 0,0 UV-I 0 W/m 4,0 C 5,2 C 6,4 km/h (2 Bft) 100,00 %
22.11.2017 02:46 5,1 C 5,0 C 92 % 1014,4 hPa 0,0 l/m 4,1 km/h (1 Bft) SW 219 0 min 0,000 mm 0,0 UV-I 0 W/m 3,9 C 5,1 C 6,4 km/h (2 Bft) 100,00 %
22.11.2017 02:48 4,9 C 5,0 C 91 % 1014,4 hPa 0,0 l/m 4,1 km/h (1 Bft) SW 219 0 min 0,000 mm 0,0 UV-I 0 W/m 3,6 C 4,9 C 6,4 km/h (2 Bft) 100,00 %
22.11.2017 02:50 4,7 C 5,0 C 92 % 1014,4 hPa 0,0 l/m 4,1 km/h (1 Bft) SW 217 0 min 0,000 mm 0,0 UV-I 0 W/m 3,5 C 4,7 C 6,4 km/h (2 Bft) 100,00 %
22.11.2017 02:52 4,7 C 5,0 C 92 % 1014,4 hPa 0,0 l/m 3,8 km/h (1 Bft) SW 216 0 min 0,000 mm 0,0 UV-I 0 W/m 3,5 C 4,7 C 6,4 km/h (2 Bft) 100,00 %
22.11.2017 02:54 4,4 C 5,0 C 92 % 1014,4 hPa 0,0 l/m 4,1 km/h (1 Bft) S-SW 203 0 min 0,000 mm 0,0 UV-I 0 W/m 3,2 C 4,4 C 6,4 km/h (2 Bft) 100,00 %
22.11.2017 02:56 4,4 C 5,0 C 92 % 1014,4 hPa 0,0 l/m 5,2 km/h (1 Bft) S-SW 211 0 min 0,000 mm 0,0 UV-I 0 W/m 3,2 C 4,4 C 6,4 km/h (2 Bft) 100,00 %
22.11.2017 02:58 4,6 C 5,0 C 93 % 1014,4 hPa 0,0 l/m 4,1 km/h (1 Bft) SW 215 0 min 0,000 mm 0,0 UV-I 0 W/m 3,6 C 4,6 C 6,4 km/h (2 Bft) 98,11 %
22.11.2017 03:00 4,8 C 5,0 C 92 % 1014,3 hPa 0,0 l/m 5,6 km/h (1 Bft) SW 215 0 min 0,000 mm 0,0 UV-I 0 W/m 3,6 C 4,8 C 8,0 km/h (2 Bft) 100,00 %
22.11.2017 03:02 4,8 C 5,0 C 92 % 1014,3 hPa 0,0 l/m 5,0 km/h (1 Bft) S-SW 210 0 min 0,000 mm 0,0 UV-I 0 W/m 3,6 C 4,8 C 6,4 km/h (2 Bft) 100,00 %
22.11.2017 03:04 5,1 C 5,0 C 92 % 1014,3 hPa 0,0 l/m 5,7 km/h (1 Bft) SW 217 0 min 0,000 mm 0,0 UV-I 0 W/m 3,9 C 5,1 C 6,4 km/h (2 Bft) 100,00 %
22.11.2017 03:06 5,3 C 5,0 C 92 % 1014,4 hPa 0,0 l/m 6,3 km/h (2 Bft) SW 224 0 min 0,000 mm 0,0 UV-I 0 W/m 4,1 C 5,3 C 9,7 km/h (2 Bft) 97,37 %
22.11.2017 03:08 5,6 C 5,0 C 91 % 1014,4 hPa 0,0 l/m 4,8 km/h (1 Bft) SW 227 0 min 0,000 mm 0,0 UV-I 0 W/m 4,2 C 5,6 C 8,0 km/h (2 Bft) 100,00 %
22.11.2017 03:10 5,7 C 5,0 C 90 % 1014,4 hPa 0,0 l/m 4,1 km/h (1 Bft) SW 226 0 min 0,000 mm 0,0 UV-I 0 W/m 4,2 C 5,7 C 4,8 km/h (1 Bft) 100,00 %
22.11.2017 03:12 5,7 C 5,0 C 90 % 1014,4 hPa 0,0 l/m 5,4 km/h (1 Bft) SW 226 0 min 0,000 mm 0,0 UV-I 0 W/m 4,2 C 5,7 C 6,4 km/h (2 Bft) 100,00 %
22.11.2017 03:14 5,6 C 5,0 C 89 % 1014,4 hPa 0,0 l/m 2,3 km/h (1 Bft) SW 226 0 min 0,000 mm 0,0 UV-I 0 W/m 3,9 C 5,6 C 6,4 km/h (2 Bft) 95,74 %
22.11.2017 03:16 4,9 C 5,0 C 90 % 1014,4 hPa 0,0 l/m 2,5 km/h (1 Bft) SW 226 0 min 0,000 mm 0,0 UV-I 0 W/m 3,4 C 4,9 C 3,2 km/h (1 Bft) 100,00 %
22.11.2017 03:18 4,8 C 5,0 C 92 % 1014,4 hPa 0,0 l/m 1,9 km/h (1 Bft) SW 226 0 min 0,000 mm 0,0 UV-I 0 W/m 3,6 C 4,8 C 4,8 km/h (1 Bft) 100,00 %
22.11.2017 03:20 4,8 C 5,0 C 93 % 1014,4 hPa 0,0 l/m 1,8 km/h (1 Bft) SW 226 0 min 0,000 mm 0,0 UV-I 0 W/m 3,8 C 4,8 C 3,2 km/h (1 Bft) 96,00 %
22.11.2017 03:22 4,7 C 5,0 C 92 % 1014,4 hPa 0,0 l/m 1,6 km/h (1 Bft) SW 226 0 min 0,000 mm 0,0 UV-I 0 W/m 3,5 C 4,7 C 3,2 km/h (1 Bft) 100,00 %
22.11.2017 03:24 4,7 C 5,0 C 93 % 1014,4 hPa 0,0 l/m 1,4 km/h (1 Bft) SW 226 0 min 0,000 mm 0,0 UV-I 0 W/m 3,7 C 4,7 C 3,2 km/h (1 Bft) 100,00 %
22.11.2017 03:26 4,6 C 5,0 C 93 % 1014,4 hPa 0,0 l/m 1,8 km/h (1 Bft) SW 226 0 min 0,000 mm 0,0 UV-I 0 W/m 3,6 C 4,6 C 3,2 km/h (1 Bft) 100,00 %
22.11.2017 03:28 4,5 C 5,0 C 93 % 1014,4 hPa 0,0 l/m 2,1 km/h (1 Bft) SW 226 0 min 0,000 mm 0,0 UV-I 0 W/m 3,5 C 4,5 C 3,2 km/h (1 Bft) 97,37 %
22.11.2017 03:30 4,4 C 5,0 C 93 % 1014,4 hPa 0,0 l/m 1,5 km/h (1 Bft) SW 226 0 min 0,000 mm 0,0 UV-I 0 W/m 3,4 C 4,4 C 3,2 km/h (1 Bft) 100,00 %
22.11.2017 03:32 4,4 C 5,0 C 93 % 1014,4 hPa 0,0 l/m 1,8 km/h (1 Bft) SW 226 0 min 0,000 mm 0,0 UV-I 0 W/m 3,4 C 4,4 C 3,2 km/h (1 Bft) 97,37 %
22.11.2017 03:34 4,7 C 5,0 C 94 % 1014,4 hPa 0,0 l/m 2,2 km/h (1 Bft) SW 226 0 min 0,000 mm 0,0 UV-I 0 W/m 3,8 C 4,7 C 3,2 km/h (1 Bft) 98,11 %
22.11.2017 03:36 4,8 C 5,0 C 93 % 1014,4 hPa 0,0 l/m 3,5 km/h (1 Bft) SW 226 0 min 0,000 mm 0,0 UV-I 0 W/m 3,8 C 4,8 C 4,8 km/h (1 Bft) 95,12 %
22.11.2017 03:38 4,5 C 5,0 C 92 % 1014,4 hPa 0,0 l/m 2,0 km/h (1 Bft) SW 226 0 min 0,000 mm 0,0 UV-I 0 W/m 3,3 C 4,5 C 3,2 km/h (1 Bft) 97,87 %
22.11.2017 03:40 4,2 C 5,0 C 92 % 1014,4 hPa 0,0 l/m 1,6 km/h (1 Bft) SW 226 0 min 0,000 mm 0,0 UV-I 0 W/m 3,0 C 4,2 C 3,2 km/h (1 Bft) 97,44 %
22.11.2017 03:42 4,2 C 5,0 C 93 % 1014,3 hPa 0,0 l/m 2,1 km/h (1 Bft) SW 226 0 min 0,000 mm 0,0 UV-I 0 W/m 3,2 C 4,2 C 3,2 km/h (1 Bft) 96,88 %
22.11.2017 03:44 4,3 C 5,0 C 94 % 1014,3 hPa 0,0 l/m 2,3 km/h (1 Bft) SW 226 0 min 0,000 mm 0,0 UV-I 0 W/m 3,4 C 4,3 C 3,2 km/h (1 Bft) 97,87 %
22.11.2017 03:46 4,3 C 5,0 C 93 % 1014,3 hPa 0,0 l/m 1,9 km/h (1 Bft) SW 226 0 min 0,000 mm 0,0 UV-I 0 W/m 3,3 C 4,3 C 3,2 km/h (1 Bft) 97,87 %
22.11.2017 03:48 4,4 C 5,0 C 94 % 1014,3 hPa 0,0 l/m 0,2 km/h (0 Bft) SW 226 0 min 0,000 mm 0,0 UV-I 0 W/m 3,5 C 4,4 C 1,6 km/h (1 Bft) 100,00 %
22.11.2017 03:50 4,4 C 5,0 C 94 % 1014,2 hPa 0,0 l/m 0,2 km/h (0 Bft) SW 226 0 min 0,000 mm 0,0 UV-I 0 W/m 3,5 C 4,4 C 1,6 km/h (1 Bft) 97,01 %
22.11.2017 03:52 4,4 C 5,0 C 93 % 1014,3 hPa 0,0 l/m 0,0 km/h (0 Bft) SW 226 0 min 0,000 mm 0,0 UV-I 0 W/m 3,4 C 4,4 C 0,0 km/h (0 Bft) 97,62 %
22.11.2017 03:54 4,3 C 5,0 C 93 % 1014,2 hPa 0,0 l/m 0,0 km/h (0 Bft) SW 226 0 min 0,000 mm 0,0 UV-I 0 W/m 3,3 C 4,3 C 0,0 km/h (0 Bft) 98,11 %
22.11.2017 03:56 4,4 C 5,0 C 94 % 1014,3 hPa 0,0 l/m 0,0 km/h (0 Bft) SW 226 0 min 0,000 mm 0,0 UV-I 0 W/m 3,5 C 4,4 C 0,0 km/h (0 Bft) 97,37 %
22.11.2017 03:58 4,4 C 5,0 C 93 % 1014,3 hPa 0,0 l/m 0,4 km/h (0 Bft) SW 226 0 min 0,000 mm 0,0 UV-I 0 W/m 3,4 C 4,4 C 1,6 km/h (1 Bft) 98,11 %
22.11.2017 04:00 4,3 C 5,0 C 93 % 1014,3 hPa 0,0 l/m 0,1 km/h (0 Bft) SW 226 0 min 0,000 mm 0,0 UV-I 0 W/m 3,3 C 4,3 C 1,6 km/h (1 Bft) 97,87 %
22.11.2017 04:02 4,2 C 5,0 C 94 % 1014,3 hPa 0,0 l/m 0,0 km/h (0 Bft) SW 226 0 min 0,000 mm 0,0 UV-I 0 W/m 3,3 C 4,2 C 0,0 km/h (0 Bft) 93,75 %
22.11.2017 04:04 4,2 C 5,0 C 94 % 1014,3 hPa 0,0 l/m 0,6 km/h (0 Bft) SW 226 0 min 0,000 mm 0,0 UV-I 0 W/m 3,3 C 4,2 C 3,2 km/h (1 Bft) 100,00 %
22.11.2017 04:06 4,3 C 5,0 C 94 % 1014,3 hPa 0,0 l/m 0,0 km/h (0 Bft) SW 226 0 min 0,000 mm 0,0 UV-I 0 W/m 3,4 C 4,3 C 0,0 km/h (0 Bft) 90,00 %
22.11.2017 04:08 4,3 C 5,0 C 94 % 1014,3 hPa 0,0 l/m 0,0 km/h (0 Bft) SW 226 0 min 0,000 mm 0,0 UV-I 0 W/m 3,4 C 4,3 C 0,0 km/h (0 Bft) 96,23 %
22.11.2017 04:10 4,2 C 5,0 C 94 % 1014,3 hPa 0,0 l/m 0,0 km/h (0 Bft) SW 226 0 min 0,000 mm 0,0 UV-I 0 W/m 3,3 C 4,2 C 0,0 km/h (0 Bft) 95,74 %
22.11.2017 04:12 3,9 C 5,0 C 93 % 1014,2 hPa 0,0 l/m 0,1 km/h (0 Bft) SW 226 0 min 0,000 mm 0,0 UV-I 0 W/m 2,9 C 3,9 C 1,6 km/h (1 Bft) 93,62 %
22.11.2017 04:14 3,9 C 5,0 C 94 % 1014,2 hPa 0,0 l/m 1,0 km/h (0 Bft) SW 226 0 min 0,000 mm 0,0 UV-I 0 W/m 3,0 C 3,9 C 3,2 km/h (1 Bft) 95,74 %
22.11.2017 04:16 3,9 C 5,0 C 94 % 1014,2 hPa 0,0 l/m 0,3 km/h (0 Bft) SW 226 0 min 0,000 mm 0,0 UV-I 0 W/m 3,0 C 3,9 C 1,6 km/h (1 Bft) 97,56 %
22.11.2017 04:18 3,9 C 5,0 C 94 % 1014,2 hPa 0,0 l/m 0,1 km/h (0 Bft) SW 226 0 min 0,000 mm 0,0 UV-I 0 W/m 3,0 C 3,9 C 1,6 km/h (1 Bft) 97,87 %
22.11.2017 04:20 3,9 C 5,0 C 94 % 1014,3 hPa 0,2 l/m 0,1 km/h (0 Bft) SW 226 0 min 0,000 mm 0,0 UV-I 0 W/m 3,0 C 3,9 C 1,6 km/h (1 Bft) 95,74 %
22.11.2017 04:22 3,9 C 5,0 C 94 % 1014,3 hPa 0,0 l/m 0,2 km/h (0 Bft) SW 226 0 min 0,000 mm 0,0 UV-I 0 W/m 3,0 C 3,9 C 1,6 km/h (1 Bft) 98,11 %
22.11.2017 04:24 3,9 C 5,0 C 95 % 1014,4 hPa 0,0 l/m 0,0 km/h (0 Bft) SW 226 0 min 0,000 mm 0,0 UV-I 0 W/m 3,2 C 3,9 C 1,6 km/h (1 Bft) 97,87 %
22.11.2017 04:26 4,0 C 5,0 C 95 % 1014,3 hPa 0,0 l/m 0,8 km/h (0 Bft) NW 325 0 min 0,000 mm 0,0 UV-I 0 W/m 3,3 C 4,0 C 3,2 km/h (1 Bft) 96,30 %
22.11.2017 04:28 4,1 C 5,0 C 95 % 1014,3 hPa 0,0 l/m 1,1 km/h (1 Bft) NW 326 0 min 0,000 mm 0,0 UV-I 0 W/m 3,4 C 4,1 C 3,2 km/h (1 Bft) 97,01 %
22.11.2017 04:30 4,1 C 5,0 C 95 % 1014,3 hPa 0,0 l/m 0,7 km/h (0 Bft) NW 326 0 min 0,000 mm 0,0 UV-I 0 W/m 3,4 C 4,1 C 1,6 km/h (1 Bft) 97,44 %
22.11.2017 04:32 4,0 C 5,0 C 94 % 1014,3 hPa 0,0 l/m 0,0 km/h (0 Bft) NW 326 0 min 0,000 mm 0,0 UV-I 0 W/m 3,1 C 4,0 C 0,0 km/h (0 Bft) 100,00 %
22.11.2017 04:34 3,8 C 5,0 C 94 % 1014,4 hPa 0,0 l/m 0,0 km/h (0 Bft) NW 326 0 min 0,000 mm 0,0 UV-I 0 W/m 2,9 C 3,8 C 0,0 km/h (0 Bft) 96,92 %
22.11.2017 04:36 3,9 C 5,0 C 95 % 1014,4 hPa 0,0 l/m 0,8 km/h (0 Bft) NW 326 0 min 0,000 mm 0,0 UV-I 0 W/m 3,2 C 3,9 C 3,2 km/h (1 Bft) 97,37 %
22.11.2017 04:38 4,1 C 5,0 C 96 % 1014,4 hPa 0,0 l/m 2,8 km/h (1 Bft) NW 326 0 min 0,000 mm 0,0 UV-I 0 W/m 3,5 C 4,1 C 4,8 km/h (1 Bft) 98,00 %
22.11.2017 04:40 4,1 C 5,0 C 95 % 1014,4 hPa 0,0 l/m 1,4 km/h (1 Bft) NW 326 0 min 0,000 mm 0,0 UV-I 0 W/m 3,4 C 4,1 C 3,2 km/h (1 Bft) 97,87 %
22.11.2017 04:42 3,8 C 5,0 C 95 % 1014,4 hPa 0,0 l/m 1,8 km/h (1 Bft) NW 326 0 min 0,000 mm 0,0 UV-I 0 W/m 3,1 C 3,8 C 4,8 km/h (1 Bft) 98,11 %
22.11.2017 04:44 3,8 C 5,0 C 95 % 1014,4 hPa 0,0 l/m 0,4 km/h (0 Bft) NW 326 0 min 0,000 mm 0,0 UV-I 0 W/m 3,1 C 3,8 C 3,2 km/h (1 Bft) 97,37 %
22.11.2017 04:46 3,7 C 5,0 C 95 % 1014,4 hPa 0,0 l/m 0,0 km/h (0 Bft) NW 326 0 min 0,000 mm 0,0 UV-I 0 W/m 3,0 C 3,7 C 1,6 km/h (1 Bft) 97,87 %
22.11.2017 04:48 3,8 C 5,0 C 96 % 1014,3 hPa 0,0 l/m 0,1 km/h (0 Bft) NW 326 0 min 0,000 mm 0,0 UV-I 0 W/m 3,2 C 3,8 C 1,6 km/h (1 Bft) 98,00 %
22.11.2017 04:50 3,9 C 5,0 C 96 % 1014,4 hPa 0,0 l/m 0,5 km/h (0 Bft) NW 326 0 min 0,000 mm 0,0 UV-I 0 W/m 3,3 C 3,9 C 3,2 km/h (1 Bft) 92,00 %
22.11.2017 04:52 3,9 C 5,0 C 96 % 1014,4 hPa 0,0 l/m 1,0 km/h (0 Bft) NW 326 0 min 0,000 mm 0,0 UV-I 0 W/m 3,3 C 3,9 C 1,6 km/h (1 Bft) 95,74 %
22.11.2017 04:54 3,9 C 5,0 C 95 % 1014,5 hPa 0,0 l/m 0,3 km/h (0 Bft) NW 326 0 min 0,000 mm 0,0 UV-I 0 W/m 3,2 C 3,9 C 1,6 km/h (1 Bft) 97,56 %
22.11.2017 04:56 4,2 C 5,0 C 96 % 1014,5 hPa 0,0 l/m 2,7 km/h (1 Bft) NW 326 0 min 0,000 mm 0,0 UV-I 0 W/m 3,6 C 4,2 C 3,2 km/h (1 Bft) 97,87 %
22.11.2017 04:58 4,1 C 5,0 C 95 % 1014,5 hPa 0,0 l/m 4,3 km/h (1 Bft) N-NO 20 0 min 0,000 mm 0,0 UV-I 0 W/m 3,4 C 4,1 C 6,4 km/h (2 Bft) 93,62 %
22.11.2017 05:00 4,1 C 5,0 C 95 % 1014,5 hPa 0,0 l/m 4,0 km/h (1 Bft) N-NO 20 0 min 0,000 mm 0,0 UV-I 0 W/m 3,4 C 4,1 C 4,8 km/h (1 Bft) 98,00 %
22.11.2017 05:02 4,1 C 5,0 C 95 % 1014,5 hPa 0,0 l/m 4,1 km/h (1 Bft) N-NO 22 0 min 0,000 mm 0,0 UV-I 0 W/m 3,4 C 4,1 C 4,8 km/h (1 Bft) 97,73 %
22.11.2017 05:04 4,1 C 5,0 C 95 % 1014,5 hPa 0,0 l/m 4,2 km/h (1 Bft) N-NO 27 0 min 0,000 mm 0,0 UV-I 0 W/m 3,4 C 4,1 C 6,4 km/h (2 Bft) 94,34 %
22.11.2017 05:06 4,2 C 5,0 C 95 % 1014,5 hPa 0,0 l/m 5,4 km/h (1 Bft) N-NO 30 0 min 0,000 mm 0,0 UV-I 0 W/m 3,5 C 4,2 C 8,0 km/h (2 Bft) 97,37 %
22.11.2017 05:08 4,3 C 5,0 C 95 % 1014,5 hPa 0,0 l/m 6,0 km/h (2 Bft) NO 34 0 min 0,000 mm 0,0 UV-I 0 W/m 3,6 C 4,3 C 6,4 km/h (2 Bft) 98,00 %
22.11.2017 05:10 4,2 C 5,0 C 94 % 1014,6 hPa 0,0 l/m 4,7 km/h (1 Bft) NO 34 0 min 0,000 mm 0,0 UV-I 0 W/m 3,3 C 4,2 C 6,4 km/h (2 Bft) 96,00 %
22.11.2017 05:12 4,2 C 5,0 C 94 % 1014,6 hPa 0,0 l/m 2,2 km/h (1 Bft) NO 34 0 min 0,000 mm 0,0 UV-I 0 W/m 3,3 C 4,2 C 3,2 km/h (1 Bft) 97,92 %
22.11.2017 05:14 4,2 C 5,0 C 95 % 1014,6 hPa 0,0 l/m 3,2 km/h (1 Bft) NO 34 0 min 0,000 mm 0,0 UV-I 0 W/m 3,5 C 4,2 C 4,8 km/h (1 Bft) 97,96 %
22.11.2017 05:16 4,2 C 5,0 C 94 % 1014,6 hPa 0,0 l/m 4,2 km/h (1 Bft) NO 34 0 min 0,000 mm 0,0 UV-I 0 W/m 3,3 C 4,2 C 6,4 km/h (2 Bft) 100,00 %
22.11.2017 05:18 4,2 C 5,0 C 94 % 1014,6 hPa 0,0 l/m 3,3 km/h (1 Bft) NO 34 0 min 0,000 mm 0,0 UV-I 0 W/m 3,3 C 4,2 C 6,4 km/h (2 Bft) 100,00 %
22.11.2017 05:20 4,2 C 5,0 C 94 % 1014,5 hPa 0,0 l/m 2,1 km/h (1 Bft) NO 34 0 min 0,000 mm 0,0 UV-I 0 W/m 3,3 C 4,2 C 3,2 km/h (1 Bft) 97,87 %
22.11.2017 05:22 4,2 C 5,0 C 94 % 1014,5 hPa 0,0 l/m 3,5 km/h (1 Bft) NO 34 0 min 0,000 mm 0,0 UV-I 0 W/m 3,3 C 4,2 C 4,8 km/h (1 Bft) 100,00 %
22.11.2017 05:24 4,2 C 5,0 C 94 % 1014,5 hPa 0,0 l/m 3,0 km/h (1 Bft) NO 34 0 min 0,000 mm 0,0 UV-I 0 W/m 3,3 C 4,2 C 4,8 km/h (1 Bft) 100,00 %
22.11.2017 05:26 4,2 C 5,0 C 95 % 1014,5 hPa 0,0 l/m 3,8 km/h (1 Bft) NO 34 0 min 0,000 mm 0,0 UV-I 0 W/m 3,5 C 4,2 C 4,8 km/h (1 Bft) 97,87 %
22.11.2017 05:28 4,2 C 5,0 C 94 % 1014,5 hPa 0,0 l/m 2,8 km/h (1 Bft) NO 34 0 min 0,000 mm 0,0 UV-I 0 W/m 3,3 C 4,2 C 4,8 km/h (1 Bft) 100,00 %
22.11.2017 05:30 4,3 C 5,0 C 94 % 1014,5 hPa 0,0 l/m 2,7 km/h (1 Bft) NO 34 0 min 0,000 mm 0,0 UV-I 0 W/m 3,4 C 4,3 C 3,2 km/h (1 Bft) 100,00 %
22.11.2017 05:32 4,3 C 5,0 C 94 % 1014,5 hPa 0,0 l/m 2,0 km/h (1 Bft) NO 34 0 min 0,000 mm 0,0 UV-I 0 W/m 3,4 C 4,3 C 3,2 km/h (1 Bft) 100,00 %
22.11.2017 05:34 3,9 C 5,0 C 93 % 1014,5 hPa 0,0 l/m 0,0 km/h (0 Bft) NO 34 0 min 0,000 mm 0,0 UV-I 0 W/m 2,9 C 3,9 C 0,0 km/h (0 Bft) 98,11 %
22.11.2017 05:36 3,7 C 5,0 C 93 % 1014,5 hPa 0,0 l/m 0,0 km/h (0 Bft) NO 34 0 min 0,000 mm 0,0 UV-I 0 W/m 2,7 C 3,7 C 0,0 km/h (0 Bft) 100,00 %
22.11.2017 05:38 3,7 C 5,0 C 94 % 1014,5 hPa 0,0 l/m 1,1 km/h (1 Bft) NO 34 0 min 0,000 mm 0,0 UV-I 0 W/m 2,8 C 3,7 C 3,2 km/h (1 Bft) 100,00 %
22.11.2017 05:40 3,8 C 5,0 C 95 % 1014,6 hPa 0,0 l/m 0,3 km/h (0 Bft) NO 34 0 min 0,000 mm 0,0 UV-I 0 W/m 3,1 C 3,8 C 1,6 km/h (1 Bft) 100,00 %
22.11.2017 05:42 3,5 C 5,0 C 94 % 1014,6 hPa 0,0 l/m 0,0 km/h (0 Bft) NO 34 0 min 0,000 mm 0,0 UV-I 0 W/m 2,6 C 3,5 C 0,0 km/h (0 Bft) 100,00 %
22.11.2017 05:44 3,3 C 5,0 C 94 % 1014,6 hPa 0,0 l/m 0,0 km/h (0 Bft) NO 34 0 min 0,000 mm 0,0 UV-I 0 W/m 2,4 C 3,3 C 0,0 km/h (0 Bft) 97,87 %
22.11.2017 05:46 3,2 C 5,0 C 95 % 1014,6 hPa 0,0 l/m 0,0 km/h (0 Bft) NO 34 0 min 0,000 mm 0,0 UV-I 0 W/m 2,5 C 3,2 C 0,0 km/h (0 Bft) 100,00 %
22.11.2017 05:48 3,2 C 5,0 C 95 % 1014,6 hPa 0,0 l/m 0,4 km/h (0 Bft) NO 34 0 min 0,000 mm 0,0 UV-I 0 W/m 2,5 C 3,2 C 3,2 km/h (1 Bft) 100,00 %
22.11.2017 05:50 3,3 C 5,0 C 95 % 1014,6 hPa 0,0 l/m 0,6 km/h (0 Bft) NO 34 0 min 0,000 mm 0,0 UV-I 0 W/m 2,6 C 3,3 C 1,6 km/h (1 Bft) 100,00 %
22.11.2017 05:52 3,3 C 5,0 C 95 % 1014,6 hPa 0,0 l/m 1,4 km/h (1 Bft) NO 34 0 min 0,000 mm 0,0 UV-I 0 W/m 2,6 C 3,3 C 3,2 km/h (1 Bft) 100,00 %
22.11.2017 05:54 3,2 C 5,0 C 95 % 1014,6 hPa 0,0 l/m 0,4 km/h (0 Bft) NO 34 0 min 0,000 mm 0,0 UV-I 0 W/m 2,5 C 3,2 C 1,6 km/h (1 Bft) 100,00 %
22.11.2017 05:56 3,3 C 5,0 C 96 % 1014,6 hPa 0,0 l/m 0,8 km/h (0 Bft) NO 34 0 min 0,000 mm 0,0 UV-I 0 W/m 2,7 C 3,3 C 3,2 km/h (1 Bft) 97,87 %
22.11.2017 05:58 3,5 C 5,0 C 96 % 1014,5 hPa 0,0 l/m 0,5 km/h (0 Bft) NO 34 0 min 0,000 mm 0,0 UV-I 0 W/m 2,9 C 3,5 C 3,2 km/h (1 Bft) 98,00 %
22.11.2017 06:00 3,4 C 5,0 C 96 % 1014,6 hPa 0,0 l/m 1,5 km/h (1 Bft) NO 34 0 min 0,000 mm 0,0 UV-I 0 W/m 2,8 C 3,4 C 3,2 km/h (1 Bft) 98,00 %
22.11.2017 06:02 3,3 C 5,0 C 95 % 1014,5 hPa 0,0 l/m 0,0 km/h (0 Bft) NO 34 0 min 0,000 mm 0,0 UV-I 0 W/m 2,6 C 3,3 C 0,0 km/h (0 Bft) 100,00 %
22.11.2017 06:04 3,2 C 5,0 C 95 % 1014,6 hPa 0,0 l/m 0,0 km/h (0 Bft) NO 34 0 min 0,000 mm 0,0 UV-I 0 W/m 2,5 C 3,2 C 0,0 km/h (0 Bft) 95,74 %
22.11.2017 06:06 3,1 C 5,0 C 95 % 1014,5 hPa 0,0 l/m 0,0 km/h (0 Bft) NO 34 0 min 0,000 mm 0,0 UV-I 0 W/m 2,4 C 3,1 C 0,0 km/h (0 Bft) 98,21 %
22.11.2017 06:08 3,2 C 5,0 C 96 % 1014,6 hPa 0,0 l/m 0,0 km/h (0 Bft) NO 34 0 min 0,000 mm 0,0 UV-I 0 W/m 2,6 C 3,2 C 0,0 km/h (0 Bft) 97,37 %
22.11.2017 06:10 3,1 C 5,0 C 96 % 1014,6 hPa 0,0 l/m 0,0 km/h (0 Bft) NO 34 0 min 0,000 mm 0,0 UV-I 0 W/m 2,5 C 3,1 C 0,0 km/h (0 Bft) 93,62 %
22.11.2017 06:12 3,1 C 5,0 C 96 % 1014,6 hPa 0,0 l/m 0,0 km/h (0 Bft) NO 34 0 min 0,000 mm 0,0 UV-I 0 W/m 2,5 C 3,1 C 0,0 km/h (0 Bft) 96,00 %
22.11.2017 06:14 3,0 C 5,0 C 96 % 1014,6 hPa 0,0 l/m 0,0 km/h (0 Bft) NO 34 0 min 0,000 mm 0,0 UV-I 0 W/m 2,4 C 3,0 C 0,0 km/h (0 Bft) 96,00 %
22.11.2017 06:16 2,9 C 5,0 C 96 % 1014,6 hPa 0,0 l/m 0,0 km/h (0 Bft) NO 34 0 min 0,000 mm 0,0 UV-I 0 W/m 2,3 C 2,9 C 0,0 km/h (0 Bft) 97,87 %
22.11.2017 06:18 2,9 C 5,0 C 96 % 1014,6 hPa 0,0 l/m 0,0 km/h (0 Bft) NO 34 0 min 0,000 mm 0,0 UV-I 0 W/m 2,3 C 2,9 C 1,6 km/h (1 Bft) 95,74 %
22.11.2017 06:20 2,8 C 5,0 C 96 % 1014,6 hPa 0,0 l/m 0,0 km/h (0 Bft) NO 34 0 min 0,000 mm 0,0 UV-I 0 W/m 2,2 C 2,8 C 0,0 km/h (0 Bft) 97,56 %
22.11.2017 06:22 2,8 C 5,0 C 96 % 1014,6 hPa 0,0 l/m 0,0 km/h (0 Bft) NO 34 0 min 0,000 mm 0,0 UV-I 0 W/m 2,2 C 2,8 C 1,6 km/h (1 Bft) 94,00 %
22.11.2017 06:24 2,8 C 5,0 C 96 % 1014,6 hPa 0,0 l/m 0,7 km/h (0 Bft) NO 34 0 min 0,000 mm 0,0 UV-I 0 W/m 2,2 C 2,8 C 3,2 km/h (1 Bft) 97,44 %
22.11.2017 06:26 2,6 C 5,0 C 96 % 1014,5 hPa 0,0 l/m 2,0 km/h (1 Bft) NO 34 0 min 0,000 mm 0,0 UV-I 0 W/m 2,0 C 2,6 C 3,2 km/h (1 Bft) 100,00 %
22.11.2017 06:28 2,4 C 5,0 C 96 % 1014,5 hPa 0,0 l/m 1,9 km/h (1 Bft) NO 34 0 min 0,000 mm 0,0 UV-I 0 W/m 1,8 C 2,4 C 3,2 km/h (1 Bft) 97,01 %
22.11.2017 06:30 2,2 C 5,0 C 96 % 1014,5 hPa 0,0 l/m 2,8 km/h (1 Bft) NO 34 0 min 0,000 mm 0,0 UV-I 0 W/m 1,6 C 2,2 C 3,2 km/h (1 Bft) 97,87 %
22.11.2017 06:32 2,1 C 5,0 C 96 % 1014,5 hPa 0,0 l/m 3,2 km/h (1 Bft) NO 34 0 min 0,000 mm 0,0 UV-I 0 W/m 1,5 C 2,1 C 4,8 km/h (1 Bft) 97,62 %
22.11.2017 06:34 2,1 C 5,0 C 96 % 1014,5 hPa 0,0 l/m 2,8 km/h (1 Bft) NO 34 0 min 0,000 mm 0,0 UV-I 0 W/m 1,5 C 2,1 C 3,2 km/h (1 Bft) 92,68 %
22.11.2017 06:36 2,4 C 5,0 C 97 % 1014,6 hPa 0,0 l/m 2,2 km/h (1 Bft) NO 36 0 min 0,000 mm 0,0 UV-I 0 W/m 2,0 C 2,4 C 3,2 km/h (1 Bft) 98,00 %
22.11.2017 06:38 2,7 C 5,0 C 97 % 1014,6 hPa 0,0 l/m 2,8 km/h (1 Bft) O-SO 113 0 min 0,000 mm 0,0 UV-I 0 W/m 2,3 C 2,7 C 4,8 km/h (1 Bft) 95,74 %
22.11.2017 06:40 2,8 C 5,0 C 97 % 1014,6 hPa 0,0 l/m 2,4 km/h (1 Bft) O-SO 113 0 min 0,000 mm 0,0 UV-I 0 W/m 2,4 C 2,8 C 3,2 km/h (1 Bft) 96,23 %
22.11.2017 06:42 2,6 C 5,0 C 97 % 1014,6 hPa 0,0 l/m 2,1 km/h (1 Bft) O-SO 114 0 min 0,000 mm 0,0 UV-I 0 W/m 2,2 C 2,6 C 4,8 km/h (1 Bft) 100,00 %
22.11.2017 06:44 2,3 C 5,0 C 96 % 1014,5 hPa 0,0 l/m 1,4 km/h (1 Bft) O-SO 114 0 min 0,000 mm 0,0 UV-I 0 W/m 1,7 C 2,3 C 3,2 km/h (1 Bft) 100,00 %
22.11.2017 06:46 2,3 C 5,0 C 97 % 1014,6 hPa 0,0 l/m 1,9 km/h (1 Bft) O-SO 114 0 min 0,000 mm 0,0 UV-I 0 W/m 1,9 C 2,3 C 3,2 km/h (1 Bft) 98,00 %
22.11.2017 06:48 2,2 C 5,0 C 97 % 1014,5 hPa 0,0 l/m 0,8 km/h (0 Bft) O-SO 114 0 min 0,000 mm 0,0 UV-I 0 W/m 1,8 C 2,2 C 3,2 km/h (1 Bft) 100,00 %
22.11.2017 06:50 2,4 C 5,0 C 97 % 1014,6 hPa 0,0 l/m 1,0 km/h (0 Bft) O-SO 114 0 min 0,000 mm 0,0 UV-I 0 W/m 2,0 C 2,4 C 1,6 km/h (1 Bft) 100,00 %
22.11.2017 06:52 2,6 C 5,0 C 97 % 1014,5 hPa 0,0 l/m 0,7 km/h (0 Bft) O-SO 114 0 min 0,000 mm 0,0 UV-I 0 W/m 2,2 C 2,6 C 3,2 km/h (1 Bft) 100,00 %
22.11.2017 06:54 2,6 C 5,0 C 97 % 1014,5 hPa 0,0 l/m 0,8 km/h (0 Bft) O-SO 114 0 min 0,000 mm 0,0 UV-I 0 W/m 2,2 C 2,6 C 3,2 km/h (1 Bft) 98,00 %
22.11.2017 06:56 2,5 C 5,0 C 97 % 1014,4 hPa 0,0 l/m 1,2 km/h (1 Bft) O-SO 114 0 min 0,000 mm 0,0 UV-I 0 W/m 2,1 C 2,5 C 3,2 km/h (1 Bft) 100,00 %
22.11.2017 06:58 2,3 C 5,0 C 97 % 1014,5 hPa 0,0 l/m 0,8 km/h (0 Bft) O-SO 114 0 min 0,000 mm 0,0 UV-I 0 W/m 1,9 C 2,3 C 1,6 km/h (1 Bft) 100,00 %
22.11.2017 07:00 2,2 C 5,0 C 97 % 1014,5 hPa 0,0 l/m 0,0 km/h (0 Bft) O-SO 114 0 min 0,000 mm 0,0 UV-I 0 W/m 1,8 C 2,2 C 0,0 km/h (0 Bft) 100,00 %
22.11.2017 07:02 2,3 C 5,0 C 97 % 1014,5 hPa 0,0 l/m 0,0 km/h (0 Bft) O-SO 114 0 min 0,000 mm 0,0 UV-I 0 W/m 1,9 C 2,3 C 0,0 km/h (0 Bft) 100,00 %
22.11.2017 07:04 2,2 C 5,0 C 97 % 1014,5 hPa 0,0 l/m 0,2 km/h (0 Bft) O-SO 114 0 min 0,000 mm 0,0 UV-I 0 W/m 1,8 C 2,2 C 1,6 km/h (1 Bft) 100,00 %
22.11.2017 07:06 2,3 C 5,0 C 97 % 1014,5 hPa 0,0 l/m 0,7 km/h (0 Bft) O-SO 114 0 min 0,000 mm 0,0 UV-I 0 W/m 1,9 C 2,3 C 3,2 km/h (1 Bft) 100,00 %
22.11.2017 07:08 2,3 C 5,0 C 97 % 1014,5 hPa 0,0 l/m 1,5 km/h (1 Bft) O-SO 114 0 min 0,000 mm 0,0 UV-I 0 W/m 1,9 C 2,3 C 3,2 km/h (1 Bft) 97,92 %
22.11.2017 07:10 2,1 C 5,0 C 97 % 1014,6 hPa 0,0 l/m 1,0 km/h (0 Bft) O-SO 114 0 min 0,000 mm 0,0 UV-I 1 W/m 1,7 C 2,1 C 3,2 km/h (1 Bft) 100,00 %
22.11.2017 07:12 2,0 C 5,0 C 97 % 1014,6 hPa 0,0 l/m 0,5 km/h (0 Bft) O-SO 114 0 min 0,000 mm 0,0 UV-I 5 W/m 1,6 C 2,0 C 1,6 km/h (1 Bft) 97,87 %
22.11.2017 07:14 2,0 C 5,0 C 97 % 1014,7 hPa 0,0 l/m 1,2 km/h (1 Bft) O-SO 114 0 min 0,000 mm 0,0 UV-I 5 W/m 1,6 C 2,0 C 1,6 km/h (1 Bft) 100,00 %
22.11.2017 07:16 1,9 C 5,0 C 97 % 1014,6 hPa 0,0 l/m 1,8 km/h (1 Bft) O-SO 114 0 min 0,000 mm 0,0 UV-I 5 W/m 1,5 C 1,9 C 3,2 km/h (1 Bft) 100,00 %
22.11.2017 07:18 2,0 C 5,0 C 97 % 1014,7 hPa 0,0 l/m 2,4 km/h (1 Bft) O-SO 114 0 min 0,000 mm 0,0 UV-I 5 W/m 1,6 C 2,0 C 4,8 km/h (1 Bft) 100,00 %
22.11.2017 07:20 2,1 C 5,0 C 97 % 1014,7 hPa 0,0 l/m 2,9 km/h (1 Bft) O-SO 114 0 min 0,000 mm 0,0 UV-I 5 W/m 1,7 C 2,1 C 3,2 km/h (1 Bft) 97,87 %
22.11.2017 07:22 2,2 C 5,0 C 97 % 1014,7 hPa 0,0 l/m 2,7 km/h (1 Bft) O-SO 114 0 min 0,000 mm 0,0 UV-I 5 W/m 1,8 C 2,2 C 4,8 km/h (1 Bft) 100,00 %
22.11.2017 07:24 2,2 C 5,0 C 97 % 1014,8 hPa 0,0 l/m 5,1 km/h (1 Bft) S-SO 154 0 min 0,000 mm 0,0 UV-I 6 W/m 1,8 C 2,2 C 6,4 km/h (2 Bft) 100,00 %
22.11.2017 07:26 2,1 C 5,0 C 97 % 1014,7 hPa 0,0 l/m 3,9 km/h (1 Bft) S 178 0 min 0,000 mm 0,0 UV-I 7 W/m 1,7 C 2,1 C 8,0 km/h (2 Bft) 100,00 %
22.11.2017 07:28 2,0 C 5,0 C 97 % 1014,7 hPa 0,0 l/m 4,2 km/h (1 Bft) S 180 0 min 0,000 mm 0,0 UV-I 8 W/m 1,6 C 2,0 C 6,4 km/h (2 Bft) 100,00 %
22.11.2017 07:30 2,0 C 5,0 C 97 % 1014,7 hPa 0,0 l/m 3,6 km/h (1 Bft) S 180 0 min 0,000 mm 0,0 UV-I 10 W/m 1,6 C 2,0 C 6,4 km/h (2 Bft) 100,00 %
22.11.2017 07:32 2,0 C 5,0 C 97 % 1014,8 hPa 0,0 l/m 2,4 km/h (1 Bft) S 180 0 min 0,000 mm 0,0 UV-I 11 W/m 1,6 C 2,0 C 4,8 km/h (1 Bft) 98,08 %
22.11.2017 07:34 1,9 C 5,0 C 97 % 1014,7 hPa 0,0 l/m 3,4 km/h (1 Bft) S 180 2 min 0,000 mm 0,0 UV-I 12 W/m 1,5 C 1,9 C 4,8 km/h (1 Bft) 100,00 %
22.11.2017 07:36 1,9 C 5,0 C 97 % 1014,7 hPa 0,0 l/m 3,7 km/h (1 Bft) S-SW 192 0 min 0,000 mm 0,0 UV-I 13 W/m 1,5 C 1,9 C 6,4 km/h (2 Bft) 96,00 %
22.11.2017 07:38 2,1 C 5,0 C 97 % 1014,7 hPa 0,0 l/m 4,3 km/h (1 Bft) S-SW 192 2 min 0,000 mm 0,0 UV-I 16 W/m 1,7 C 2,1 C 6,4 km/h (2 Bft) 100,00 %
22.11.2017 07:40 2,2 C 5,0 C 97 % 1014,8 hPa 0,0 l/m 4,3 km/h (1 Bft) S-SW 192 0 min 0,000 mm 0,0 UV-I 17 W/m 1,8 C 2,2 C 6,4 km/h (2 Bft) 100,00 %
22.11.2017 07:42 2,2 C 5,0 C 97 % 1014,7 hPa 0,0 l/m 4,1 km/h (1 Bft) S-SW 192 0 min 0,000 mm 0,0 UV-I 19 W/m 1,8 C 2,2 C 6,4 km/h (2 Bft) 98,08 %
22.11.2017 07:44 2,3 C 5,0 C 97 % 1014,7 hPa 0,0 l/m 4,6 km/h (1 Bft) S-SW 205 0 min 0,000 mm 0,0 UV-I 20 W/m 1,9 C 2,3 C 6,4 km/h (2 Bft) 100,00 %
22.11.2017 07:46 2,4 C 5,0 C 97 % 1014,8 hPa 0,0 l/m 2,9 km/h (1 Bft) S-SW 205 0 min 0,000 mm 0,0 UV-I 22 W/m 2,0 C 2,4 C 6,4 km/h (2 Bft) 94,44 %
22.11.2017 07:48 2,6 C 5,0 C 98 % 1014,8 hPa 0,0 l/m 5,0 km/h (1 Bft) S-SW 206 0 min 0,000 mm 0,0 UV-I 24 W/m 2,3 C 2,6 C 6,4 km/h (2 Bft) 100,00 %
22.11.2017 07:50 2,4 C 5,0 C 97 % 1014,8 hPa 0,0 l/m 3,1 km/h (1 Bft) S-SW 205 0 min 0,000 mm 0,0 UV-I 27 W/m 2,0 C 2,4 C 4,8 km/h (1 Bft) 100,00 %
22.11.2017 07:52 2,4 C 5,0 C 97 % 1014,8 hPa 0,0 l/m 4,1 km/h (1 Bft) S-SW 205 0 min 0,000 mm 0,0 UV-I 29 W/m 2,0 C 2,4 C 6,4 km/h (2 Bft) 100,00 %
22.11.2017 07:54 2,5 C 5,0 C 97 % 1014,7 hPa 0,0 l/m 4,3 km/h (1 Bft) S-SW 205 0 min 0,000 mm 0,0 UV-I 32 W/m 2,1 C 2,5 C 6,4 km/h (2 Bft) 100,00 %
22.11.2017 07:56 2,7 C 5,0 C 97 % 1014,7 hPa 0,0 l/m 4,7 km/h (1 Bft) S-SW 205 0 min 0,000 mm 0,0 UV-I 35 W/m 2,3 C 2,7 C 6,4 km/h (2 Bft) 100,00 %
22.11.2017 07:58 2,6 C 5,0 C 97 % 1014,7 hPa 0,0 l/m 3,0 km/h (1 Bft) S-SW 196 0 min 0,000 mm 0,0 UV-I 39 W/m 2,2 C 2,6 C 4,8 km/h (1 Bft) 100,00 %
22.11.2017 08:00 2,6 C 5,0 C 97 % 1014,7 hPa 0,0 l/m 2,3 km/h (1 Bft) S-SW 196 0 min 0,000 mm 0,0 UV-I 41 W/m 2,2 C 2,6 C 4,8 km/h (1 Bft) 100,00 %
22.11.2017 08:02 2,7 C 5,0 C 97 % 1014,7 hPa 0,0 l/m 2,5 km/h (1 Bft) S-SW 196 0 min 0,000 mm 0,0 UV-I 43 W/m 2,3 C 2,7 C 4,8 km/h (1 Bft) 100,00 %
22.11.2017 08:04 2,7 C 5,0 C 97 % 1014,7 hPa 0,0 l/m 2,2 km/h (1 Bft) S-SW 196 0 min 0,000 mm 0,0 UV-I 45 W/m 2,3 C 2,7 C 3,2 km/h (1 Bft) 100,00 %
22.11.2017 08:06 2,9 C 5,0 C 97 % 1014,7 hPa 0,0 l/m 1,9 km/h (1 Bft) S-SW 196 0 min 0,000 mm 0,0 UV-I 47 W/m 2,5 C 2,9 C 4,8 km/h (1 Bft) 98,11 %
22.11.2017 08:08 3,0 C 5,0 C 97 % 1014,7 hPa 0,0 l/m 1,8 km/h (1 Bft) S-SW 196 0 min 0,000 mm 0,0 UV-I 50 W/m 2,6 C 3,0 C 3,2 km/h (1 Bft) 100,00 %
22.11.2017 08:10 3,3 C 5,0 C 97 % 1014,7 hPa 0,0 l/m 0,4 km/h (0 Bft) S-SW 196 0 min 0,000 mm 0,0 UV-I 54 W/m 2,9 C 3,3 C 1,6 km/h (1 Bft) 100,00 %
22.11.2017 08:12 3,3 C 5,0 C 97 % 1014,7 hPa 0,0 l/m 1,2 km/h (1 Bft) S-SW 196 0 min 0,000 mm 0,0 UV-I 58 W/m 2,9 C 3,3 C 3,2 km/h (1 Bft) 97,37 %
22.11.2017 08:14 3,2 C 5,0 C 97 % 1014,8 hPa 0,0 l/m 0,4 km/h (0 Bft) S-SW 196 0 min 0,000 mm 0,0 UV-I 61 W/m 2,8 C 3,2 C 1,6 km/h (1 Bft) 95,45 %
22.11.2017 08:16 3,3 C 5,0 C 97 % 1014,8 hPa 0,0 l/m 1,2 km/h (1 Bft) S-SW 196 0 min 0,000 mm 0,0 UV-I 65 W/m 2,9 C 3,3 C 3,2 km/h (1 Bft) 96,61 %
22.11.2017 08:18 3,6 C 5,0 C 97 % 1014,8 hPa 0,0 l/m 1,5 km/h (1 Bft) S-SW 196 0 min 0,000 mm 0,0 UV-I 66 W/m 3,2 C 3,6 C 3,2 km/h (1 Bft) 97,73 %
22.11.2017 08:20 3,4 C 5,0 C 97 % 1014,7 hPa 0,0 l/m 0,0 km/h (0 Bft) S-SW 196 0 min 0,000 mm 0,0 UV-I 67 W/m 3,0 C 3,4 C 0,0 km/h (0 Bft) 97,37 %
22.11.2017 08:22 3,4 C 5,0 C 96 % 1014,8 hPa 0,0 l/m 1,0 km/h (0 Bft) S-SW 196 0 min 0,000 mm 0,0 UV-I 69 W/m 2,8 C 3,4 C 3,2 km/h (1 Bft) 98,00 %
22.11.2017 08:24 3,5 C 5,0 C 97 % 1014,8 hPa 0,0 l/m 1,0 km/h (0 Bft) S-SW 196 0 min 0,000 mm 0,0 UV-I 72 W/m 3,1 C 3,5 C 3,2 km/h (1 Bft) 96,00 %
22.11.2017 08:26 3,7 C 5,0 C 96 % 1014,8 hPa 0,0 l/m 0,0 km/h (0 Bft) S-SW 196 0 min 0,000 mm 0,0 UV-I 71 W/m 3,1 C 3,7 C 0,0 km/h (0 Bft) 98,00 %
22.11.2017 08:28 4,0 C 5,0 C 97 % 1014,8 hPa 0,0 l/m 1,0 km/h (0 Bft) S-SW 196 0 min 0,000 mm 0,0 UV-I 77 W/m 3,6 C 4,0 C 3,2 km/h (1 Bft) 97,44 %
22.11.2017 08:30 3,8 C 5,0 C 95 % 1014,8 hPa 0,0 l/m 2,1 km/h (1 Bft) S-SW 196 2 min 0,000 mm 0,0 UV-I 85 W/m 3,1 C 3,8 C 3,2 km/h (1 Bft) 95,45 %
22.11.2017 08:32 3,6 C 5,0 C 95 % 1014,8 hPa 0,0 l/m 1,6 km/h (1 Bft) S-SW 196 2 min 0,000 mm 0,0 UV-I 93 W/m 2,9 C 3,6 C 3,2 km/h (1 Bft) 96,23 %
22.11.2017 08:34 3,6 C 5,0 C 96 % 1014,8 hPa 0,0 l/m 1,6 km/h (1 Bft) S-SW 196 2 min 0,000 mm 0,0 UV-I 108 W/m 3,0 C 3,6 C 3,2 km/h (1 Bft) 95,45 %
22.11.2017 08:36 3,6 C 5,0 C 96 % 1014,8 hPa 0,0 l/m 2,1 km/h (1 Bft) S-SW 196 2 min 0,000 mm 0,0 UV-I 110 W/m 3,0 C 3,6 C 3,2 km/h (1 Bft) 94,34 %
22.11.2017 08:38 3,7 C 5,0 C 96 % 1014,8 hPa 0,0 l/m 2,8 km/h (1 Bft) S-SW 196 2 min 0,000 mm 0,0 UV-I 116 W/m 3,1 C 3,7 C 3,2 km/h (1 Bft) 93,62 %
22.11.2017 08:40 3,7 C 5,0 C 96 % 1014,8 hPa 0,0 l/m 3,1 km/h (1 Bft) S-SW 196 2 min 0,000 mm 0,0 UV-I 122 W/m 3,1 C 3,7 C 4,8 km/h (1 Bft) 96,00 %
22.11.2017 08:42 3,8 C 5,0 C 96 % 1014,8 hPa 0,0 l/m 1,9 km/h (1 Bft) S-SW 196 2 min 0,000 mm 0,0 UV-I 114 W/m 3,2 C 3,8 C 3,2 km/h (1 Bft) 94,74 %
22.11.2017 08:44 3,9 C 5,0 C 96 % 1014,8 hPa 0,0 l/m 2,5 km/h (1 Bft) S-SW 196 2 min 0,000 mm 0,0 UV-I 109 W/m 3,3 C 3,9 C 4,8 km/h (1 Bft) 94,00 %
22.11.2017 08:46 4,1 C 5,0 C 96 % 1014,7 hPa 0,0 l/m 3,1 km/h (1 Bft) S-SW 196 2 min 0,000 mm 0,0 UV-I 117 W/m 3,5 C 4,1 C 4,8 km/h (1 Bft) 86,84 %
22.11.2017 08:48 4,3 C 5,0 C 96 % 1014,7 hPa 0,0 l/m 3,2 km/h (1 Bft) S-SW 196 2 min 0,000 mm 0,0 UV-I 118 W/m 3,7 C 4,3 C 4,8 km/h (1 Bft) 94,34 %
22.11.2017 08:50 4,4 C 5,0 C 96 % 1014,7 hPa 0,0 l/m 3,4 km/h (1 Bft) S-SW 196 2 min 0,000 mm 0,0 UV-I 115 W/m 3,8 C 4,4 C 4,8 km/h (1 Bft) 96,00 %
22.11.2017 08:52 4,4 C 5,0 C 95 % 1014,6 hPa 0,0 l/m 3,6 km/h (1 Bft) S-SW 196 2 min 0,000 mm 0,0 UV-I 109 W/m 3,7 C 4,4 C 4,8 km/h (1 Bft) 96,00 %
22.11.2017 08:54 4,4 C 5,0 C 95 % 1014,6 hPa 0,0 l/m 3,7 km/h (1 Bft) S-SW 196 2 min 0,000 mm 0,0 UV-I 128 W/m 3,7 C 4,4 C 4,8 km/h (1 Bft) 94,29 %
22.11.2017 08:56 4,3 C 5,0 C 95 % 1014,6 hPa 0,0 l/m 4,8 km/h (1 Bft) S-SW 196 2 min 0,000 mm 0,0 UV-I 133 W/m 3,6 C 4,3 C 6,4 km/h (2 Bft) 96,30 %
22.11.2017 08:58 4,3 C 5,0 C 95 % 1014,6 hPa 0,0 l/m 4,3 km/h (1 Bft) S-SW 196 2 min 0,000 mm 0,0 UV-I 131 W/m 3,6 C 4,3 C 6,4 km/h (2 Bft) 92,00 %
22.11.2017 09:00 4,4 C 5,0 C 96 % 1014,6 hPa 0,0 l/m 5,3 km/h (1 Bft) S-SW 196 2 min 0,025 mm 0,0 UV-I 137 W/m 3,8 C 4,4 C 8,0 km/h (2 Bft) 95,74 %
22.11.2017 09:02 4,6 C 5,0 C 96 % 1014,6 hPa 0,0 l/m 4,5 km/h (1 Bft) S-SW 196 2 min 0,000 mm 0,0 UV-I 147 W/m 4,0 C 4,6 C 6,4 km/h (2 Bft) 89,47 %
22.11.2017 09:04 4,6 C 5,0 C 95 % 1014,6 hPa 0,0 l/m 6,0 km/h (2 Bft) S-SW 196 2 min 0,000 mm 0,0 UV-I 170 W/m 3,9 C 4,6 C 6,4 km/h (2 Bft) 94,00 %
22.11.2017 09:06 4,7 C 5,0 C 95 % 1014,6 hPa 0,0 l/m 5,2 km/h (1 Bft) S-SW 200 2 min 0,000 mm 0,0 UV-I 174 W/m 4,0 C 4,7 C 6,4 km/h (2 Bft) 96,23 %
22.11.2017 09:08 4,8 C 5,0 C 96 % 1014,6 hPa 0,0 l/m 4,7 km/h (1 Bft) S-SW 208 2 min 0,000 mm 0,0 UV-I 187 W/m 4,2 C 4,8 C 6,4 km/h (2 Bft) 100,00 %
22.11.2017 09:10 4,8 C 5,0 C 95 % 1014,6 hPa 0,0 l/m 5,0 km/h (1 Bft) S-SW 208 2 min 0,000 mm 0,0 UV-I 181 W/m 4,1 C 4,8 C 6,4 km/h (2 Bft) 96,00 %
22.11.2017 09:12 4,8 C 5,0 C 95 % 1014,6 hPa 0,0 l/m 4,7 km/h (1 Bft) S-SW 208 2 min 0,000 mm 0,0 UV-I 180 W/m 4,1 C 4,8 C 6,4 km/h (2 Bft) 97,87 %
22.11.2017 09:14 4,8 C 5,0 C 95 % 1014,6 hPa 0,0 l/m 4,1 km/h (1 Bft) S-SW 208 2 min 0,000 mm 0,0 UV-I 176 W/m 4,1 C 4,8 C 6,4 km/h (2 Bft) 98,00 %
22.11.2017 09:16 4,9 C 5,0 C 95 % 1014,6 hPa 0,0 l/m 6,2 km/h (2 Bft) W-SW 238 2 min 0,000 mm 0,0 UV-I 163 W/m 4,2 C 4,9 C 9,7 km/h (2 Bft) 97,73 %
22.11.2017 09:19 5,4 C 5,0 C 95 % 1014,6 hPa 0,0 l/m 6,2 km/h (2 Bft) SW 234 3 min 0,000 mm 0,0 UV-I 157 W/m 4,7 C 5,4 C 9,7 km/h (2 Bft) 97,47 %
22.11.2017 09:20 5,6 C 5,0 C 95 % 1014,6 hPa 0,0 l/m 5,1 km/h (1 Bft) SW 232 1 min 0,000 mm 0,0 UV-I 150 W/m 4,9 C 5,6 C 6,4 km/h (2 Bft) 95,83 %
22.11.2017 09:22 5,8 C 5,0 C 93 % 1014,6 hPa 0,0 l/m 4,2 km/h (1 Bft) SW 232 2 min 0,000 mm 0,0 UV-I 161 W/m 4,8 C 5,8 C 6,4 km/h (2 Bft) 97,14 %
22.11.2017 09:24 5,9 C 5,0 C 93 % 1014,6 hPa 0,0 l/m 6,4 km/h (2 Bft) SW 234 2 min 0,000 mm 0,0 UV-I 172 W/m 4,9 C 5,9 C 9,7 km/h (2 Bft) 96,23 %
22.11.2017 09:26 6,1 C 5,0 C 92 % 1014,7 hPa 0,0 l/m 5,4 km/h (1 Bft) SW 232 2 min 0,000 mm 0,0 UV-I 154 W/m 4,9 C 6,1 C 8,0 km/h (2 Bft) 95,12 %
22.11.2017 09:28 6,2 C 5,0 C 91 % 1014,6 hPa 0,0 l/m 4,0 km/h (1 Bft) SW 222 2 min 0,000 mm 0,0 UV-I 154 W/m 4,8 C 6,2 C 6,4 km/h (2 Bft) 97,56 %
22.11.2017 09:30 6,2 C 5,0 C 91 % 1014,6 hPa 0,0 l/m 3,9 km/h (1 Bft) SW 222 2 min 0,000 mm 0,0 UV-I 154 W/m 4,8 C 6,2 C 6,4 km/h (2 Bft) 96,23 %
22.11.2017 09:32 6,3 C 5,0 C 91 % 1014,6 hPa 0,0 l/m 3,9 km/h (1 Bft) SW 222 2 min 0,000 mm 0,0 UV-I 152 W/m 4,9 C 6,3 C 4,8 km/h (1 Bft) 96,23 %
22.11.2017 09:34 6,3 C 5,0 C 91 % 1014,6 hPa 0,0 l/m 3,8 km/h (1 Bft) SW 222 2 min 0,000 mm 0,0 UV-I 169 W/m 4,9 C 6,3 C 4,8 km/h (1 Bft) 97,56 %
22.11.2017 09:36 6,3 C 5,0 C 91 % 1014,6 hPa 0,0 l/m 4,6 km/h (1 Bft) SW 221 2 min 0,000 mm 0,0 UV-I 170 W/m 4,9 C 6,3 C 6,4 km/h (2 Bft) 97,87 %
22.11.2017 09:38 6,4 C 5,0 C 91 % 1014,6 hPa 0,0 l/m 5,6 km/h (1 Bft) SW 220 2 min 0,000 mm 0,0 UV-I 188 W/m 5,0 C 6,4 C 8,0 km/h (2 Bft) 97,87 %
22.11.2017 09:40 6,5 C 5,0 C 91 % 1014,5 hPa 0,0 l/m 5,9 km/h (2 Bft) SW 217 2 min 0,000 mm 0,0 UV-I 202 W/m 5,1 C 6,5 C 6,4 km/h (2 Bft) 96,23 %
22.11.2017 09:42 6,6 C 5,0 C 91 % 1014,5 hPa 0,0 l/m 5,9 km/h (2 Bft) S-SW 207 2 min 0,000 mm 0,0 UV-I 222 W/m 5,2 C 6,6 C 9,7 km/h (2 Bft) 97,37 %
22.11.2017 09:44 6,7 C 5,0 C 91 % 1014,5 hPa 0,0 l/m 6,6 km/h (2 Bft) SW 222 2 min 0,000 mm 0,0 UV-I 208 W/m 5,3 C 6,6 C 8,0 km/h (2 Bft) 97,62 %
22.11.2017 09:46 6,8 C 5,0 C 90 % 1014,5 hPa 0,0 l/m 6,2 km/h (2 Bft) SW 216 2 min 0,000 mm 0,0 UV-I 206 W/m 5,3 C 6,8 C 9,7 km/h (2 Bft) 98,28 %
22.11.2017 09:48 7,0 C 5,0 C 89 % 1014,5 hPa 0,0 l/m 7,8 km/h (2 Bft) S-SW 211 2 min 0,000 mm 0,4 UV-I 213 W/m 5,3 C 5,9 C 9,7 km/h (2 Bft) 98,00 %
22.11.2017 09:50 7,0 C 5,0 C 89 % 1014,5 hPa 0,0 l/m 5,9 km/h (2 Bft) SW 215 2 min 0,000 mm 0,5 UV-I 241 W/m 5,3 C 7,0 C 9,7 km/h (2 Bft) 95,74 %
22.11.2017 09:52 7,1 C 5,0 C 88 % 1014,6 hPa 0,0 l/m 6,9 km/h (2 Bft) SW 230 2 min 0,000 mm 0,5 UV-I 267 W/m 5,2 C 6,7 C 11,3 km/h (2 Bft) 97,44 %
22.11.2017 09:54 7,2 C 5,0 C 87 % 1014,5 hPa 0,0 l/m 6,3 km/h (2 Bft) S-SW 207 2 min 0,000 mm 0,5 UV-I 273 W/m 5,2 C 7,2 C 9,7 km/h (2 Bft) 96,23 %
22.11.2017 09:56 7,2 C 5,0 C 86 % 1014,6 hPa 0,0 l/m 5,0 km/h (1 Bft) S-SW 211 2 min 0,000 mm 0,5 UV-I 271 W/m 5,0 C 7,2 C 8,0 km/h (2 Bft) 96,00 %
22.11.2017 09:58 7,3 C 5,0 C 87 % 1014,6 hPa 0,0 l/m 6,1 km/h (2 Bft) SW 226 2 min 0,000 mm 0,5 UV-I 274 W/m 5,3 C 7,3 C 8,0 km/h (2 Bft) 97,56 %
22.11.2017 10:00 7,3 C 5,0 C 87 % 1014,5 hPa 0,0 l/m 6,0 km/h (2 Bft) S-SW 207 2 min 0,077 mm 0,5 UV-I 258 W/m 5,3 C 7,3 C 8,0 km/h (2 Bft) 97,56 %
22.11.2017 10:02 7,4 C 5,0 C 86 % 1014,6 hPa 0,0 l/m 7,6 km/h (2 Bft) W-SW 239 2 min 0,000 mm 0,5 UV-I 229 W/m 5,2 C 6,4 C 12,9 km/h (3 Bft) 98,11 %
22.11.2017 10:04 7,5 C 5,0 C 86 % 1014,6 hPa 0,0 l/m 6,6 km/h (2 Bft) SW 230 2 min 0,000 mm 0,5 UV-I 239 W/m 5,3 C 7,4 C 11,3 km/h (2 Bft) 95,12 %
22.11.2017 10:06 7,6 C 5,0 C 87 % 1014,6 hPa 0,0 l/m 7,2 km/h (2 Bft) SW 232 2 min 0,000 mm 0,5 UV-I 248 W/m 5,6 C 7,0 C 9,7 km/h (2 Bft) 97,87 %
22.11.2017 10:08 7,6 C 5,0 C 87 % 1014,6 hPa 0,0 l/m 7,1 km/h (2 Bft) SW 224 2 min 0,000 mm 0,5 UV-I 244 W/m 5,6 C 7,0 C 9,7 km/h (2 Bft) 97,87 %
22.11.2017 10:10 7,6 C 5,0 C 87 % 1014,6 hPa 0,0 l/m 6,8 km/h (2 Bft) SW 230 2 min 0,000 mm 0,5 UV-I 245 W/m 5,6 C 7,3 C 8,0 km/h (2 Bft) 98,11 %
22.11.2017 10:12 7,7 C 5,0 C 88 % 1014,5 hPa 0,0 l/m 5,5 km/h (1 Bft) SW 231 2 min 0,000 mm 0,6 UV-I 242 W/m 5,8 C 7,7 C 8,0 km/h (2 Bft) 92,68 %
22.11.2017 10:14 7,7 C 5,0 C 87 % 1014,5 hPa 0,0 l/m 5,3 km/h (1 Bft) SW 215 2 min 0,000 mm 0,6 UV-I 234 W/m 5,7 C 7,7 C 6,4 km/h (2 Bft) 97,73 %
22.11.2017 10:16 7,8 C 5,0 C 86 % 1014,5 hPa 0,0 l/m 6,0 km/h (2 Bft) SW 234 2 min 0,000 mm 0,6 UV-I 243 W/m 5,6 C 7,8 C 8,0 km/h (2 Bft) 97,73 %
22.11.2017 10:18 7,8 C 5,0 C 86 % 1014,5 hPa 0,0 l/m 5,3 km/h (1 Bft) SW 235 2 min 0,000 mm 0,6 UV-I 248 W/m 5,6 C 7,8 C 8,0 km/h (2 Bft) 92,00 %
22.11.2017 10:20 7,9 C 5,0 C 86 % 1014,5 hPa 0,0 l/m 5,8 km/h (2 Bft) SW 234 2 min 0,000 mm 0,6 UV-I 244 W/m 5,7 C 7,9 C 8,0 km/h (2 Bft) 96,43 %
22.11.2017 10:22 7,9 C 5,0 C 87 % 1014,5 hPa 0,0 l/m 5,6 km/h (1 Bft) W-SW 238 2 min 0,000 mm 0,6 UV-I 246 W/m 5,9 C 7,9 C 8,0 km/h (2 Bft) 94,44 %
22.11.2017 10:24 7,9 C 5,0 C 86 % 1014,6 hPa 0,0 l/m 5,6 km/h (1 Bft) SW 221 2 min 0,000 mm 0,6 UV-I 265 W/m 5,7 C 7,9 C 8,0 km/h (2 Bft) 94,83 %
22.11.2017 10:26 8,0 C 5,0 C 86 % 1014,7 hPa 0,0 l/m 5,2 km/h (1 Bft) SW 228 2 min 0,000 mm 0,6 UV-I 278 W/m 5,8 C 8,0 C 8,0 km/h (2 Bft) 95,45 %
22.11.2017 10:28 8,2 C 5,0 C 85 % 1014,6 hPa 0,0 l/m 5,9 km/h (2 Bft) W-SW 243 2 min 0,000 mm 0,7 UV-I 284 W/m 5,8 C 8,2 C 9,7 km/h (2 Bft) 94,87 %
22.11.2017 10:30 8,2 C 5,0 C 85 % 1014,6 hPa 0,0 l/m 5,3 km/h (1 Bft) W-SW 252 2 min 0,000 mm 0,7 UV-I 286 W/m 5,8 C 8,2 C 8,0 km/h (2 Bft) 96,23 %
22.11.2017 10:32 8,3 C 5,0 C 85 % 1014,6 hPa 0,0 l/m 3,8 km/h (1 Bft) W 259 2 min 0,000 mm 0,7 UV-I 307 W/m 5,9 C 8,3 C 6,4 km/h (2 Bft) 93,62 %
22.11.2017 10:34 8,5 C 5,0 C 85 % 1014,6 hPa 0,0 l/m 2,5 km/h (1 Bft) W 259 2 min 0,000 mm 0,7 UV-I 320 W/m 6,1 C 8,5 C 4,8 km/h (1 Bft) 96,00 %
22.11.2017 10:36 8,7 C 5,0 C 86 % 1014,5 hPa 0,0 l/m 0,2 km/h (0 Bft) W 259 2 min 0,000 mm 0,7 UV-I 278 W/m 6,5 C 8,7 C 1,6 km/h (1 Bft) 93,62 %
22.11.2017 10:38 8,7 C 5,0 C 85 % 1014,5 hPa 0,0 l/m 0,0 km/h (0 Bft) W 259 2 min 0,000 mm 0,7 UV-I 247 W/m 6,3 C 8,7 C 1,6 km/h (1 Bft) 95,74 %
22.11.2017 10:40 8,8 C 5,0 C 85 % 1014,5 hPa 0,0 l/m 1,3 km/h (1 Bft) W 259 2 min 0,000 mm 0,7 UV-I 264 W/m 6,4 C 8,8 C 4,8 km/h (1 Bft) 94,00 %
22.11.2017 10:42 8,8 C 5,0 C 84 % 1014,5 hPa 0,0 l/m 1,2 km/h (1 Bft) W 259 2 min 0,000 mm 0,7 UV-I 265 W/m 6,2 C 8,8 C 3,2 km/h (1 Bft) 97,37 %
22.11.2017 10:44 8,9 C 5,0 C 84 % 1014,5 hPa 0,0 l/m 2,4 km/h (1 Bft) W 259 2 min 0,000 mm 0,7 UV-I 271 W/m 6,3 C 8,9 C 4,8 km/h (1 Bft) 98,00 %
22.11.2017 10:46 8,9 C 5,0 C 84 % 1014,5 hPa 0,0 l/m 2,7 km/h (1 Bft) W 259 2 min 0,000 mm 0,7 UV-I 303 W/m 6,3 C 8,9 C 4,8 km/h (1 Bft) 100,00 %
22.11.2017 10:48 9,1 C 5,0 C 84 % 1014,5 hPa 0,0 l/m 3,7 km/h (1 Bft) W-SW 258 2 min 0,000 mm 0,8 UV-I 298 W/m 6,5 C 9,1 C 4,8 km/h (1 Bft) 100,00 %
22.11.2017 10:50 9,2 C 5,0 C 83 % 1014,5 hPa 0,0 l/m 3,5 km/h (1 Bft) W-SW 258 2 min 0,000 mm 0,8 UV-I 300 W/m 6,5 C 9,2 C 4,8 km/h (1 Bft) 100,00 %
22.11.2017 10:52 9,3 C 5,0 C 83 % 1014,5 hPa 0,0 l/m 3,3 km/h (1 Bft) W-SW 258 2 min 0,000 mm 0,8 UV-I 292 W/m 6,6 C 9,3 C 4,8 km/h (1 Bft) 100,00 %
22.11.2017 10:54 9,3 C 5,0 C 82 % 1014,5 hPa 0,0 l/m 4,7 km/h (1 Bft) SW 232 2 min 0,000 mm 0,8 UV-I 299 W/m 6,4 C 9,3 C 6,4 km/h (2 Bft) 100,00 %
22.11.2017 10:56 9,4 C 5,0 C 82 % 1014,6 hPa 0,0 l/m 5,1 km/h (1 Bft) SW 236 2 min 0,000 mm 0,8 UV-I 302 W/m 6,5 C 9,4 C 8,0 km/h (2 Bft) 100,00 %
22.11.2017 10:58 9,3 C 5,0 C 81 % 1014,6 hPa 0,0 l/m 4,5 km/h (1 Bft) W-SW 257 2 min 0,000 mm 0,8 UV-I 308 W/m 6,2 C 9,3 C 8,0 km/h (2 Bft) 98,31 %
22.11.2017 11:00 9,4 C 5,0 C 80 % 1014,6 hPa 0,0 l/m 4,9 km/h (1 Bft) W-NW 283 2 min 0,127 mm 0,8 UV-I 320 W/m 6,1 C 9,4 C 12,9 km/h (3 Bft) 100,00 %
22.11.2017 11:02 9,5 C 5,0 C 82 % 1014,6 hPa 0,0 l/m 2,4 km/h (1 Bft) W 275 2 min 0,000 mm 0,8 UV-I 330 W/m 6,6 C 9,5 C 4,8 km/h (1 Bft) 100,00 %
22.11.2017 11:04 9,7 C 5,0 C 84 % 1014,6 hPa 0,0 l/m 0,2 km/h (0 Bft) W 275 2 min 0,000 mm 0,8 UV-I 330 W/m 7,1 C 9,7 C 1,6 km/h (1 Bft) 100,00 %
22.11.2017 11:06 9,7 C 5,0 C 84 % 1014,6 hPa 0,0 l/m 1,0 km/h (0 Bft) W 275 2 min 0,000 mm 0,8 UV-I 339 W/m 7,1 C 9,7 C 4,8 km/h (1 Bft) 100,00 %
22.11.2017 11:08 9,6 C 5,0 C 82 % 1014,6 hPa 0,0 l/m 3,8 km/h (1 Bft) W 262 2 min 0,000 mm 0,8 UV-I 336 W/m 6,7 C 9,6 C 6,4 km/h (2 Bft) 100,00 %
22.11.2017 11:10 9,6 C 5,0 C 79 % 1014,6 hPa 0,0 l/m 2,9 km/h (1 Bft) W 269 2 min 0,000 mm 0,8 UV-I 340 W/m 6,1 C 9,6 C 6,4 km/h (2 Bft) 95,12 %
22.11.2017 11:12 9,7 C 5,0 C 80 % 1014,5 hPa 0,0 l/m 0,9 km/h (0 Bft) W 269 2 min 0,000 mm 0,9 UV-I 355 W/m 6,4 C 9,7 C 3,2 km/h (1 Bft) 97,87 %
22.11.2017 11:14 9,9 C 5,0 C 82 % 1014,5 hPa 0,0 l/m 0,3 km/h (0 Bft) W 269 2 min 0,000 mm 0,9 UV-I 351 W/m 7,0 C 9,9 C 1,6 km/h (1 Bft) 98,00 %
22.11.2017 11:16 9,9 C 5,0 C 81 % 1014,6 hPa 0,0 l/m 0,9 km/h (0 Bft) W 269 2 min 0,000 mm 0,9 UV-I 367 W/m 6,8 C 9,9 C 3,2 km/h (1 Bft) 100,00 %
22.11.2017 11:18 9,9 C 5,0 C 81 % 1014,6 hPa 0,0 l/m 0,2 km/h (0 Bft) W 269 2 min 0,000 mm 0,9 UV-I 364 W/m 6,8 C 9,9 C 1,6 km/h (1 Bft) 100,00 %
22.11.2017 11:20 9,8 C 5,0 C 81 % 1014,6 hPa 0,0 l/m 1,6 km/h (1 Bft) W 269 2 min 0,000 mm 0,9 UV-I 356 W/m 6,7 C 9,8 C 3,2 km/h (1 Bft) 100,00 %
22.11.2017 11:22 9,8 C 5,0 C 80 % 1014,6 hPa 0,0 l/m 1,5 km/h (1 Bft) W 269 2 min 0,000 mm 0,9 UV-I 320 W/m 6,5 C 9,8 C 4,8 km/h (1 Bft) 100,00 %
22.11.2017 11:24 9,8 C 5,0 C 80 % 1014,6 hPa 0,0 l/m 0,3 km/h (0 Bft) W 269 2 min 0,000 mm 0,9 UV-I 309 W/m 6,5 C 9,8 C 1,6 km/h (1 Bft) 100,00 %
22.11.2017 11:26 9,8 C 5,0 C 81 % 1014,6 hPa 0,0 l/m 1,3 km/h (1 Bft) W 269 2 min 0,000 mm 0,9 UV-I 353 W/m 6,7 C 9,8 C 3,2 km/h (1 Bft) 98,11 %
22.11.2017 11:28 9,9 C 5,0 C 81 % 1014,5 hPa 0,0 l/m 1,0 km/h (0 Bft) W 269 2 min 0,000 mm 0,9 UV-I 344 W/m 6,8 C 9,9 C 3,2 km/h (1 Bft) 100,00 %
22.11.2017 11:30 10,0 C 5,0 C 81 % 1014,5 hPa 0,0 l/m 1,9 km/h (1 Bft) SW 229 2 min 0,000 mm 0,9 UV-I 355 W/m 6,9 C 10,0 C 3,2 km/h (1 Bft) 98,00 %
22.11.2017 11:32 10,2 C 5,0 C 81 % 1014,5 hPa 0,0 l/m 5,0 km/h (1 Bft) SW 236 2 min 0,000 mm 0,9 UV-I 370 W/m 7,1 C 10,2 C 8,0 km/h (2 Bft) 100,00 %
22.11.2017 11:34 10,5 C 5,0 C 80 % 1014,5 hPa 0,0 l/m 4,5 km/h (1 Bft) SW 225 2 min 0,000 mm 0,9 UV-I 368 W/m 7,2 C 10,5 C 8,0 km/h (2 Bft) 97,14 %
22.11.2017 11:36 10,6 C 5,0 C 79 % 1014,5 hPa 0,0 l/m 4,7 km/h (1 Bft) W-SW 255 2 min 0,000 mm 0,9 UV-I 357 W/m 7,1 C 10,6 C 6,4 km/h (2 Bft) 100,00 %
22.11.2017 11:38 10,7 C 5,0 C 79 % 1014,5 hPa 0,0 l/m 2,5 km/h (1 Bft) W-SW 255 2 min 0,000 mm 0,9 UV-I 355 W/m 7,2 C 10,7 C 4,8 km/h (1 Bft) 100,00 %
22.11.2017 11:40 10,9 C 5,0 C 77 % 1014,5 hPa 0,0 l/m 3,5 km/h (1 Bft) W-SW 255 2 min 0,000 mm 0,9 UV-I 360 W/m 7,0 C 10,9 C 4,8 km/h (1 Bft) 100,00 %
22.11.2017 11:42 10,9 C 5,0 C 77 % 1014,5 hPa 0,0 l/m 0,5 km/h (0 Bft) W-SW 255 2 min 0,000 mm 0,9 UV-I 367 W/m 7,0 C 10,9 C 1,6 km/h (1 Bft) 97,87 %
22.11.2017 11:44 10,9 C 5,0 C 78 % 1014,5 hPa 0,0 l/m 0,0 km/h (0 Bft) W-SW 255 2 min 0,000 mm 0,9 UV-I 377 W/m 7,2 C 10,9 C 1,6 km/h (1 Bft) 100,00 %
22.11.2017 11:46 11,1 C 5,0 C 79 % 1014,5 hPa 0,0 l/m 0,0 km/h (0 Bft) W-SW 255 2 min 0,000 mm 0,9 UV-I 374 W/m 7,6 C 11,1 C 0,0 km/h (0 Bft) 100,00 %
22.11.2017 11:48 11,3 C 5,0 C 79 % 1014,5 hPa 0,0 l/m 0,3 km/h (0 Bft) W-SW 255 2 min 0,000 mm 0,9 UV-I 368 W/m 7,8 C 11,3 C 1,6 km/h (1 Bft) 97,92 %
22.11.2017 11:50 11,3 C 5,0 C 80 % 1014,5 hPa 0,0 l/m 0,3 km/h (0 Bft) W-SW 255 2 min 0,000 mm 0,9 UV-I 366 W/m 8,0 C 11,3 C 1,6 km/h (1 Bft) 100,00 %
22.11.2017 11:52 11,2 C 5,0 C 78 % 1014,5 hPa 0,0 l/m 0,8 km/h (0 Bft) W-SW 255 2 min 0,000 mm 0,9 UV-I 331 W/m 7,5 C 11,2 C 3,2 km/h (1 Bft) 92,00 %
22.11.2017 11:54 11,3 C 5,0 C 81 % 1014,5 hPa 0,0 l/m 1,6 km/h (1 Bft) N 350 2 min 0,000 mm 1,0 UV-I 348 W/m 8,2 C 11,3 C 3,2 km/h (1 Bft) 97,87 %
22.11.2017 11:56 11,3 C 5,0 C 80 % 1014,5 hPa 0,0 l/m 0,5 km/h (0 Bft) N 350 2 min 0,000 mm 1,0 UV-I 367 W/m 8,0 C 11,3 C 1,6 km/h (1 Bft) 96,00 %
22.11.2017 11:58 11,3 C 5,0 C 82 % 1014,5 hPa 0,0 l/m 0,7 km/h (0 Bft) N 355 2 min 0,000 mm 1,0 UV-I 358 W/m 8,3 C 11,3 C 1,6 km/h (1 Bft) 97,37 %
22.11.2017 12:00 11,2 C 5,0 C 81 % 1014,5 hPa 0,0 l/m 0,2 km/h (0 Bft) N 355 2 min 0,177 mm 1,0 UV-I 370 W/m 8,1 C 11,2 C 1,6 km/h (1 Bft) 98,00 %
22.11.2017 12:02 11,2 C 5,0 C 81 % 1014,5 hPa 0,0 l/m 1,1 km/h (1 Bft) NW 309 2 min 0,000 mm 0,9 UV-I 370 W/m 8,1 C 11,2 C 3,2 km/h (1 Bft) 96,00 %
22.11.2017 12:04 11,0 C 5,0 C 79 % 1014,5 hPa 0,0 l/m 1,8 km/h (1 Bft) N-NO 15 2 min 0,000 mm 0,9 UV-I 365 W/m 7,5 C 11,0 C 4,8 km/h (1 Bft) 97,73 %
22.11.2017 12:06 10,9 C 5,0 C 82 % 1014,5 hPa 0,0 l/m 2,3 km/h (1 Bft) N 11 2 min 0,000 mm 0,9 UV-I 363 W/m 7,9 C 10,9 C 6,4 km/h (2 Bft) 98,00 %
22.11.2017 12:08 10,9 C 5,0 C 80 % 1014,5 hPa 0,0 l/m 0,3 km/h (0 Bft) N 11 2 min 0,000 mm 0,9 UV-I 360 W/m 7,6 C 10,9 C 1,6 km/h (1 Bft) 97,56 %
22.11.2017 12:10 11,0 C 5,0 C 82 % 1014,5 hPa 0,0 l/m 0,4 km/h (0 Bft) N 5 2 min 0,000 mm 0,9 UV-I 344 W/m 8,0 C 11,0 C 1,6 km/h (1 Bft) 96,23 %
22.11.2017 12:12 11,0 C 5,0 C 81 % 1014,6 hPa 0,0 l/m 4,3 km/h (1 Bft) N-NO 29 2 min 0,000 mm 0,9 UV-I 331 W/m 7,9 C 11,0 C 9,7 km/h (2 Bft) 97,56 %
22.11.2017 12:14 10,8 C 5,0 C 82 % 1014,5 hPa 0,0 l/m 6,7 km/h (2 Bft) NO 40 2 min 0,000 mm 0,9 UV-I 360 W/m 7,9 C 10,6 C 9,7 km/h (2 Bft) 94,00 %
22.11.2017 12:16 10,7 C 5,0 C 82 % 1014,5 hPa 0,0 l/m 8,5 km/h (2 Bft) N-NO 25 2 min 0,000 mm 0,9 UV-I 358 W/m 7,8 C 9,3 C 12,9 km/h (3 Bft) 100,00 %
22.11.2017 12:18 10,5 C 5,0 C 82 % 1014,5 hPa 0,0 l/m 9,2 km/h (2 Bft) N-NO 22 2 min 0,000 mm 0,9 UV-I 362 W/m 7,6 C 8,6 C 12,9 km/h (3 Bft) 95,12 %
22.11.2017 12:20 10,5 C 5,0 C 83 % 1014,6 hPa 0,0 l/m 8,3 km/h (2 Bft) NO 37 2 min 0,000 mm 0,9 UV-I 358 W/m 7,7 C 9,2 C 12,9 km/h (3 Bft) 100,00 %
22.11.2017 12:22 10,6 C 5,0 C 82 % 1014,5 hPa 0,0 l/m 6,7 km/h (2 Bft) N 355 2 min 0,000 mm 0,9 UV-I 360 W/m 7,7 C 10,4 C 8,0 km/h (2 Bft) 97,44 %
22.11.2017 12:24 10,7 C 5,0 C 83 % 1014,6 hPa 0,0 l/m 9,0 km/h (2 Bft) N-NO 27 2 min 0,000 mm 0,9 UV-I 364 W/m 7,9 C 9,0 C 14,5 km/h (3 Bft) 98,08 %
22.11.2017 12:26 10,6 C 5,0 C 83 % 1014,6 hPa 0,0 l/m 7,2 km/h (2 Bft) N-NO 13 2 min 0,000 mm 0,9 UV-I 360 W/m 7,8 C 10,0 C 14,5 km/h (3 Bft) 100,00 %
22.11.2017 12:28 10,5 C 5,0 C 83 % 1014,6 hPa 0,0 l/m 3,1 km/h (1 Bft) N 5 2 min 0,000 mm 0,9 UV-I 348 W/m 7,7 C 10,5 C 4,8 km/h (1 Bft) 98,00 %
22.11.2017 12:30 10,4 C 5,0 C 83 % 1014,5 hPa 0,0 l/m 3,8 km/h (1 Bft) N-NO 22 2 min 0,000 mm 0,9 UV-I 357 W/m 7,6 C 10,4 C 9,7 km/h (2 Bft) 100,00 %
22.11.2017 12:32 10,4 C 5,0 C 84 % 1014,5 hPa 0,0 l/m 6,4 km/h (2 Bft) NW 319 2 min 0,000 mm 0,9 UV-I 354 W/m 7,8 C 10,4 C 11,3 km/h (2 Bft) 98,00 %
22.11.2017 12:34 10,4 C 5,0 C 84 % 1014,6 hPa 0,0 l/m 2,4 km/h (1 Bft) N 9 2 min 0,000 mm 0,9 UV-I 351 W/m 7,8 C 10,4 C 4,8 km/h (1 Bft) 100,00 %
22.11.2017 12:36 10,3 C 5,0 C 83 % 1014,5 hPa 0,0 l/m 3,9 km/h (1 Bft) N 5 2 min 0,000 mm 0,8 UV-I 350 W/m 7,5 C 10,3 C 6,4 km/h (2 Bft) 98,00 %
22.11.2017 12:38 10,3 C 5,0 C 83 % 1014,5 hPa 0,0 l/m 4,7 km/h (1 Bft) N-NO 13 2 min 0,000 mm 0,8 UV-I 351 W/m 7,5 C 10,3 C 8,0 km/h (2 Bft) 100,00 %
22.11.2017 12:40 10,3 C 5,0 C 84 % 1014,5 hPa 0,0 l/m 4,8 km/h (1 Bft) N-NO 13 2 min 0,000 mm 0,8 UV-I 350 W/m 7,7 C 10,3 C 11,3 km/h (2 Bft) 100,00 %
22.11.2017 12:42 10,3 C 5,0 C 84 % 1014,5 hPa 0,0 l/m 3,5 km/h (1 Bft) N-NO 22 2 min 0,000 mm 0,8 UV-I 352 W/m 7,7 C 10,3 C 6,4 km/h (2 Bft) 96,23 %
22.11.2017 12:44 10,3 C 5,0 C 83 % 1014,5 hPa 0,0 l/m 1,7 km/h (1 Bft) N-NW 343 2 min 0,000 mm 0,8 UV-I 346 W/m 7,5 C 10,3 C 3,2 km/h (1 Bft) 100,00 %
22.11.2017 12:46 10,5 C 5,0 C 85 % 1014,4 hPa 0,0 l/m 3,8 km/h (1 Bft) N-NO 17 2 min 0,000 mm 0,8 UV-I 343 W/m 8,1 C 10,5 C 6,4 km/h (2 Bft) 97,87 %
22.11.2017 12:48 10,6 C 5,0 C 83 % 1014,5 hPa 0,0 l/m 2,7 km/h (1 Bft) N-NO 17 2 min 0,000 mm 0,8 UV-I 343 W/m 7,8 C 10,6 C 4,8 km/h (1 Bft) 100,00 %
22.11.2017 12:50 10,6 C 5,0 C 83 % 1014,5 hPa 0,0 l/m 5,6 km/h (1 Bft) N-NO 26 2 min 0,000 mm 0,8 UV-I 345 W/m 7,8 C 10,6 C 8,0 km/h (2 Bft) 100,00 %
22.11.2017 12:52 10,6 C 5,0 C 84 % 1014,5 hPa 0,0 l/m 3,5 km/h (1 Bft) N-NO 27 2 min 0,000 mm 0,8 UV-I 343 W/m 8,0 C 10,6 C 6,4 km/h (2 Bft) 100,00 %
22.11.2017 12:54 10,6 C 5,0 C 83 % 1014,4 hPa 0,0 l/m 4,6 km/h (1 Bft) NO 39 2 min 0,000 mm 0,8 UV-I 339 W/m 7,8 C 10,6 C 6,4 km/h (2 Bft) 97,37 %
22.11.2017 12:56 10,6 C 5,0 C 84 % 1014,4 hPa 0,0 l/m 3,8 km/h (1 Bft) NO 51 2 min 0,000 mm 0,8 UV-I 338 W/m 8,0 C 10,6 C 6,4 km/h (2 Bft) 98,11 %
22.11.2017 12:58 10,6 C 5,0 C 84 % 1014,4 hPa 0,0 l/m 4,5 km/h (1 Bft) NO 49 2 min 0,000 mm 0,8 UV-I 341 W/m 8,0 C 10,6 C 6,4 km/h (2 Bft) 100,00 %
22.11.2017 13:00 10,6 C 5,0 C 83 % 1014,4 hPa 0,0 l/m 4,4 km/h (1 Bft) NO 49 2 min 0,178 mm 0,8 UV-I 339 W/m 7,8 C 10,6 C 4,8 km/h (1 Bft) 100,00 %
22.11.2017 13:02 10,7 C 5,0 C 83 % 1014,3 hPa 0,0 l/m 4,5 km/h (1 Bft) NO 53 2 min 0,000 mm 0,8 UV-I 324 W/m 7,9 C 10,7 C 6,4 km/h (2 Bft) 97,87 %
22.11.2017 13:04 10,6 C 5,0 C 82 % 1014,3 hPa 0,0 l/m 4,8 km/h (1 Bft) O-NO 57 2 min 0,000 mm 0,8 UV-I 317 W/m 7,7 C 10,6 C 6,4 km/h (2 Bft) 100,00 %
22.11.2017 13:06 10,6 C 5,0 C 83 % 1014,3 hPa 0,0 l/m 5,0 km/h (1 Bft) NO 49 2 min 0,000 mm 0,7 UV-I 314 W/m 7,8 C 10,6 C 6,4 km/h (2 Bft) 97,87 %
22.11.2017 13:08 10,6 C 5,0 C 83 % 1014,3 hPa 0,0 l/m 4,7 km/h (1 Bft) NO 46 2 min 0,000 mm 0,7 UV-I 311 W/m 7,8 C 10,6 C 6,4 km/h (2 Bft) 100,00 %
22.11.2017 13:10 10,6 C 5,0 C 83 % 1014,2 hPa 0,0 l/m 3,2 km/h (1 Bft) NO 46 2 min 0,000 mm 0,7 UV-I 310 W/m 7,8 C 10,6 C 4,8 km/h (1 Bft) 100,00 %
22.11.2017 13:12 10,6 C 5,0 C 83 % 1014,2 hPa 0,0 l/m 3,9 km/h (1 Bft) NO 47 2 min 0,000 mm 0,7 UV-I 304 W/m 7,8 C 10,6 C 6,4 km/h (2 Bft) 100,00 %
22.11.2017 13:14 10,6 C 5,0 C 83 % 1014,2 hPa 0,0 l/m 4,4 km/h (1 Bft) NO 46 2 min 0,000 mm 0,7 UV-I 304 W/m 7,8 C 10,6 C 6,4 km/h (2 Bft) 100,00 %
22.11.2017 13:16 10,7 C 5,0 C 82 % 1014,2 hPa 0,0 l/m 4,3 km/h (1 Bft) NO 48 2 min 0,000 mm 0,7 UV-I 290 W/m 7,8 C 10,7 C 6,4 km/h (2 Bft) 100,00 %
22.11.2017 13:18 10,6 C 5,0 C 81 % 1014,2 hPa 0,0 l/m 4,1 km/h (1 Bft) NO 50 2 min 0,000 mm 0,7 UV-I 276 W/m 7,5 C 10,6 C 6,4 km/h (2 Bft) 98,00 %
22.11.2017 13:20 10,7 C 5,0 C 82 % 1014,2 hPa 0,0 l/m 4,1 km/h (1 Bft) NO 50 2 min 0,000 mm 0,7 UV-I 268 W/m 7,8 C 10,7 C 6,4 km/h (2 Bft) 100,00 %
22.11.2017 13:22 10,8 C 5,0 C 81 % 1014,1 hPa 0,0 l/m 4,3 km/h (1 Bft) NO 50 2 min 0,000 mm 0,7 UV-I 271 W/m 7,7 C 10,8 C 4,8 km/h (1 Bft) 97,37 %
22.11.2017 13:24 10,8 C 5,0 C 81 % 1014,1 hPa 0,0 l/m 3,8 km/h (1 Bft) NO 50 2 min 0,000 mm 0,6 UV-I 268 W/m 7,7 C 10,8 C 4,8 km/h (1 Bft) 98,18 %
22.11.2017 13:26 10,9 C 5,0 C 81 % 1014,1 hPa 0,0 l/m 4,3 km/h (1 Bft) NO 50 2 min 0,000 mm 0,6 UV-I 249 W/m 7,8 C 10,9 C 4,8 km/h (1 Bft) 96,00 %
22.11.2017 13:28 10,9 C 5,0 C 83 % 1014,2 hPa 0,0 l/m 3,9 km/h (1 Bft) NO 50 2 min 0,000 mm 0,6 UV-I 263 W/m 8,1 C 10,9 C 6,4 km/h (2 Bft) 97,87 %
22.11.2017 13:30 11,0 C 5,0 C 82 % 1014,2 hPa 0,0 l/m 4,4 km/h (1 Bft) NO 50 2 min 0,000 mm 0,6 UV-I 278 W/m 8,0 C 11,0 C 6,4 km/h (2 Bft) 97,37 %
22.11.2017 13:32 10,9 C 5,0 C 82 % 1014,2 hPa 0,0 l/m 3,4 km/h (1 Bft) NO 50 2 min 0,000 mm 0,6 UV-I 275 W/m 7,9 C 10,9 C 4,8 km/h (1 Bft) 98,11 %
22.11.2017 13:34 11,1 C 5,0 C 83 % 1014,2 hPa 0,0 l/m 5,0 km/h (1 Bft) N-NO 24 2 min 0,000 mm 0,6 UV-I 288 W/m 8,3 C 11,1 C 6,4 km/h (2 Bft) 93,62 %
22.11.2017 13:36 11,1 C 5,0 C 83 % 1014,2 hPa 0,0 l/m 3,8 km/h (1 Bft) N-NO 24 2 min 0,000 mm 0,6 UV-I 281 W/m 8,3 C 11,1 C 6,4 km/h (2 Bft) 98,00 %
22.11.2017 13:38 11,1 C 5,0 C 82 % 1014,2 hPa 0,0 l/m 4,2 km/h (1 Bft) N-NO 24 2 min 0,000 mm 0,6 UV-I 290 W/m 8,1 C 11,1 C 6,4 km/h (2 Bft) 97,56 %
22.11.2017 13:40 11,2 C 5,0 C 82 % 1014,2 hPa 0,0 l/m 3,6 km/h (1 Bft) N-NO 25 2 min 0,000 mm 0,6 UV-I 286 W/m 8,2 C 11,2 C 4,8 km/h (1 Bft) 97,92 %
22.11.2017 13:42 11,2 C 5,0 C 82 % 1014,1 hPa 0,0 l/m 1,4 km/h (1 Bft) N-NO 25 2 min 0,000 mm 0,6 UV-I 274 W/m 8,2 C 11,2 C 3,2 km/h (1 Bft) 98,08 %
22.11.2017 13:44 11,3 C 5,0 C 82 % 1014,2 hPa 0,0 l/m 2,6 km/h (1 Bft) N-NO 25 2 min 0,000 mm 0,5 UV-I 270 W/m 8,3 C 11,3 C 4,8 km/h (1 Bft) 97,87 %
22.11.2017 13:46 11,3 C 5,0 C 80 % 1014,2 hPa 0,0 l/m 2,8 km/h (1 Bft) N-NO 25 2 min 0,000 mm 0,5 UV-I 259 W/m 8,0 C 11,3 C 3,2 km/h (1 Bft) 97,44 %
22.11.2017 13:48 11,4 C 5,0 C 80 % 1014,2 hPa 0,0 l/m 1,2 km/h (1 Bft) N-NO 25 2 min 0,000 mm 0,5 UV-I 261 W/m 8,1 C 11,4 C 3,2 km/h (1 Bft) 97,87 %
22.11.2017 13:50 11,6 C 5,0 C 79 % 1014,2 hPa 0,0 l/m 1,7 km/h (1 Bft) N-NO 25 2 min 0,000 mm 0,5 UV-I 263 W/m 8,1 C 11,6 C 3,2 km/h (1 Bft) 100,00 %
22.11.2017 13:52 11,7 C 5,0 C 80 % 1014,2 hPa 0,0 l/m 1,5 km/h (1 Bft) N-NO 25 2 min 0,000 mm 0,5 UV-I 265 W/m 8,4 C 11,7 C 4,8 km/h (1 Bft) 98,11 %
22.11.2017 13:54 11,7 C 5,0 C 78 % 1014,2 hPa 0,0 l/m 2,0 km/h (1 Bft) N-NO 25 2 min 0,000 mm 0,5 UV-I 259 W/m 8,0 C 11,7 C 3,2 km/h (1 Bft) 100,00 %
22.11.2017 13:56 11,6 C 5,0 C 79 % 1014,2 hPa 0,0 l/m 2,6 km/h (1 Bft) N-NO 25 2 min 0,000 mm 0,5 UV-I 265 W/m 8,1 C 11,6 C 4,8 km/h (1 Bft) 96,00 %
22.11.2017 13:58 11,6 C 5,0 C 79 % 1014,2 hPa 0,0 l/m 2,2 km/h (1 Bft) N-NO 25 2 min 0,000 mm 0,5 UV-I 255 W/m 8,1 C 11,6 C 3,2 km/h (1 Bft) 96,23 %
22.11.2017 14:00 11,4 C 5,0 C 78 % 1014,1 hPa 0,0 l/m 2,7 km/h (1 Bft) N-NO 25 2 min 0,127 mm 0,5 UV-I 228 W/m 7,7 C 11,4 C 3,2 km/h (1 Bft) 97,14 %
22.11.2017 14:02 11,4 C 5,0 C 78 % 1014,1 hPa 0,0 l/m 2,3 km/h (1 Bft) N-NO 25 2 min 0,000 mm 0,2 UV-I 223 W/m 7,7 C 11,4 C 3,2 km/h (1 Bft) 100,00 %
22.11.2017 14:04 11,4 C 5,0 C 78 % 1014,2 hPa 0,0 l/m 3,2 km/h (1 Bft) N-NO 25 2 min 0,000 mm 0,0 UV-I 221 W/m 7,7 C 11,4 C 4,8 km/h (1 Bft) 98,00 %
22.11.2017 14:06 11,5 C 5,0 C 78 % 1014,2 hPa 0,0 l/m 1,5 km/h (1 Bft) N-NO 25 2 min 0,000 mm 0,0 UV-I 221 W/m 7,8 C 11,5 C 3,2 km/h (1 Bft) 97,37 %
22.11.2017 14:08 11,6 C 5,0 C 78 % 1014,1 hPa 0,0 l/m 0,6 km/h (0 Bft) N-NO 25 2 min 0,000 mm 0,0 UV-I 233 W/m 7,9 C 11,6 C 1,6 km/h (1 Bft) 100,00 %
22.11.2017 14:10 11,7 C 5,0 C 77 % 1014,1 hPa 0,0 l/m 0,2 km/h (0 Bft) N-NO 25 2 min 0,000 mm 0,0 UV-I 222 W/m 7,8 C 11,7 C 1,6 km/h (1 Bft) 100,00 %
22.11.2017 14:12 11,8 C 5,0 C 77 % 1014,1 hPa 0,0 l/m 0,0 km/h (0 Bft) N-NO 25 2 min 0,000 mm 0,0 UV-I 215 W/m 7,9 C 11,8 C 0,0 km/h (0 Bft) 100,00 %
22.11.2017 14:14 11,9 C 5,0 C 76 % 1014,2 hPa 0,0 l/m 0,0 km/h (0 Bft) N-NO 25 2 min 0,000 mm 0,0 UV-I 213 W/m 7,8 C 11,9 C 0,0 km/h (0 Bft) 97,87 %
22.11.2017 14:16 11,8 C 5,0 C 76 % 1014,2 hPa 0,0 l/m 0,0 km/h (0 Bft) N-NO 25 2 min 0,000 mm 0,0 UV-I 196 W/m 7,7 C 11,8 C 0,0 km/h (0 Bft) 98,11 %
22.11.2017 14:18 11,8 C 5,0 C 76 % 1014,2 hPa 0,0 l/m 0,0 km/h (0 Bft) N-NO 25 2 min 0,000 mm 0,0 UV-I 195 W/m 7,7 C 11,8 C 0,0 km/h (0 Bft) 95,74 %
22.11.2017 14:20 11,9 C 5,0 C 77 % 1014,2 hPa 0,0 l/m 0,0 km/h (0 Bft) N-NO 25 2 min 0,000 mm 0,0 UV-I 194 W/m 8,0 C 11,9 C 0,0 km/h (0 Bft) 100,00 %
22.11.2017 14:22 12,1 C 5,0 C 76 % 1014,2 hPa 0,0 l/m 0,1 km/h (0 Bft) N-NO 25 2 min 0,000 mm 0,0 UV-I 190 W/m 8,0 C 12,1 C 1,6 km/h (1 Bft) 100,00 %
22.11.2017 14:24 12,1 C 5,0 C 77 % 1014,2 hPa 0,0 l/m 0,0 km/h (0 Bft) N-NO 25 2 min 0,000 mm 0,0 UV-I 187 W/m 8,2 C 12,1 C 1,6 km/h (1 Bft) 100,00 %
22.11.2017 14:26 12,0 C 5,0 C 78 % 1014,2 hPa 0,0 l/m 0,2 km/h (0 Bft) N-NO 25 2 min 0,000 mm 0,0 UV-I 190 W/m 8,3 C 12,0 C 1,6 km/h (1 Bft) 100,00 %
22.11.2017 14:28 11,9 C 5,0 C 77 % 1014,2 hPa 0,0 l/m 0,0 km/h (0 Bft) N-NO 25 2 min 0,000 mm 0,0 UV-I 189 W/m 8,0 C 11,9 C 0,0 km/h (0 Bft) 100,00 %
22.11.2017 14:30 11,8 C 5,0 C 76 % 1014,2 hPa 0,0 l/m 0,2 km/h (0 Bft) N-NO 25 2 min 0,000 mm 0,0 UV-I 183 W/m 7,7 C 11,8 C 1,6 km/h (1 Bft) 100,00 %
22.11.2017 14:32 11,8 C 5,0 C 76 % 1014,2 hPa 0,0 l/m 0,1 km/h (0 Bft) N-NO 25 2 min 0,000 mm 0,0 UV-I 179 W/m 7,7 C 11,8 C 1,6 km/h (1 Bft) 100,00 %
22.11.2017 14:34 11,8 C 5,0 C 77 % 1014,2 hPa 0,0 l/m 0,2 km/h (0 Bft) N-NO 25 2 min 0,000 mm 0,0 UV-I 174 W/m 7,9 C 11,8 C 1,6 km/h (1 Bft) 98,00 %
22.11.2017 14:36 11,8 C 5,0 C 77 % 1014,2 hPa 0,0 l/m 1,3 km/h (1 Bft) N 10 2 min 0,000 mm 0,0 UV-I 192 W/m 7,9 C 11,8 C 3,2 km/h (1 Bft) 100,00 %
22.11.2017 14:38 11,8 C 5,0 C 76 % 1014,2 hPa 0,0 l/m 1,2 km/h (1 Bft) N 5 2 min 0,000 mm 0,0 UV-I 200 W/m 7,7 C 11,8 C 3,2 km/h (1 Bft) 100,00 %
22.11.2017 14:40 11,7 C 5,0 C 76 % 1014,2 hPa 0,0 l/m 1,0 km/h (0 Bft) N 355 2 min 0,000 mm 0,0 UV-I 198 W/m 7,6 C 11,7 C 3,2 km/h (1 Bft) 98,00 %
22.11.2017 14:42 11,7 C 5,0 C 76 % 1014,3 hPa 0,0 l/m 0,8 km/h (0 Bft) N 355 2 min 0,000 mm 0,0 UV-I 194 W/m 7,6 C 11,7 C 3,2 km/h (1 Bft) 94,34 %
22.11.2017 14:44 11,8 C 5,0 C 78 % 1014,2 hPa 0,0 l/m 1,5 km/h (1 Bft) N 355 2 min 0,000 mm 0,0 UV-I 188 W/m 8,1 C 11,8 C 4,8 km/h (1 Bft) 100,00 %
22.11.2017 14:46 11,8 C 5,0 C 79 % 1014,2 hPa 0,0 l/m 1,0 km/h (0 Bft) N 355 2 min 0,000 mm 0,0 UV-I 177 W/m 8,3 C 11,8 C 3,2 km/h (1 Bft) 100,00 %
22.11.2017 14:48 11,8 C 5,0 C 80 % 1014,2 hPa 0,0 l/m 2,3 km/h (1 Bft) N 349 2 min 0,000 mm 0,0 UV-I 171 W/m 8,5 C 11,8 C 6,4 km/h (2 Bft) 100,00 %
22.11.2017 14:50 11,7 C 5,0 C 80 % 1014,2 hPa 0,0 l/m 1,3 km/h (1 Bft) N 9 2 min 0,000 mm 0,0 UV-I 168 W/m 8,4 C 11,7 C 3,2 km/h (1 Bft) 96,00 %
22.11.2017 14:52 11,6 C 5,0 C 79 % 1014,2 hPa 0,0 l/m 0,7 km/h (0 Bft) N 351 2 min 0,000 mm 0,0 UV-I 158 W/m 8,1 C 11,6 C 1,6 km/h (1 Bft) 100,00 %
22.11.2017 14:54 11,6 C 5,0 C 79 % 1014,3 hPa 0,0 l/m 0,4 km/h (0 Bft) N 355 2 min 0,000 mm 0,0 UV-I 141 W/m 8,1 C 11,6 C 1,6 km/h (1 Bft) 100,00 %
22.11.2017 14:56 11,5 C 5,0 C 79 % 1014,2 hPa 0,0 l/m 0,0 km/h (0 Bft) N 355 2 min 0,000 mm 0,0 UV-I 146 W/m 8,0 C 11,5 C 1,6 km/h (1 Bft) 100,00 %
22.11.2017 14:58 11,5 C 5,0 C 79 % 1014,3 hPa 0,0 l/m 0,0 km/h (0 Bft) N 355 2 min 0,000 mm 0,0 UV-I 149 W/m 8,0 C 11,5 C 1,6 km/h (1 Bft) 100,00 %
22.11.2017 15:00 11,5 C 5,0 C 79 % 1014,2 hPa 0,0 l/m 0,3 km/h (0 Bft) N 351 2 min 0,102 mm 0,0 UV-I 143 W/m 8,0 C 11,5 C 1,6 km/h (1 Bft) 100,00 %
22.11.2017 15:02 11,5 C 5,0 C 77 % 1014,3 hPa 0,0 l/m 1,6 km/h (1 Bft) N-NW 348 2 min 0,000 mm 0,0 UV-I 143 W/m 7,6 C 11,5 C 3,2 km/h (1 Bft) 100,00 %
22.11.2017 15:04 11,6 C 5,0 C 76 % 1014,2 hPa 0,0 l/m 1,4 km/h (1 Bft) N-NW 348 2 min 0,000 mm 0,0 UV-I 141 W/m 7,5 C 11,6 C 3,2 km/h (1 Bft) 96,43 %
22.11.2017 15:06 11,6 C 5,0 C 76 % 1014,2 hPa 0,0 l/m 0,5 km/h (0 Bft) N-NW 348 2 min 0,000 mm 0,0 UV-I 118 W/m 7,5 C 11,6 C 1,6 km/h (1 Bft) 100,00 %
22.11.2017 15:08 11,6 C 5,0 C 75 % 1014,2 hPa 0,0 l/m 2,0 km/h (1 Bft) NW 320 2 min 0,000 mm 0,0 UV-I 112 W/m 7,3 C 11,6 C 4,8 km/h (1 Bft) 100,00 %
22.11.2017 15:10 11,4 C 5,0 C 76 % 1014,3 hPa 0,0 l/m 0,1 km/h (0 Bft) NW 320 2 min 0,000 mm 0,0 UV-I 112 W/m 7,3 C 11,4 C 1,6 km/h (1 Bft) 97,37 %
22.11.2017 15:12 11,4 C 5,0 C 76 % 1014,3 hPa 0,0 l/m 0,0 km/h (0 Bft) NW 320 2 min 0,000 mm 0,0 UV-I 99 W/m 7,3 C 11,4 C 0,0 km/h (0 Bft) 100,00 %
22.11.2017 15:14 11,4 C 5,0 C 76 % 1014,3 hPa 0,0 l/m 0,1 km/h (0 Bft) NW 320 2 min 0,000 mm 0,0 UV-I 81 W/m 7,3 C 11,4 C 1,6 km/h (1 Bft) 100,00 %
22.11.2017 15:16 11,4 C 5,0 C 77 % 1014,3 hPa 0,0 l/m 0,4 km/h (0 Bft) NW 320 2 min 0,000 mm 0,0 UV-I 77 W/m 7,5 C 11,4 C 3,2 km/h (1 Bft) 100,00 %
22.11.2017 15:18 11,3 C 5,0 C 76 % 1014,3 hPa 0,0 l/m 0,1 km/h (0 Bft) NW 320 2 min 0,000 mm 0,0 UV-I 73 W/m 7,2 C 11,3 C 1,6 km/h (1 Bft) 98,00 %
22.11.2017 15:20 11,2 C 5,0 C 78 % 1014,3 hPa 0,0 l/m 0,4 km/h (0 Bft) NW 325 2 min 0,000 mm 0,0 UV-I 70 W/m 7,5 C 11,2 C 3,2 km/h (1 Bft) 97,37 %
22.11.2017 15:22 11,1 C 5,0 C 79 % 1014,3 hPa 0,0 l/m 3,9 km/h (1 Bft) N-NO 33 2 min 0,000 mm 0,0 UV-I 73 W/m 7,6 C 11,1 C 6,4 km/h (2 Bft) 100,00 %
22.11.2017 15:24 10,9 C 5,0 C 80 % 1014,3 hPa 0,0 l/m 4,5 km/h (1 Bft) NO 46 2 min 0,000 mm 0,0 UV-I 65 W/m 7,6 C 10,9 C 6,4 km/h (2 Bft) 100,00 %
22.11.2017 15:26 10,9 C 5,0 C 80 % 1014,3 hPa 0,0 l/m 4,3 km/h (1 Bft) NO 55 2 min 0,000 mm 0,0 UV-I 63 W/m 7,6 C 10,9 C 6,4 km/h (2 Bft) 96,00 %
22.11.2017 15:28 10,9 C 5,0 C 80 % 1014,3 hPa 0,0 l/m 5,6 km/h (1 Bft) O-NO 74 0 min 0,000 mm 0,0 UV-I 56 W/m 7,6 C 10,9 C 8,0 km/h (2 Bft) 94,74 %
22.11.2017 15:30 10,8 C 5,0 C 80 % 1014,3 hPa 0,0 l/m 6,5 km/h (2 Bft) O-NO 74 0 min 0,000 mm 0,0 UV-I 53 W/m 7,5 C 10,8 C 8,0 km/h (2 Bft) 96,30 %
22.11.2017 15:32 10,6 C 5,0 C 81 % 1014,3 hPa 0,0 l/m 6,1 km/h (2 Bft) O-NO 77 0 min 0,000 mm 0,0 UV-I 51 W/m 7,5 C 10,6 C 8,0 km/h (2 Bft) 98,57 %
22.11.2017 15:34 10,6 C 5,0 C 81 % 1014,3 hPa 0,0 l/m 6,7 km/h (2 Bft) O-NO 69 0 min 0,000 mm 0,0 UV-I 47 W/m 7,5 C 10,4 C 8,0 km/h (2 Bft) 97,73 %
22.11.2017 15:36 10,6 C 5,0 C 81 % 1014,4 hPa 0,0 l/m 4,1 km/h (1 Bft) O-NO 61 0 min 0,000 mm 0,0 UV-I 43 W/m 7,5 C 10,6 C 6,4 km/h (2 Bft) 94,64 %
22.11.2017 15:38 10,5 C 5,0 C 81 % 1014,4 hPa 0,0 l/m 3,4 km/h (1 Bft) O-NO 61 0 min 0,000 mm 0,0 UV-I 37 W/m 7,4 C 10,5 C 4,8 km/h (1 Bft) 94,87 %
22.11.2017 15:40 10,4 C 5,0 C 81 % 1014,4 hPa 0,0 l/m 4,2 km/h (1 Bft) O-NO 71 0 min 0,000 mm 0,0 UV-I 35 W/m 7,3 C 10,4 C 6,4 km/h (2 Bft) 97,87 %
22.11.2017 15:42 10,2 C 5,0 C 82 % 1014,4 hPa 0,0 l/m 3,6 km/h (1 Bft) O-NO 71 0 min 0,000 mm 0,0 UV-I 33 W/m 7,3 C 10,2 C 4,8 km/h (1 Bft) 96,23 %
22.11.2017 15:44 10,2 C 5,0 C 82 % 1014,4 hPa 0,0 l/m 4,1 km/h (1 Bft) O-NO 71 0 min 0,000 mm 0,0 UV-I 31 W/m 7,3 C 10,2 C 6,4 km/h (2 Bft) 98,00 %
22.11.2017 15:46 10,1 C 5,0 C 82 % 1014,3 hPa 0,0 l/m 3,7 km/h (1 Bft) O-NO 71 0 min 0,000 mm 0,0 UV-I 29 W/m 7,2 C 10,1 C 4,8 km/h (1 Bft) 97,37 %
22.11.2017 15:48 9,9 C 5,0 C 83 % 1014,4 hPa 0,0 l/m 2,4 km/h (1 Bft) O-NO 71 0 min 0,000 mm 0,0 UV-I 26 W/m 7,2 C 9,9 C 4,8 km/h (1 Bft) 98,11 %
22.11.2017 15:50 9,7 C 5,0 C 84 % 1014,3 hPa 0,0 l/m 2,3 km/h (1 Bft) O-NO 71 0 min 0,000 mm 0,0 UV-I 27 W/m 7,1 C 9,7 C 3,2 km/h (1 Bft) 96,00 %
22.11.2017 15:52 9,4 C 5,0 C 84 % 1014,3 hPa 0,0 l/m 3,4 km/h (1 Bft) O-NO 71 0 min 0,000 mm 0,0 UV-I 28 W/m 6,8 C 9,4 C 4,8 km/h (1 Bft) 100,00 %
22.11.2017 15:54 9,0 C 5,0 C 86 % 1014,4 hPa 0,0 l/m 1,6 km/h (1 Bft) O-NO 71 2 min 0,000 mm 0,0 UV-I 27 W/m 6,8 C 9,0 C 3,2 km/h (1 Bft) 96,00 %
22.11.2017 15:56 8,9 C 5,0 C 87 % 1014,3 hPa 0,0 l/m 2,2 km/h (1 Bft) O-NO 71 2 min 0,000 mm 0,0 UV-I 29 W/m 6,9 C 8,9 C 3,2 km/h (1 Bft) 97,73 %
22.11.2017 15:58 8,7 C 5,0 C 87 % 1014,3 hPa 0,0 l/m 4,7 km/h (1 Bft) O-NO 71 2 min 0,000 mm 0,0 UV-I 33 W/m 6,7 C 8,7 C 6,4 km/h (2 Bft) 98,11 %
22.11.2017 16:00 8,5 C 5,0 C 88 % 1014,3 hPa 0,0 l/m 2,6 km/h (1 Bft) O-NO 71 2 min 0,025 mm 0,0 UV-I 32 W/m 6,6 C 8,5 C 4,8 km/h (1 Bft) 98,00 %
22.11.2017 16:02 8,5 C 5,0 C 89 % 1014,3 hPa 0,0 l/m 1,5 km/h (1 Bft) O-NO 71 2 min 0,000 mm 0,0 UV-I 29 W/m 6,8 C 8,5 C 4,8 km/h (1 Bft) 97,37 %
22.11.2017 16:04 8,5 C 5,0 C 88 % 1014,3 hPa 0,0 l/m 3,6 km/h (1 Bft) O-NO 71 2 min 0,000 mm 0,0 UV-I 27 W/m 6,6 C 8,5 C 4,8 km/h (1 Bft) 98,21 %
22.11.2017 16:06 8,3 C 5,0 C 88 % 1014,2 hPa 0,0 l/m 2,3 km/h (1 Bft) O-NO 71 2 min 0,000 mm 0,0 UV-I 18 W/m 6,4 C 8,3 C 3,2 km/h (1 Bft) 97,87 %
22.11.2017 16:08 8,1 C 5,0 C 89 % 1014,2 hPa 0,0 l/m 1,4 km/h (1 Bft) O-NO 71 0 min 0,000 mm 0,0 UV-I 12 W/m 6,4 C 8,1 C 3,2 km/h (1 Bft) 97,37 %
22.11.2017 16:10 8,1 C 5,0 C 90 % 1014,3 hPa 0,0 l/m 1,0 km/h (0 Bft) O-NO 71 0 min 0,000 mm 0,0 UV-I 7 W/m 6,6 C 8,1 C 3,2 km/h (1 Bft) 97,87 %
22.11.2017 16:12 8,0 C 5,0 C 91 % 1014,2 hPa 0,0 l/m 2,6 km/h (1 Bft) O-NO 71 0 min 0,000 mm 0,0 UV-I 18 W/m 6,6 C 8,0 C 4,8 km/h (1 Bft) 96,23 %
22.11.2017 16:14 7,9 C 5,0 C 90 % 1014,2 hPa 0,0 l/m 2,1 km/h (1 Bft) O-NO 71 0 min 0,000 mm 0,0 UV-I 14 W/m 6,4 C 7,9 C 3,2 km/h (1 Bft) 97,87 %
22.11.2017 16:16 7,8 C 5,0 C 91 % 1014,3 hPa 0,0 l/m 1,8 km/h (1 Bft) O-NO 71 0 min 0,000 mm 0,0 UV-I 12 W/m 6,4 C 7,8 C 4,8 km/h (1 Bft) 95,24 %
22.11.2017 16:18 7,6 C 5,0 C 91 % 1014,3 hPa 0,0 l/m 2,9 km/h (1 Bft) O-NO 71 0 min 0,000 mm 0,0 UV-I 11 W/m 6,2 C 7,6 C 4,8 km/h (1 Bft) 97,87 %
22.11.2017 16:20 7,4 C 5,0 C 92 % 1014,3 hPa 0,0 l/m 0,4 km/h (0 Bft) O-NO 71 0 min 0,000 mm 0,0 UV-I 10 W/m 6,2 C 7,4 C 1,6 km/h (1 Bft) 97,87 %
22.11.2017 16:22 7,4 C 5,0 C 92 % 1014,3 hPa 0,0 l/m 0,5 km/h (0 Bft) O-NO 71 0 min 0,000 mm 0,0 UV-I 9 W/m 6,2 C 7,4 C 1,6 km/h (1 Bft) 97,87 %
22.11.2017 16:24 7,4 C 5,0 C 92 % 1014,3 hPa 0,0 l/m 2,7 km/h (1 Bft) O-NO 71 0 min 0,000 mm 0,0 UV-I 9 W/m 6,2 C 7,4 C 3,2 km/h (1 Bft) 100,00 %
22.11.2017 16:26 7,3 C 5,0 C 92 % 1014,3 hPa 0,0 l/m 1,6 km/h (1 Bft) O-NO 71 0 min 0,000 mm 0,0 UV-I 8 W/m 6,1 C 7,3 C 4,8 km/h (1 Bft) 100,00 %
22.11.2017 16:28 7,3 C 5,0 C 93 % 1014,3 hPa 0,0 l/m 1,7 km/h (1 Bft) O-NO 71 0 min 0,000 mm 0,0 UV-I 7 W/m 6,2 C 7,3 C 3,2 km/h (1 Bft) 100,00 %
22.11.2017 16:30 7,3 C 5,0 C 93 % 1014,3 hPa 0,0 l/m 3,3 km/h (1 Bft) O-NO 71 0 min 0,000 mm 0,0 UV-I 7 W/m 6,2 C 7,3 C 4,8 km/h (1 Bft) 100,00 %
22.11.2017 16:32 7,3 C 5,0 C 92 % 1014,3 hPa 0,0 l/m 0,2 km/h (0 Bft) O-NO 71 0 min 0,000 mm 0,0 UV-I 5 W/m 6,1 C 7,3 C 1,6 km/h (1 Bft) 98,00 %
22.11.2017 16:34 7,2 C 5,0 C 92 % 1014,3 hPa 0,0 l/m 2,6 km/h (1 Bft) O-NO 71 0 min 0,000 mm 0,0 UV-I 5 W/m 6,0 C 7,2 C 4,8 km/h (1 Bft) 100,00 %
22.11.2017 16:36 7,1 C 5,0 C 93 % 1014,3 hPa 0,0 l/m 4,9 km/h (1 Bft) SO 130 0 min 0,000 mm 0,0 UV-I 5 W/m 6,0 C 7,1 C 8,0 km/h (2 Bft) 100,00 %
22.11.2017 16:38 6,9 C 5,0 C 92 % 1014,2 hPa 0,0 l/m 3,9 km/h (1 Bft) SO 130 0 min 0,000 mm 0,0 UV-I 2 W/m 5,7 C 6,9 C 6,4 km/h (2 Bft) 98,00 %
22.11.2017 16:40 6,6 C 5,0 C 92 % 1014,3 hPa 0,0 l/m 3,5 km/h (1 Bft) SO 130 0 min 0,000 mm 0,0 UV-I 0 W/m 5,4 C 6,6 C 4,8 km/h (1 Bft) 100,00 %
22.11.2017 16:42 6,8 C 5,0 C 94 % 1014,2 hPa 0,0 l/m 4,8 km/h (1 Bft) O-SO 104 0 min 0,000 mm 0,0 UV-I 0 W/m 5,9 C 6,8 C 9,7 km/h (2 Bft) 100,00 %
22.11.2017 16:44 6,8 C 5,0 C 93 % 1014,2 hPa 0,0 l/m 5,0 km/h (1 Bft) SO 125 0 min 0,000 mm 0,0 UV-I 0 W/m 5,7 C 6,8 C 6,4 km/h (2 Bft) 100,00 %
22.11.2017 16:46 6,8 C 5,0 C 92 % 1014,2 hPa 0,0 l/m 3,8 km/h (1 Bft) O 98 0 min 0,000 mm 0,0 UV-I 0 W/m 5,6 C 6,8 C 6,4 km/h (2 Bft) 98,00 %
22.11.2017 16:48 7,0 C 5,0 C 92 % 1014,2 hPa 0,0 l/m 4,9 km/h (1 Bft) O 98 0 min 0,000 mm 0,0 UV-I 0 W/m 5,8 C 7,0 C 6,4 km/h (2 Bft) 98,00 %
22.11.2017 16:50 7,0 C 5,0 C 92 % 1014,2 hPa 0,0 l/m 2,2 km/h (1 Bft) O 98 0 min 0,000 mm 0,0 UV-I 0 W/m 5,8 C 7,0 C 4,8 km/h (1 Bft) 100,00 %
22.11.2017 16:52 6,9 C 5,0 C 92 % 1014,1 hPa 0,0 l/m 5,8 km/h (2 Bft) O 88 0 min 0,000 mm 0,0 UV-I 0 W/m 5,7 C 6,9 C 11,3 km/h (2 Bft) 100,00 %
22.11.2017 16:54 7,2 C 5,0 C 93 % 1014,2 hPa 0,0 l/m 4,5 km/h (1 Bft) O 96 0 min 0,000 mm 0,0 UV-I 0 W/m 6,1 C 7,2 C 6,4 km/h (2 Bft) 97,87 %
22.11.2017 16:56 7,2 C 5,0 C 92 % 1014,2 hPa 0,0 l/m 2,7 km/h (1 Bft) O 96 0 min 0,000 mm 0,0 UV-I 0 W/m 6,0 C 7,2 C 4,8 km/h (1 Bft) 100,00 %
22.11.2017 16:58 7,1 C 5,0 C 92 % 1014,2 hPa 0,0 l/m 2,0 km/h (1 Bft) O 96 0 min 0,000 mm 0,0 UV-I 0 W/m 5,9 C 7,1 C 3,2 km/h (1 Bft) 100,00 %
22.11.2017 17:00 6,9 C 5,0 C 92 % 1014,1 hPa 0,0 l/m 0,6 km/h (0 Bft) O 96 0 min 0,000 mm 0,0 UV-I 0 W/m 5,7 C 6,9 C 3,2 km/h (1 Bft) 100,00 %
22.11.2017 17:02 6,8 C 5,0 C 92 % 1014,2 hPa 0,0 l/m 2,7 km/h (1 Bft) O 96 0 min 0,000 mm 0,0 UV-I 0 W/m 5,6 C 6,8 C 4,8 km/h (1 Bft) 100,00 %
22.11.2017 17:04 6,8 C 5,0 C 93 % 1014,1 hPa 0,0 l/m 1,4 km/h (1 Bft) O 96 0 min 0,000 mm 0,0 UV-I 0 W/m 5,7 C 6,8 C 3,2 km/h (1 Bft) 100,00 %
22.11.2017 17:06 6,8 C 5,0 C 92 % 1014,1 hPa 0,0 l/m 0,2 km/h (0 Bft) O 96 0 min 0,000 mm 0,0 UV-I 0 W/m 5,6 C 6,8 C 1,6 km/h (1 Bft) 97,87 %
22.11.2017 17:08 6,9 C 5,0 C 92 % 1014,1 hPa 0,0 l/m 0,0 km/h (0 Bft) O 96 0 min 0,000 mm 0,0 UV-I 0 W/m 5,7 C 6,9 C 1,6 km/h (1 Bft) 98,00 %
22.11.2017 17:10 6,7 C 5,0 C 92 % 1014,1 hPa 0,0 l/m 0,0 km/h (0 Bft) O 96 0 min 0,000 mm 0,0 UV-I 0 W/m 5,5 C 6,7 C 0,0 km/h (0 Bft) 100,00 %
22.11.2017 17:12 6,7 C 5,0 C 93 % 1014,1 hPa 0,0 l/m 0,0 km/h (0 Bft) O 96 0 min 0,000 mm 0,0 UV-I 0 W/m 5,6 C 6,7 C 0,0 km/h (0 Bft) 100,00 %
22.11.2017 17:14 6,5 C 5,0 C 92 % 1014,2 hPa 0,0 l/m 0,9 km/h (0 Bft) O 96 0 min 0,000 mm 0,0 UV-I 0 W/m 5,3 C 6,5 C 3,2 km/h (1 Bft) 97,87 %
22.11.2017 17:16 6,3 C 5,0 C 93 % 1014,2 hPa 0,0 l/m 3,3 km/h (1 Bft) O 96 0 min 0,000 mm 0,0 UV-I 0 W/m 5,3 C 6,3 C 4,8 km/h (1 Bft) 100,00 %
22.11.2017 17:18 6,2 C 5,0 C 93 % 1014,1 hPa 0,0 l/m 2,6 km/h (1 Bft) O 96 0 min 0,000 mm 0,0 UV-I 0 W/m 5,2 C 6,2 C 4,8 km/h (1 Bft) 97,37 %
22.11.2017 17:20 5,9 C 5,0 C 93 % 1014,1 hPa 0,0 l/m 0,6 km/h (0 Bft) O 96 0 min 0,000 mm 0,0 UV-I 0 W/m 4,9 C 5,9 C 3,2 km/h (1 Bft) 100,00 %
22.11.2017 17:22 5,8 C 5,0 C 94 % 1014,2 hPa 0,0 l/m 0,0 km/h (0 Bft) O 96 0 min 0,000 mm 0,0 UV-I 0 W/m 4,9 C 5,8 C 0,0 km/h (0 Bft) 100,00 %
22.11.2017 17:24 5,9 C 5,0 C 94 % 1014,2 hPa 0,0 l/m 0,2 km/h (0 Bft) O 96 0 min 0,000 mm 0,0 UV-I 0 W/m 5,0 C 5,9 C 3,2 km/h (1 Bft) 100,00 %
22.11.2017 17:26 5,9 C 5,0 C 94 % 1014,2 hPa 0,0 l/m 2,5 km/h (1 Bft) O 96 0 min 0,000 mm 0,0 UV-I 0 W/m 5,0 C 5,9 C 3,2 km/h (1 Bft) 100,00 %
22.11.2017 17:28 5,9 C 5,0 C 94 % 1014,2 hPa 0,0 l/m 0,7 km/h (0 Bft) O 96 0 min 0,000 mm 0,0 UV-I 0 W/m 5,0 C 5,9 C 1,6 km/h (1 Bft) 100,00 %
22.11.2017 17:30 5,8 C 5,0 C 94 % 1014,2 hPa 0,0 l/m 1,1 km/h (1 Bft) O 96 0 min 0,000 mm 0,0 UV-I 0 W/m 4,9 C 5,8 C 3,2 km/h (1 Bft) 100,00 %
22.11.2017 17:32 5,8 C 5,0 C 95 % 1014,2 hPa 0,0 l/m 0,1 km/h (0 Bft) O 96 0 min 0,000 mm 0,0 UV-I 0 W/m 5,1 C 5,8 C 1,6 km/h (1 Bft) 100,00 %
22.11.2017 17:34 5,8 C 5,0 C 95 % 1014,2 hPa 0,0 l/m 1,5 km/h (1 Bft) O 96 0 min 0,000 mm 0,0 UV-I 0 W/m 5,1 C 5,8 C 3,2 km/h (1 Bft) 100,00 %
22.11.2017 17:36 5,8 C 5,0 C 95 % 1014,2 hPa 0,0 l/m 0,0 km/h (0 Bft) O 96 0 min 0,000 mm 0,0 UV-I 0 W/m 5,1 C 5,8 C 0,0 km/h (0 Bft) 100,00 %
22.11.2017 17:38 5,9 C 5,0 C 95 % 1014,2 hPa 0,0 l/m 0,0 km/h (0 Bft) O 96 0 min 0,000 mm 0,0 UV-I 0 W/m 5,2 C 5,9 C 0,0 km/h (0 Bft) 97,87 %
22.11.2017 17:40 6,1 C 5,0 C 95 % 1014,2 hPa 0,0 l/m 0,3 km/h (0 Bft) O 96 0 min 0,000 mm 0,0 UV-I 0 W/m 5,4 C 6,1 C 3,2 km/h (1 Bft) 97,37 %
22.11.2017 17:42 6,5 C 5,0 C 96 % 1014,2 hPa 0,0 l/m 1,9 km/h (1 Bft) O 96 0 min 0,000 mm 0,0 UV-I 0 W/m 5,9 C 6,5 C 4,8 km/h (1 Bft) 98,11 %
22.11.2017 17:44 6,6 C 5,0 C 95 % 1014,2 hPa 0,0 l/m 2,8 km/h (1 Bft) O 96 0 min 0,000 mm 0,0 UV-I 0 W/m 5,9 C 6,6 C 4,8 km/h (1 Bft) 96,23 %
22.11.2017 17:46 6,7 C 5,0 C 95 % 1014,2 hPa 0,0 l/m 2,2 km/h (1 Bft) O 96 0 min 0,000 mm 0,0 UV-I 0 W/m 6,0 C 6,7 C 4,8 km/h (1 Bft) 100,00 %
22.11.2017 17:48 6,5 C 5,0 C 93 % 1014,2 hPa 0,0 l/m 1,9 km/h (1 Bft) O 96 0 min 0,000 mm 0,0 UV-I 0 W/m 5,5 C 6,5 C 3,2 km/h (1 Bft) 96,23 %
22.11.2017 17:50 6,4 C 5,0 C 93 % 1014,2 hPa 0,0 l/m 2,0 km/h (1 Bft) O 96 0 min 0,000 mm 0,0 UV-I 0 W/m 5,4 C 6,4 C 4,8 km/h (1 Bft) 97,56 %
22.11.2017 17:52 6,0 C 5,0 C 92 % 1014,2 hPa 0,0 l/m 2,2 km/h (1 Bft) O 96 0 min 0,000 mm 0,0 UV-I 0 W/m 4,8 C 6,0 C 3,2 km/h (1 Bft) 97,87 %
22.11.2017 17:54 5,8 C 5,0 C 93 % 1014,1 hPa 0,0 l/m 4,0 km/h (1 Bft) O 100 0 min 0,000 mm 0,0 UV-I 0 W/m 4,8 C 5,8 C 6,4 km/h (2 Bft) 98,11 %
22.11.2017 17:56 5,8 C 5,0 C 94 % 1014,1 hPa 0,0 l/m 2,9 km/h (1 Bft) O-SO 103 0 min 0,000 mm 0,0 UV-I 0 W/m 4,9 C 5,8 C 6,4 km/h (2 Bft) 97,87 %
22.11.2017 17:58 5,7 C 5,0 C 93 % 1014,1 hPa 0,0 l/m 2,7 km/h (1 Bft) O-SO 103 0 min 0,000 mm 0,0 UV-I 0 W/m 4,7 C 5,7 C 4,8 km/h (1 Bft) 97,56 %
22.11.2017 18:00 5,8 C 5,0 C 94 % 1014,1 hPa 0,0 l/m 2,3 km/h (1 Bft) O-SO 104 0 min 0,000 mm 0,0 UV-I 0 W/m 4,9 C 5,8 C 4,8 km/h (1 Bft) 95,74 %
22.11.2017 18:02 5,7 C 5,0 C 94 % 1014,2 hPa 0,0 l/m 1,8 km/h (1 Bft) O-SO 104 0 min 0,000 mm 0,0 UV-I 0 W/m 4,8 C 5,7 C 3,2 km/h (1 Bft) 98,21 %
22.11.2017 18:04 5,6 C 5,0 C 94 % 1014,1 hPa 0,0 l/m 3,2 km/h (1 Bft) SO 134 0 min 0,000 mm 0,0 UV-I 0 W/m 4,7 C 5,6 C 6,4 km/h (2 Bft) 97,56 %
22.11.2017 18:06 5,3 C 5,0 C 94 % 1014,2 hPa 0,0 l/m 3,2 km/h (1 Bft) SO 134 0 min 0,000 mm 0,0 UV-I 0 W/m 4,4 C 5,3 C 4,8 km/h (1 Bft) 97,87 %
22.11.2017 18:08 5,1 C 5,0 C 94 % 1014,2 hPa 0,0 l/m 1,7 km/h (1 Bft) SO 134 0 min 0,000 mm 0,0 UV-I 0 W/m 4,2 C 5,1 C 3,2 km/h (1 Bft) 96,00 %
22.11.2017 18:10 5,1 C 5,0 C 95 % 1014,2 hPa 0,0 l/m 1,1 km/h (1 Bft) SO 134 0 min 0,000 mm 0,0 UV-I 0 W/m 4,4 C 5,1 C 1,6 km/h (1 Bft) 95,74 %
22.11.2017 18:12 5,0 C 5,0 C 95 % 1014,1 hPa 0,0 l/m 2,3 km/h (1 Bft) SO 134 0 min 0,000 mm 0,0 UV-I 0 W/m 4,3 C 5,0 C 4,8 km/h (1 Bft) 96,00 %
22.11.2017 18:14 5,2 C 5,0 C 96 % 1014,1 hPa 0,0 l/m 2,8 km/h (1 Bft) SO 134 0 min 0,000 mm 0,0 UV-I 0 W/m 4,6 C 5,2 C 4,8 km/h (1 Bft) 94,74 %
22.11.2017 18:16 5,2 C 5,0 C 95 % 1014,1 hPa 0,0 l/m 2,3 km/h (1 Bft) SO 134 0 min 0,000 mm 0,0 UV-I 0 W/m 4,5 C 5,2 C 4,8 km/h (1 Bft) 98,00 %
22.11.2017 18:18 5,2 C 5,0 C 95 % 1014,1 hPa 0,0 l/m 2,3 km/h (1 Bft) SO 134 0 min 0,000 mm 0,0 UV-I 0 W/m 4,5 C 5,2 C 4,8 km/h (1 Bft) 97,22 %
22.11.2017 18:20 5,4 C 5,0 C 96 % 1014,1 hPa 0,0 l/m 3,9 km/h (1 Bft) SO 134 0 min 0,000 mm 0,0 UV-I 0 W/m 4,8 C 5,4 C 6,4 km/h (2 Bft) 94,34 %
22.11.2017 18:22 5,5 C 5,0 C 96 % 1014,1 hPa 0,0 l/m 2,2 km/h (1 Bft) SO 134 0 min 0,000 mm 0,0 UV-I 0 W/m 4,9 C 5,5 C 3,2 km/h (1 Bft) 96,00 %
22.11.2017 18:24 5,3 C 5,0 C 95 % 1014,1 hPa 0,0 l/m 3,3 km/h (1 Bft) SO 134 0 min 0,000 mm 0,0 UV-I 0 W/m 4,6 C 5,3 C 4,8 km/h (1 Bft) 96,00 %
22.11.2017 18:26 5,1 C 5,0 C 95 % 1014,0 hPa 0,0 l/m 4,2 km/h (1 Bft) SO 134 0 min 0,000 mm 0,0 UV-I 0 W/m 4,4 C 5,1 C 6,4 km/h (2 Bft) 94,00 %
22.11.2017 18:28 5,4 C 5,0 C 96 % 1014,0 hPa 0,0 l/m 4,1 km/h (1 Bft) SO 135 0 min 0,000 mm 0,0 UV-I 0 W/m 4,8 C 5,4 C 6,4 km/h (2 Bft) 100,00 %
22.11.2017 18:30 5,3 C 5,0 C 96 % 1014,0 hPa 0,0 l/m 2,1 km/h (1 Bft) SO 135 0 min 0,000 mm 0,0 UV-I 0 W/m 4,7 C 5,3 C 6,4 km/h (2 Bft) 92,00 %
22.11.2017 18:32 5,1 C 5,0 C 95 % 1014,0 hPa 0,0 l/m 0,9 km/h (0 Bft) SO 135 0 min 0,000 mm 0,0 UV-I 0 W/m 4,4 C 5,1 C 3,2 km/h (1 Bft) 94,74 %
22.11.2017 18:34 4,9 C 5,0 C 95 % 1014,0 hPa 0,0 l/m 3,1 km/h (1 Bft) SO 135 0 min 0,000 mm 0,0 UV-I 0 W/m 4,2 C 4,9 C 4,8 km/h (1 Bft) 96,61 %
22.11.2017 18:36 4,9 C 5,0 C 95 % 1014,0 hPa 0,0 l/m 3,6 km/h (1 Bft) SO 135 0 min 0,000 mm 0,0 UV-I 0 W/m 4,2 C 4,9 C 4,8 km/h (1 Bft) 91,43 %
22.11.2017 18:38 4,7 C 5,0 C 95 % 1014,0 hPa 0,0 l/m 3,0 km/h (1 Bft) SO 135 0 min 0,000 mm 0,0 UV-I 0 W/m 4,0 C 4,7 C 4,8 km/h (1 Bft) 93,88 %
22.11.2017 18:40 4,9 C 5,0 C 96 % 1014,0 hPa 0,0 l/m 1,0 km/h (0 Bft) SO 135 0 min 0,000 mm 0,0 UV-I 0 W/m 4,3 C 4,9 C 4,8 km/h (1 Bft) 95,35 %
22.11.2017 18:42 4,9 C 5,0 C 96 % 1014,0 hPa 0,0 l/m 0,7 km/h (0 Bft) SO 135 0 min 0,000 mm 0,0 UV-I 0 W/m 4,3 C 4,9 C 1,6 km/h (1 Bft) 94,34 %
22.11.2017 18:44 5,1 C 5,0 C 96 % 1014,0 hPa 0,0 l/m 0,0 km/h (0 Bft) SO 135 0 min 0,000 mm 0,0 UV-I 0 W/m 4,5 C 5,1 C 0,0 km/h (0 Bft) 95,74 %
22.11.2017 18:46 5,2 C 5,0 C 96 % 1014,0 hPa 0,0 l/m 0,0 km/h (0 Bft) SO 135 0 min 0,000 mm 0,0 UV-I 0 W/m 4,6 C 5,2 C 0,0 km/h (0 Bft) 92,59 %
22.11.2017 18:48 5,4 C 5,0 C 96 % 1014,0 hPa 0,0 l/m 1,7 km/h (1 Bft) SO 135 0 min 0,000 mm 0,0 UV-I 0 W/m 4,8 C 5,4 C 3,2 km/h (1 Bft) 95,31 %
22.11.2017 18:50 5,4 C 5,0 C 96 % 1014,0 hPa 0,0 l/m 3,7 km/h (1 Bft) SO 134 0 min 0,000 mm 0,0 UV-I 0 W/m 4,8 C 5,4 C 4,8 km/h (1 Bft) 95,74 %
22.11.2017 18:52 5,6 C 5,0 C 96 % 1014,0 hPa 0,0 l/m 2,8 km/h (1 Bft) SO 134 0 min 0,000 mm 0,0 UV-I 0 W/m 5,0 C 5,6 C 4,8 km/h (1 Bft) 94,34 %
22.11.2017 18:54 5,6 C 5,0 C 96 % 1014,0 hPa 0,0 l/m 1,1 km/h (1 Bft) SO 134 0 min 0,000 mm 0,0 UV-I 0 W/m 5,0 C 5,6 C 3,2 km/h (1 Bft) 94,87 %
22.11.2017 18:56 5,2 C 5,0 C 95 % 1014,0 hPa 0,0 l/m 2,2 km/h (1 Bft) SO 134 0 min 0,000 mm 0,0 UV-I 0 W/m 4,5 C 5,2 C 3,2 km/h (1 Bft) 97,87 %
22.11.2017 18:58 5,1 C 5,0 C 95 % 1014,0 hPa 0,0 l/m 0,5 km/h (0 Bft) SO 134 0 min 0,000 mm 0,0 UV-I 0 W/m 4,4 C 5,1 C 1,6 km/h (1 Bft) 97,96 %
22.11.2017 19:00 5,1 C 5,0 C 95 % 1014,0 hPa 0,0 l/m 0,0 km/h (0 Bft) SO 134 0 min 0,000 mm 0,0 UV-I 0 W/m 4,4 C 5,1 C 0,0 km/h (0 Bft) 94,64 %
22.11.2017 19:02 5,2 C 5,0 C 96 % 1014,0 hPa 0,0 l/m 0,0 km/h (0 Bft) SO 134 0 min 0,000 mm 0,0 UV-I 0 W/m 4,6 C 5,2 C 0,0 km/h (0 Bft) 95,74 %
22.11.2017 19:04 5,2 C 5,0 C 95 % 1014,0 hPa 0,0 l/m 0,0 km/h (0 Bft) SO 134 0 min 0,000 mm 0,0 UV-I 0 W/m 4,5 C 5,2 C 0,0 km/h (0 Bft) 100,00 %
22.11.2017 19:06 5,1 C 5,0 C 95 % 1013,9 hPa 0,0 l/m 0,0 km/h (0 Bft) SO 134 0 min 0,000 mm 0,0 UV-I 0 W/m 4,4 C 5,1 C 0,0 km/h (0 Bft) 100,00 %
22.11.2017 19:08 4,9 C 5,0 C 95 % 1014,0 hPa 0,0 l/m 0,0 km/h (0 Bft) SO 134 0 min 0,000 mm 0,0 UV-I 0 W/m 4,2 C 4,9 C 0,0 km/h (0 Bft) 98,00 %
22.11.2017 19:10 4,7 C 5,0 C 95 % 1013,9 hPa 0,0 l/m 1,1 km/h (1 Bft) SO 134 0 min 0,000 mm 0,0 UV-I 0 W/m 4,0 C 4,7 C 3,2 km/h (1 Bft) 100,00 %
22.11.2017 19:12 4,6 C 5,0 C 95 % 1013,9 hPa 0,0 l/m 1,5 km/h (1 Bft) SO 134 0 min 0,000 mm 0,0 UV-I 0 W/m 3,9 C 4,6 C 3,2 km/h (1 Bft) 100,00 %
22.11.2017 19:14 4,8 C 5,0 C 96 % 1013,9 hPa 0,0 l/m 0,7 km/h (0 Bft) SO 134 0 min 0,000 mm 0,0 UV-I 0 W/m 4,2 C 4,8 C 3,2 km/h (1 Bft) 100,00 %
22.11.2017 19:16 4,9 C 5,0 C 96 % 1013,9 hPa 0,0 l/m 0,0 km/h (0 Bft) SO 134 0 min 0,000 mm 0,0 UV-I 0 W/m 4,3 C 4,9 C 0,0 km/h (0 Bft) 97,87 %
22.11.2017 19:18 4,9 C 5,0 C 96 % 1013,8 hPa 0,0 l/m 0,0 km/h (0 Bft) SO 134 0 min 0,000 mm 0,0 UV-I 0 W/m 4,3 C 4,9 C 0,0 km/h (0 Bft) 97,87 %
22.11.2017 19:20 4,8 C 5,0 C 96 % 1013,9 hPa 0,0 l/m 0,0 km/h (0 Bft) SO 134 0 min 0,000 mm 0,0 UV-I 0 W/m 4,2 C 4,8 C 1,6 km/h (1 Bft) 97,37 %
22.11.2017 19:22 4,8 C 5,0 C 96 % 1013,8 hPa 0,0 l/m 0,0 km/h (0 Bft) SO 134 0 min 0,000 mm 0,0 UV-I 0 W/m 4,2 C 4,8 C 0,0 km/h (0 Bft) 100,00 %
22.11.2017 19:24 4,7 C 5,0 C 96 % 1013,8 hPa 0,0 l/m 0,0 km/h (0 Bft) SO 134 0 min 0,000 mm 0,0 UV-I 0 W/m 4,1 C 4,7 C 0,0 km/h (0 Bft) 98,00 %
22.11.2017 19:26 4,7 C 5,0 C 96 % 1013,8 hPa 0,0 l/m 1,6 km/h (1 Bft) SO 134 0 min 0,000 mm 0,0 UV-I 0 W/m 4,1 C 4,7 C 3,2 km/h (1 Bft) 97,87 %
22.11.2017 19:28 4,6 C 5,0 C 96 % 1013,9 hPa 0,0 l/m 2,6 km/h (1 Bft) SO 134 0 min 0,000 mm 0,0 UV-I 0 W/m 4,0 C 4,6 C 3,2 km/h (1 Bft) 97,44 %
22.11.2017 19:30 4,4 C 5,0 C 96 % 1013,8 hPa 0,0 l/m 3,8 km/h (1 Bft) S-SW 192 0 min 0,000 mm 0,0 UV-I 0 W/m 3,8 C 4,4 C 6,4 km/h (2 Bft) 100,00 %
22.11.2017 19:32 4,1 C 5,0 C 95 % 1013,9 hPa 0,0 l/m 4,9 km/h (1 Bft) S-SW 204 0 min 0,000 mm 0,0 UV-I 0 W/m 3,4 C 4,1 C 6,4 km/h (2 Bft) 98,00 %
22.11.2017 19:34 3,9 C 5,0 C 95 % 1013,8 hPa 0,0 l/m 4,5 km/h (1 Bft) S-SW 204 0 min 0,000 mm 0,0 UV-I 0 W/m 3,2 C 3,9 C 6,4 km/h (2 Bft) 100,00 %
22.11.2017 19:36 3,9 C 5,0 C 96 % 1013,8 hPa 0,0 l/m 4,5 km/h (1 Bft) S-SW 204 0 min 0,000 mm 0,0 UV-I 0 W/m 3,3 C 3,9 C 4,8 km/h (1 Bft) 100,00 %
22.11.2017 19:38 4,0 C 5,0 C 96 % 1013,9 hPa 0,0 l/m 4,6 km/h (1 Bft) S-SW 204 0 min 0,000 mm 0,0 UV-I 0 W/m 3,4 C 4,0 C 6,4 km/h (2 Bft) 97,92 %
22.11.2017 19:40 4,1 C 5,0 C 96 % 1013,8 hPa 0,0 l/m 4,7 km/h (1 Bft) S-SW 204 0 min 0,000 mm 0,0 UV-I 0 W/m 3,5 C 4,1 C 4,8 km/h (1 Bft) 100,00 %
22.11.2017 19:42 4,3 C 5,0 C 97 % 1013,8 hPa 0,0 l/m 4,1 km/h (1 Bft) S-SW 204 0 min 0,000 mm 0,0 UV-I 0 W/m 3,9 C 4,3 C 4,8 km/h (1 Bft) 100,00 %
22.11.2017 19:44 4,2 C 5,0 C 96 % 1013,7 hPa 0,0 l/m 2,9 km/h (1 Bft) S-SW 204 0 min 0,000 mm 0,0 UV-I 0 W/m 3,6 C 4,2 C 4,8 km/h (1 Bft) 100,00 %
22.11.2017 19:46 3,9 C 5,0 C 96 % 1013,7 hPa 0,0 l/m 2,8 km/h (1 Bft) S-SW 204 0 min 0,000 mm 0,0 UV-I 0 W/m 3,3 C 3,9 C 3,2 km/h (1 Bft) 100,00 %
22.11.2017 19:48 3,7 C 5,0 C 96 % 1013,7 hPa 0,0 l/m 1,5 km/h (1 Bft) S-SW 204 0 min 0,000 mm 0,0 UV-I 0 W/m 3,1 C 3,7 C 3,2 km/h (1 Bft) 100,00 %
22.11.2017 19:50 3,7 C 5,0 C 96 % 1013,7 hPa 0,0 l/m 0,7 km/h (0 Bft) S-SW 204 0 min 0,000 mm 0,0 UV-I 0 W/m 3,1 C 3,7 C 1,6 km/h (1 Bft) 98,39 %
22.11.2017 19:52 3,8 C 5,0 C 96 % 1013,7 hPa 0,0 l/m 0,0 km/h (0 Bft) S-SW 204 0 min 0,000 mm 0,0 UV-I 0 W/m 3,2 C 3,8 C 0,0 km/h (0 Bft) 100,00 %
22.11.2017 19:54 3,7 C 5,0 C 97 % 1013,6 hPa 0,0 l/m 0,1 km/h (0 Bft) S-SW 204 0 min 0,000 mm 0,0 UV-I 0 W/m 3,3 C 3,7 C 1,6 km/h (1 Bft) 100,00 %
22.11.2017 19:56 3,7 C 5,0 C 97 % 1013,7 hPa 0,0 l/m 0,0 km/h (0 Bft) S-SW 204 0 min 0,000 mm 0,0 UV-I 0 W/m 3,3 C 3,7 C 0,0 km/h (0 Bft) 100,00 %
22.11.2017 19:58 3,6 C 5,0 C 96 % 1013,6 hPa 0,0 l/m 0,7 km/h (0 Bft) S-SW 204 0 min 0,000 mm 0,0 UV-I 0 W/m 3,0 C 3,6 C 1,6 km/h (1 Bft) 95,74 %
22.11.2017 20:00 3,8 C 5,0 C 97 % 1013,6 hPa 0,0 l/m 0,0 km/h (0 Bft) S-SW 204 0 min 0,000 mm 0,0 UV-I 0 W/m 3,4 C 3,8 C 1,6 km/h (1 Bft) 100,00 %
22.11.2017 20:02 4,0 C 5,0 C 97 % 1013,6 hPa 0,0 l/m 3,0 km/h (1 Bft) S-SW 204 0 min 0,000 mm 0,0 UV-I 0 W/m 3,6 C 4,0 C 4,8 km/h (1 Bft) 100,00 %
22.11.2017 20:04 3,7 C 5,0 C 97 % 1013,7 hPa 0,0 l/m 5,3 km/h (1 Bft) S-SW 204 0 min 0,000 mm 0,0 UV-I 0 W/m 3,3 C 3,7 C 6,4 km/h (2 Bft) 100,00 %
22.11.2017 20:06 3,3 C 5,0 C 96 % 1013,6 hPa 0,0 l/m 5,5 km/h (1 Bft) S-SW 204 0 min 0,000 mm 0,0 UV-I 0 W/m 2,7 C 3,3 C 6,4 km/h (2 Bft) 100,00 %
22.11.2017 20:08 3,3 C 5,0 C 96 % 1013,6 hPa 0,0 l/m 6,4 km/h (2 Bft) S-SW 204 0 min 0,000 mm 0,0 UV-I 0 W/m 2,7 C 3,3 C 8,0 km/h (2 Bft) 98,00 %
22.11.2017 20:10 3,3 C 5,0 C 97 % 1013,6 hPa 0,0 l/m 5,6 km/h (1 Bft) S-SW 204 0 min 0,000 mm 0,0 UV-I 0 W/m 2,9 C 3,3 C 8,0 km/h (2 Bft) 100,00 %
22.11.2017 20:12 3,4 C 5,0 C 97 % 1013,6 hPa 0,0 l/m 4,6 km/h (1 Bft) S-SW 204 0 min 0,000 mm 0,0 UV-I 0 W/m 3,0 C 3,4 C 6,4 km/h (2 Bft) 100,00 %
22.11.2017 20:14 3,5 C 5,0 C 97 % 1013,6 hPa 0,0 l/m 4,5 km/h (1 Bft) S-SW 198 0 min 0,000 mm 0,0 UV-I 0 W/m 3,1 C 3,5 C 6,4 km/h (2 Bft) 100,00 %
22.11.2017 20:16 3,8 C 5,0 C 97 % 1013,6 hPa 0,0 l/m 2,2 km/h (1 Bft) S-SW 198 0 min 0,000 mm 0,0 UV-I 0 W/m 3,4 C 3,8 C 4,8 km/h (1 Bft) 100,00 %
22.11.2017 20:18 3,9 C 5,0 C 97 % 1013,6 hPa 0,0 l/m 2,3 km/h (1 Bft) S-SW 198 0 min 0,000 mm 0,0 UV-I 0 W/m 3,5 C 3,9 C 3,2 km/h (1 Bft) 100,00 %
22.11.2017 20:20 4,1 C 5,0 C 97 % 1013,6 hPa 0,0 l/m 3,2 km/h (1 Bft) S-SW 198 0 min 0,000 mm 0,0 UV-I 0 W/m 3,7 C 4,1 C 4,8 km/h (1 Bft) 100,00 %
22.11.2017 20:22 3,8 C 5,0 C 97 % 1013,7 hPa 0,0 l/m 2,5 km/h (1 Bft) S-SW 198 0 min 0,000 mm 0,0 UV-I 0 W/m 3,4 C 3,8 C 3,2 km/h (1 Bft) 98,00 %
22.11.2017 20:24 3,6 C 5,0 C 97 % 1013,7 hPa 0,0 l/m 3,0 km/h (1 Bft) S-SW 198 0 min 0,000 mm 0,0 UV-I 0 W/m 3,2 C 3,6 C 4,8 km/h (1 Bft) 100,00 %
22.11.2017 20:26 3,5 C 5,0 C 97 % 1013,7 hPa 0,0 l/m 2,8 km/h (1 Bft) S-SW 198 0 min 0,000 mm 0,0 UV-I 0 W/m 3,1 C 3,5 C 3,2 km/h (1 Bft) 100,00 %
22.11.2017 20:28 3,3 C 5,0 C 96 % 1013,7 hPa 0,0 l/m 1,6 km/h (1 Bft) S-SW 198 0 min 0,000 mm 0,0 UV-I 0 W/m 2,7 C 3,3 C 3,2 km/h (1 Bft) 100,00 %
22.11.2017 20:30 3,2 C 5,0 C 97 % 1013,6 hPa 0,0 l/m 2,0 km/h (1 Bft) S-SW 198 0 min 0,000 mm 0,0 UV-I 0 W/m 2,8 C 3,2 C 3,2 km/h (1 Bft) 96,00 %
22.11.2017 20:32 3,3 C 5,0 C 97 % 1013,6 hPa 0,0 l/m 0,7 km/h (0 Bft) S-SW 198 0 min 0,000 mm 0,0 UV-I 0 W/m 2,9 C 3,3 C 3,2 km/h (1 Bft) 97,37 %
22.11.2017 20:34 3,3 C 5,0 C 97 % 1013,6 hPa 0,0 l/m 0,0 km/h (0 Bft) S-SW 198 0 min 0,000 mm 0,0 UV-I 0 W/m 2,9 C 3,3 C 0,0 km/h (0 Bft) 98,00 %
22.11.2017 20:36 3,4 C 5,0 C 97 % 1013,6 hPa 0,0 l/m 0,0 km/h (0 Bft) S-SW 198 0 min 0,000 mm 0,0 UV-I 0 W/m 3,0 C 3,4 C 0,0 km/h (0 Bft) 100,00 %
22.11.2017 20:38 3,5 C 5,0 C 97 % 1013,5 hPa 0,0 l/m 0,0 km/h (0 Bft) S-SW 198 0 min 0,000 mm 0,0 UV-I 0 W/m 3,1 C 3,5 C 0,0 km/h (0 Bft) 100,00 %
22.11.2017 20:40 3,5 C 5,0 C 97 % 1013,5 hPa 0,0 l/m 0,7 km/h (0 Bft) S-SW 198 0 min 0,000 mm 0,0 UV-I 0 W/m 3,1 C 3,5 C 3,2 km/h (1 Bft) 100,00 %
22.11.2017 20:42 3,2 C 5,0 C 97 % 1013,5 hPa 0,0 l/m 1,4 km/h (1 Bft) S-SW 198 0 min 0,000 mm 0,0 UV-I 0 W/m 2,8 C 3,2 C 3,2 km/h (1 Bft) 100,00 %
22.11.2017 20:44 2,9 C 5,0 C 96 % 1013,5 hPa 0,0 l/m 0,0 km/h (0 Bft) S-SW 198 0 min 0,000 mm 0,0 UV-I 0 W/m 2,3 C 2,9 C 1,6 km/h (1 Bft) 100,00 %
22.11.2017 20:46 2,9 C 5,0 C 97 % 1013,5 hPa 0,0 l/m 0,0 km/h (0 Bft) S-SW 198 0 min 0,000 mm 0,0 UV-I 0 W/m 2,5 C 2,9 C 0,0 km/h (0 Bft) 100,00 %
22.11.2017 20:48 3,0 C 5,0 C 97 % 1013,5 hPa 0,0 l/m 0,6 km/h (0 Bft) S-SW 198 0 min 0,000 mm 0,0 UV-I 0 W/m 2,6 C 3,0 C 3,2 km/h (1 Bft) 100,00 %
22.11.2017 20:50 3,1 C 5,0 C 97 % 1013,4 hPa 0,0 l/m 0,5 km/h (0 Bft) S-SW 198 0 min 0,000 mm 0,0 UV-I 0 W/m 2,7 C 3,1 C 3,2 km/h (1 Bft) 94,00 %
22.11.2017 20:52 3,2 C 5,0 C 97 % 1013,4 hPa 0,0 l/m 0,0 km/h (0 Bft) S-SW 198 0 min 0,000 mm 0,0 UV-I 0 W/m 2,8 C 3,2 C 0,0 km/h (0 Bft) 100,00 %
22.11.2017 20:54 2,8 C 5,0 C 97 % 1013,4 hPa 0,0 l/m 0,0 km/h (0 Bft) S-SW 198 0 min 0,000 mm 0,0 UV-I 0 W/m 2,4 C 2,8 C 0,0 km/h (0 Bft) 98,00 %
22.11.2017 20:56 2,7 C 5,0 C 97 % 1013,4 hPa 0,0 l/m 0,0 km/h (0 Bft) S-SW 198 0 min 0,000 mm 0,0 UV-I 0 W/m 2,3 C 2,7 C 0,0 km/h (0 Bft) 96,15 %
22.11.2017 20:58 3,1 C 5,0 C 97 % 1013,4 hPa 0,0 l/m 0,0 km/h (0 Bft) S-SW 198 0 min 0,000 mm 0,0 UV-I 0 W/m 2,7 C 3,1 C 0,0 km/h (0 Bft) 97,62 %
22.11.2017 21:00 3,1 C 5,0 C 97 % 1013,4 hPa 0,0 l/m 0,4 km/h (0 Bft) S-SW 198 0 min 0,000 mm 0,0 UV-I 0 W/m 2,7 C 3,1 C 1,6 km/h (1 Bft) 97,87 %
22.11.2017 21:02 2,6 C 5,0 C 97 % 1013,4 hPa 0,0 l/m 0,0 km/h (0 Bft) S-SW 198 0 min 0,000 mm 0,0 UV-I 0 W/m 2,2 C 2,6 C 0,0 km/h (0 Bft) 96,23 %
22.11.2017 21:04 2,6 C 5,0 C 97 % 1013,4 hPa 0,0 l/m 1,0 km/h (0 Bft) S-SW 198 0 min 0,000 mm 0,0 UV-I 0 W/m 2,2 C 2,6 C 3,2 km/h (1 Bft) 94,74 %
22.11.2017 21:06 2,4 C 5,0 C 97 % 1013,4 hPa 0,0 l/m 2,3 km/h (1 Bft) S-SW 198 0 min 0,000 mm 0,0 UV-I 0 W/m 2,0 C 2,4 C 3,2 km/h (1 Bft) 96,00 %
22.11.2017 21:08 2,3 C 5,0 C 97 % 1013,5 hPa 0,0 l/m 3,9 km/h (1 Bft) S-SW 198 0 min 0,000 mm 0,0 UV-I 0 W/m 1,9 C 2,3 C 4,8 km/h (1 Bft) 98,11 %
22.11.2017 21:10 2,6 C 5,0 C 97 % 1013,5 hPa 0,0 l/m 2,5 km/h (1 Bft) S-SW 198 0 min 0,000 mm 0,0 UV-I 0 W/m 2,2 C 2,6 C 3,2 km/h (1 Bft) 95,74 %
22.11.2017 21:12 2,7 C 5,0 C 97 % 1013,6 hPa 0,0 l/m 1,5 km/h (1 Bft) S-SW 198 0 min 0,000 mm 0,0 UV-I 0 W/m 2,3 C 2,7 C 3,2 km/h (1 Bft) 96,55 %
22.11.2017 21:14 2,9 C 5,0 C 97 % 1013,6 hPa 0,0 l/m 0,7 km/h (0 Bft) S-SW 198 0 min 0,000 mm 0,0 UV-I 0 W/m 2,5 C 2,9 C 3,2 km/h (1 Bft) 98,39 %
22.11.2017 21:16 2,7 C 5,0 C 97 % 1013,6 hPa 0,0 l/m 0,3 km/h (0 Bft) S-SW 198 0 min 0,000 mm 0,0 UV-I 0 W/m 2,3 C 2,7 C 1,6 km/h (1 Bft) 98,00 %
22.11.2017 21:18 2,3 C 5,0 C 97 % 1013,6 hPa 0,0 l/m 0,3 km/h (0 Bft) S-SW 198 0 min 0,000 mm 0,0 UV-I 0 W/m 1,9 C 2,3 C 1,6 km/h (1 Bft) 97,37 %
22.11.2017 21:20 2,2 C 5,0 C 97 % 1013,6 hPa 0,0 l/m 1,6 km/h (1 Bft) S-SW 198 0 min 0,000 mm 0,0 UV-I 0 W/m 1,8 C 2,2 C 1,6 km/h (1 Bft) 98,00 %
22.11.2017 21:22 2,4 C 5,0 C 97 % 1013,5 hPa 0,0 l/m 2,0 km/h (1 Bft) S-SW 198 0 min 0,000 mm 0,0 UV-I 0 W/m 2,0 C 2,4 C 3,2 km/h (1 Bft) 95,74 %
22.11.2017 21:24 2,4 C 5,0 C 97 % 1013,6 hPa 0,0 l/m 1,9 km/h (1 Bft) S-SW 198 0 min 0,000 mm 0,0 UV-I 0 W/m 2,0 C 2,4 C 3,2 km/h (1 Bft) 96,00 %
22.11.2017 21:26 2,7 C 5,0 C 97 % 1013,7 hPa 0,0 l/m 0,5 km/h (0 Bft) S-SW 198 0 min 0,000 mm 0,0 UV-I 0 W/m 2,3 C 2,7 C 1,6 km/h (1 Bft) 94,74 %
22.11.2017 21:28 2,6 C 5,0 C 97 % 1013,6 hPa 0,0 l/m 0,1 km/h (0 Bft) S-SW 198 0 min 0,000 mm 0,0 UV-I 0 W/m 2,2 C 2,6 C 1,6 km/h (1 Bft) 97,87 %
22.11.2017 21:30 2,4 C 5,0 C 97 % 1013,6 hPa 0,0 l/m 1,2 km/h (1 Bft) S-SW 198 0 min 0,000 mm 0,0 UV-I 0 W/m 2,0 C 2,4 C 3,2 km/h (1 Bft) 95,74 %
22.11.2017 21:32 2,1 C 5,0 C 97 % 1013,6 hPa 0,0 l/m 1,7 km/h (1 Bft) S-SW 198 0 min 0,000 mm 0,0 UV-I 0 W/m 1,7 C 2,1 C 3,2 km/h (1 Bft) 97,22 %
22.11.2017 21:34 2,1 C 5,0 C 97 % 1013,6 hPa 0,0 l/m 0,1 km/h (0 Bft) S-SW 198 0 min 0,000 mm 0,0 UV-I 0 W/m 1,7 C 2,1 C 1,6 km/h (1 Bft) 98,44 %
22.11.2017 21:36 2,1 C 5,0 C 97 % 1013,5 hPa 0,0 l/m 0,0 km/h (0 Bft) S-SW 198 0 min 0,000 mm 0,0 UV-I 0 W/m 1,7 C 2,1 C 0,0 km/h (0 Bft) 97,87 %
22.11.2017 21:38 2,2 C 5,0 C 97 % 1013,5 hPa 0,0 l/m 0,0 km/h (0 Bft) S-SW 198 0 min 0,000 mm 0,0 UV-I 0 W/m 1,8 C 2,2 C 0,0 km/h (0 Bft) 98,00 %
22.11.2017 21:40 2,5 C 5,0 C 97 % 1013,4 hPa 0,0 l/m 0,0 km/h (0 Bft) S-SW 198 0 min 0,000 mm 0,0 UV-I 0 W/m 2,1 C 2,5 C 0,0 km/h (0 Bft) 97,37 %
22.11.2017 21:42 2,4 C 5,0 C 97 % 1013,4 hPa 0,0 l/m 0,0 km/h (0 Bft) S-SW 198 0 min 0,000 mm 0,0 UV-I 0 W/m 2,0 C 2,4 C 0,0 km/h (0 Bft) 100,00 %
22.11.2017 21:44 2,2 C 5,0 C 97 % 1013,4 hPa 0,0 l/m 0,6 km/h (0 Bft) S-SW 198 0 min 0,000 mm 0,0 UV-I 0 W/m 1,8 C 2,2 C 3,2 km/h (1 Bft) 100,00 %
22.11.2017 21:46 2,2 C 5,0 C 97 % 1013,5 hPa 0,0 l/m 2,7 km/h (1 Bft) S-SW 198 0 min 0,000 mm 0,0 UV-I 0 W/m 1,8 C 2,2 C 3,2 km/h (1 Bft) 97,73 %
22.11.2017 21:48 2,7 C 5,0 C 97 % 1013,4 hPa 0,0 l/m 1,4 km/h (1 Bft) S-SW 198 0 min 0,000 mm 0,0 UV-I 0 W/m 2,3 C 2,7 C 1,6 km/h (1 Bft) 97,87 %
22.11.2017 21:50 3,1 C 5,0 C 97 % 1013,5 hPa 0,0 l/m 0,2 km/h (0 Bft) S-SW 198 0 min 0,000 mm 0,0 UV-I 0 W/m 2,7 C 3,1 C 1,6 km/h (1 Bft) 100,00 %
22.11.2017 21:52 3,3 C 5,0 C 98 % 1013,5 hPa 0,0 l/m 0,0 km/h (0 Bft) S-SW 198 0 min 0,000 mm 0,0 UV-I 0 W/m 3,0 C 3,3 C 0,0 km/h (0 Bft) 100,00 %
22.11.2017 21:54 3,3 C 5,0 C 98 % 1013,4 hPa 0,0 l/m 0,0 km/h (0 Bft) S-SW 198 0 min 0,000 mm 0,0 UV-I 0 W/m 3,0 C 3,3 C 0,0 km/h (0 Bft) 98,11 %
22.11.2017 21:56 3,1 C 5,0 C 98 % 1013,5 hPa 0,0 l/m 0,0 km/h (0 Bft) S-SW 198 0 min 0,000 mm 0,0 UV-I 0 W/m 2,8 C 3,1 C 0,0 km/h (0 Bft) 100,00 %
22.11.2017 21:58 3,1 C 5,0 C 98 % 1013,4 hPa 0,0 l/m 0,0 km/h (0 Bft) S-SW 198 0 min 0,000 mm 0,0 UV-I 0 W/m 2,8 C 3,1 C 0,0 km/h (0 Bft) 96,00 %
22.11.2017 22:00 3,1 C 5,0 C 97 % 1013,5 hPa 0,0 l/m 1,5 km/h (1 Bft) S-SW 198 0 min 0,000 mm 0,0 UV-I 0 W/m 2,7 C 3,1 C 3,2 km/h (1 Bft) 98,00 %
22.11.2017 22:02 3,0 C 5,0 C 98 % 1013,4 hPa 0,0 l/m 0,5 km/h (0 Bft) S-SW 198 0 min 0,000 mm 0,0 UV-I 0 W/m 2,7 C 3,0 C 1,6 km/h (1 Bft) 94,74 %
22.11.2017 22:04 2,6 C 5,0 C 97 % 1013,5 hPa 0,0 l/m 0,1 km/h (0 Bft) S-SW 198 0 min 0,000 mm 0,0 UV-I 0 W/m 2,2 C 2,6 C 1,6 km/h (1 Bft) 96,00 %
22.11.2017 22:06 2,2 C 5,0 C 97 % 1013,5 hPa 0,0 l/m 0,0 km/h (0 Bft) S-SW 198 0 min 0,000 mm 0,0 UV-I 0 W/m 1,8 C 2,2 C 0,0 km/h (0 Bft) 98,00 %
22.11.2017 22:08 2,0 C 5,0 C 97 % 1013,5 hPa 0,0 l/m 0,0 km/h (0 Bft) S-SW 198 0 min 0,000 mm 0,0 UV-I 0 W/m 1,6 C 2,0 C 0,0 km/h (0 Bft) 97,56 %
22.11.2017 22:10 2,0 C 5,0 C 97 % 1013,5 hPa 0,0 l/m 0,0 km/h (0 Bft) S-SW 198 0 min 0,000 mm 0,0 UV-I 0 W/m 1,6 C 2,0 C 1,6 km/h (1 Bft) 96,00 %
22.11.2017 22:12 1,9 C 5,0 C 97 % 1013,5 hPa 0,0 l/m 0,0 km/h (0 Bft) S-SW 198 0 min 0,000 mm 0,0 UV-I 0 W/m 1,5 C 1,9 C 0,0 km/h (0 Bft) 98,00 %
22.11.2017 22:14 2,0 C 5,0 C 97 % 1013,5 hPa 0,0 l/m 0,0 km/h (0 Bft) S-SW 198 0 min 0,000 mm 0,0 UV-I 0 W/m 1,6 C 2,0 C 0,0 km/h (0 Bft) 95,74 %
22.11.2017 22:16 2,2 C 5,0 C 97 % 1013,5 hPa 0,0 l/m 0,0 km/h (0 Bft) S-SW 198 0 min 0,000 mm 0,0 UV-I 0 W/m 1,8 C 2,2 C 0,0 km/h (0 Bft) 94,87 %
22.11.2017 22:18 2,4 C 5,0 C 97 % 1013,5 hPa 0,0 l/m 0,0 km/h (0 Bft) S-SW 198 0 min 0,000 mm 0,0 UV-I 0 W/m 2,0 C 2,4 C 0,0 km/h (0 Bft) 98,00 %
22.11.2017 22:20 2,1 C 5,0 C 98 % 1013,5 hPa 0,0 l/m 0,0 km/h (0 Bft) S-SW 198 0 min 0,000 mm 0,0 UV-I 0 W/m 1,8 C 2,1 C 0,0 km/h (0 Bft) 98,11 %
22.11.2017 22:22 1,8 C 5,0 C 97 % 1013,5 hPa 0,0 l/m 0,0 km/h (0 Bft) S-SW 198 0 min 0,000 mm 0,0 UV-I 0 W/m 1,4 C 1,8 C 1,6 km/h (1 Bft) 95,12 %
22.11.2017 22:24 1,3 C 5,0 C 97 % 1013,5 hPa 0,0 l/m 1,2 km/h (1 Bft) S-SW 198 0 min 0,000 mm 0,0 UV-I 0 W/m 0,9 C 1,3 C 3,2 km/h (1 Bft) 96,36 %
22.11.2017 22:26 1,6 C 5,0 C 97 % 1013,5 hPa 0,0 l/m 0,0 km/h (0 Bft) S-SW 198 0 min 0,000 mm 0,0 UV-I 0 W/m 1,2 C 1,6 C 0,0 km/h (0 Bft) 100,00 %
22.11.2017 22:28 2,2 C 5,0 C 97 % 1013,5 hPa 0,0 l/m 0,0 km/h (0 Bft) S-SW 198 0 min 0,000 mm 0,0 UV-I 0 W/m 1,8 C 2,2 C 0,0 km/h (0 Bft) 93,62 %
22.11.2017 22:30 2,2 C 5,0 C 98 % 1013,5 hPa 0,0 l/m 0,0 km/h (0 Bft) S-SW 198 0 min 0,000 mm 0,0 UV-I 0 W/m 1,9 C 2,2 C 0,0 km/h (0 Bft) 97,87 %
22.11.2017 22:32 1,9 C 5,0 C 97 % 1013,6 hPa 0,0 l/m 0,0 km/h (0 Bft) S-SW 198 0 min 0,000 mm 0,0 UV-I 0 W/m 1,5 C 1,9 C 0,0 km/h (0 Bft) 96,00 %
22.11.2017 22:34 2,0 C 5,0 C 97 % 1013,5 hPa 0,0 l/m 1,2 km/h (1 Bft) S-SW 198 0 min 0,000 mm 0,0 UV-I 0 W/m 1,6 C 2,0 C 3,2 km/h (1 Bft) 98,00 %
22.11.2017 22:36 1,9 C 5,0 C 97 % 1013,6 hPa 0,0 l/m 0,1 km/h (0 Bft) S-SW 198 0 min 0,000 mm 0,0 UV-I 0 W/m 1,5 C 1,9 C 1,6 km/h (1 Bft) 97,56 %
22.11.2017 22:38 2,1 C 5,0 C 97 % 1013,6 hPa 0,0 l/m 0,0 km/h (0 Bft) S-SW 198 0 min 0,000 mm 0,0 UV-I 0 W/m 1,7 C 2,1 C 0,0 km/h (0 Bft) 98,00 %
22.11.2017 22:40 2,1 C 5,0 C 98 % 1013,5 hPa 0,0 l/m 0,0 km/h (0 Bft) S-SW 198 0 min 0,000 mm 0,0 UV-I 0 W/m 1,8 C 2,1 C 0,0 km/h (0 Bft) 97,87 %
22.11.2017 22:42 2,2 C 5,0 C 98 % 1013,5 hPa 0,0 l/m 0,0 km/h (0 Bft) S-SW 198 0 min 0,000 mm 0,0 UV-I 0 W/m 1,9 C 2,2 C 0,0 km/h (0 Bft) 98,00 %
22.11.2017 22:44 1,9 C 5,0 C 97 % 1013,4 hPa 0,0 l/m 0,0 km/h (0 Bft) S-SW 198 0 min 0,000 mm 0,0 UV-I 0 W/m 1,5 C 1,9 C 1,6 km/h (1 Bft) 89,47 %
22.11.2017 22:46 1,8 C 5,0 C 98 % 1013,5 hPa 0,0 l/m 1,9 km/h (1 Bft) S-SW 198 0 min 0,000 mm 0,0 UV-I 0 W/m 1,5 C 1,8 C 3,2 km/h (1 Bft) 98,11 %
22.11.2017 22:48 1,6 C 5,0 C 97 % 1013,4 hPa 0,0 l/m 1,6 km/h (1 Bft) S-SW 198 0 min 0,000 mm 0,0 UV-I 0 W/m 1,2 C 1,6 C 3,2 km/h (1 Bft) 96,00 %
22.11.2017 22:50 1,5 C 5,0 C 97 % 1013,4 hPa 0,0 l/m 1,1 km/h (1 Bft) S-SW 198 0 min 0,000 mm 0,0 UV-I 0 W/m 1,1 C 1,5 C 1,6 km/h (1 Bft) 92,68 %
22.11.2017 22:52 1,4 C 5,0 C 97 % 1013,4 hPa 0,0 l/m 0,6 km/h (0 Bft) S-SW 198 0 min 0,000 mm 0,0 UV-I 0 W/m 1,0 C 1,4 C 1,6 km/h (1 Bft) 100,00 %
22.11.2017 22:54 1,6 C 5,0 C 97 % 1013,3 hPa 0,0 l/m 0,0 km/h (0 Bft) S-SW 198 0 min 0,000 mm 0,0 UV-I 0 W/m 1,2 C 1,6 C 0,0 km/h (0 Bft) 97,37 %
22.11.2017 22:56 1,6 C 5,0 C 97 % 1013,3 hPa 0,0 l/m 0,0 km/h (0 Bft) S-SW 198 0 min 0,000 mm 0,0 UV-I 0 W/m 1,2 C 1,6 C 0,0 km/h (0 Bft) 97,87 %
22.11.2017 22:58 1,4 C 5,0 C 97 % 1013,3 hPa 0,0 l/m 0,0 km/h (0 Bft) S-SW 198 0 min 0,000 mm 0,0 UV-I 0 W/m 1,0 C 1,4 C 0,0 km/h (0 Bft) 97,87 %
22.11.2017 23:00 1,2 C 5,0 C 97 % 1013,3 hPa 0,0 l/m 0,0 km/h (0 Bft) S-SW 198 0 min 0,000 mm 0,0 UV-I 0 W/m 0,8 C 1,2 C 0,0 km/h (0 Bft) 96,23 %
22.11.2017 23:02 1,1 C 5,0 C 97 % 1013,3 hPa 0,0 l/m 0,0 km/h (0 Bft) S-SW 198 0 min 0,000 mm 0,0 UV-I 0 W/m 0,7 C 1,1 C 0,0 km/h (0 Bft) 98,00 %
22.11.2017 23:04 1,3 C 5,0 C 97 % 1013,3 hPa 0,0 l/m 1,6 km/h (1 Bft) S-SW 198 0 min 0,000 mm 0,0 UV-I 0 W/m 0,9 C 1,3 C 3,2 km/h (1 Bft) 97,87 %
22.11.2017 23:06 1,4 C 5,0 C 97 % 1013,3 hPa 0,0 l/m 1,5 km/h (1 Bft) S-SW 198 0 min 0,000 mm 0,0 UV-I 0 W/m 1,0 C 1,4 C 3,2 km/h (1 Bft) 97,37 %
22.11.2017 23:08 1,6 C 5,0 C 98 % 1013,3 hPa 0,0 l/m 1,4 km/h (1 Bft) S-SW 198 0 min 0,000 mm 0,0 UV-I 0 W/m 1,3 C 1,6 C 3,2 km/h (1 Bft) 100,00 %
22.11.2017 23:10 1,8 C 5,0 C 97 % 1013,2 hPa 0,0 l/m 1,9 km/h (1 Bft) S-SW 198 0 min 0,000 mm 0,0 UV-I 0 W/m 1,4 C 1,8 C 3,2 km/h (1 Bft) 100,00 %
22.11.2017 23:12 1,8 C 5,0 C 98 % 1013,3 hPa 0,0 l/m 0,2 km/h (0 Bft) S-SW 198 0 min 0,000 mm 0,0 UV-I 0 W/m 1,5 C 1,8 C 1,6 km/h (1 Bft) 100,00 %
22.11.2017 23:14 1,7 C 5,0 C 98 % 1013,3 hPa 0,0 l/m 0,0 km/h (0 Bft) S-SW 198 0 min 0,000 mm 0,0 UV-I 0 W/m 1,4 C 1,7 C 0,0 km/h (0 Bft) 100,00 %
22.11.2017 23:16 1,8 C 5,0 C 98 % 1013,2 hPa 0,0 l/m 0,0 km/h (0 Bft) S-SW 198 0 min 0,000 mm 0,0 UV-I 0 W/m 1,5 C 1,8 C 0,0 km/h (0 Bft) 100,00 %
22.11.2017 23:18 1,9 C 5,0 C 98 % 1013,2 hPa 0,0 l/m 0,0 km/h (0 Bft) S-SW 198 0 min 0,000 mm 0,0 UV-I 0 W/m 1,6 C 1,9 C 1,6 km/h (1 Bft) 100,00 %
22.11.2017 23:20 1,7 C 5,0 C 98 % 1013,2 hPa 0,0 l/m 0,0 km/h (0 Bft) S-SW 198 0 min 0,000 mm 0,0 UV-I 0 W/m 1,4 C 1,7 C 0,0 km/h (0 Bft) 98,21 %
22.11.2017 23:22 1,7 C 5,0 C 98 % 1013,2 hPa 0,0 l/m 0,0 km/h (0 Bft) S-SW 198 0 min 0,000 mm 0,0 UV-I 0 W/m 1,4 C 1,7 C 0,0 km/h (0 Bft) 100,00 %
22.11.2017 23:24 1,6 C 5,0 C 98 % 1013,2 hPa 0,0 l/m 0,0 km/h (0 Bft) S-SW 198 0 min 0,000 mm 0,0 UV-I 0 W/m 1,3 C 1,6 C 0,0 km/h (0 Bft) 100,00 %
22.11.2017 23:26 1,5 C 5,0 C 97 % 1013,2 hPa 0,0 l/m 0,0 km/h (0 Bft) S-SW 198 0 min 0,000 mm 0,0 UV-I 0 W/m 1,1 C 1,5 C 0,0 km/h (0 Bft) 96,23 %
22.11.2017 23:28 1,7 C 5,0 C 98 % 1013,2 hPa 0,0 l/m 0,0 km/h (0 Bft) S-SW 198 0 min 0,000 mm 0,0 UV-I 0 W/m 1,4 C 1,7 C 0,0 km/h (0 Bft) 96,00 %
22.11.2017 23:30 1,8 C 5,0 C 98 % 1013,2 hPa 0,0 l/m 0,0 km/h (0 Bft) S-SW 198 0 min 0,000 mm 0,0 UV-I 0 W/m 1,5 C 1,8 C 0,0 km/h (0 Bft) 97,87 %
22.11.2017 23:32 1,8 C 5,0 C 98 % 1013,2 hPa 0,0 l/m 0,0 km/h (0 Bft) S-SW 198 0 min 0,000 mm 0,0 UV-I 0 W/m 1,5 C 1,8 C 0,0 km/h (0 Bft) 97,44 %
22.11.2017 23:34 1,7 C 5,0 C 98 % 1013,2 hPa 0,0 l/m 0,0 km/h (0 Bft) S-SW 198 0 min 0,000 mm 0,0 UV-I 0 W/m 1,4 C 1,7 C 0,0 km/h (0 Bft) 95,74 %
22.11.2017 23:36 1,4 C 5,0 C 98 % 1013,3 hPa 0,0 l/m 0,0 km/h (0 Bft) S-SW 198 0 min 0,000 mm 0,0 UV-I 0 W/m 1,1 C 1,4 C 0,0 km/h (0 Bft) 97,87 %
22.11.2017 23:38 1,1 C 5,0 C 97 % 1013,3 hPa 0,0 l/m 0,0 km/h (0 Bft) S-SW 198 0 min 0,000 mm 0,0 UV-I 0 W/m 0,7 C 1,1 C 0,0 km/h (0 Bft) 97,87 %
22.11.2017 23:40 0,9 C 5,0 C 97 % 1013,3 hPa 0,0 l/m 0,7 km/h (0 Bft) S-SW 198 0 min 0,000 mm 0,0 UV-I 0 W/m 0,5 C 0,9 C 1,6 km/h (1 Bft) 96,00 %
22.11.2017 23:42 0,8 C 5,0 C 97 % 1013,4 hPa 0,0 l/m 1,7 km/h (1 Bft) S-SW 198 0 min 0,000 mm 0,0 UV-I 0 W/m 0,4 C 0,8 C 3,2 km/h (1 Bft) 98,00 %
22.11.2017 23:44 1,1 C 5,0 C 97 % 1013,4 hPa 0,0 l/m 2,6 km/h (1 Bft) S-SW 198 0 min 0,000 mm 0,0 UV-I 0 W/m 0,7 C 1,1 C 3,2 km/h (1 Bft) 97,87 %
22.11.2017 23:46 1,1 C 5,0 C 97 % 1013,4 hPa 0,0 l/m 1,9 km/h (1 Bft) S-SW 198 0 min 0,000 mm 0,0 UV-I 0 W/m 0,7 C 1,1 C 3,2 km/h (1 Bft) 97,37 %
22.11.2017 23:48 0,8 C 5,0 C 98 % 1013,4 hPa 0,0 l/m 3,3 km/h (1 Bft) S-SW 198 0 min 0,000 mm 0,0 UV-I 0 W/m 0,5 C 0,8 C 4,8 km/h (1 Bft) 97,87 %
22.11.2017 23:50 0,7 C 5,0 C 97 % 1013,4 hPa 0,0 l/m 3,8 km/h (1 Bft) S-SW 198 0 min 0,000 mm 0,0 UV-I 0 W/m 0,3 C 0,7 C 4,8 km/h (1 Bft) 98,00 %
22.11.2017 23:52 0,9 C 5,0 C 97 % 1013,4 hPa 0,0 l/m 2,4 km/h (1 Bft) S-SW 198 0 min 0,000 mm 0,0 UV-I 0 W/m 0,5 C 0,9 C 3,2 km/h (1 Bft) 98,00 %
22.11.2017 23:54 1,1 C 5,0 C 97 % 1013,4 hPa 0,0 l/m 2,7 km/h (1 Bft) S-SW 198 0 min 0,000 mm 0,0 UV-I 0 W/m 0,7 C 1,1 C 3,2 km/h (1 Bft) 97,73 %
22.11.2017 23:56 1,1 C 5,0 C 97 % 1013,4 hPa 0,0 l/m 1,9 km/h (1 Bft) S-SW 198 0 min 0,000 mm 0,0 UV-I 0 W/m 0,7 C 1,1 C 3,2 km/h (1 Bft) 96,00 %
22.11.2017 23:58 1,1 C 5,0 C 98 % 1013,3 hPa 0,0 l/m 0,1 km/h (0 Bft) S-SW 198 0 min 0,000 mm 0,0 UV-I 0 W/m 0,8 C 1,1 C 1,6 km/h (1 Bft) 97,56 %
_ Min-Zeit 23:50 00:00 15:08 23:10 - 00:30 - - - - - - 23:50 23:50 03:52 00:02
Minimum _ 0,7 C 5,0 C 75 % 1013,2 hPa - 0,0 km/h (0 Bft) - - - - - - 0,3 C 0,7 C 0,0 km/h (0 Bft) 10,00 %
_ Max-Zeit 14:22 00:00 00:04 00:00 04:20 12:18 - - 09:19 13:00 11:54 11:44 14:48 14:22 12:24 00:44
Maximum _ 12,1 C 5,0 C 98 % 1014,8 hPa 0,2 l/m 9,2 km/h
N-NO (2 Bft)
- - 3 min 0,178 mm 1,0 UV-I 377 W/m 8,5 C 12,1 C 14,5 km/h
NO (3 Bft)
100,00 %
Durchschnitt _ 5,7 C 5,0 C 92 % 1014,2 hPa #0,2 l/m 2,4 km/h (1 Bft) S-SW - #7:16 h #0,838 mm 0,7 UV-I 190 W/m 4,4 C 5,7 C 4,0 km/h (1 Bft) 97,86 %